<?xml version='1.0' encoding='UTF-8'?><gpx version="1.1" creator="JPX - https://github.com/jenetics/jpx" xmlns="http://www.topografix.com/GPX/1/1"><trk><trkseg><trkpt lat="45.5954262" lon="12.312655"><ele>4.0</ele><time>2026-04-12T15:18:18.086Z</time></trkpt><trkpt lat="45.5955131" lon="12.3124288"><ele>4.0</ele><time>2026-04-12T15:18:21.099Z</time></trkpt><trkpt lat="45.5956273" lon="12.3122114"><ele>4.0</ele><time>2026-04-12T15:18:29.068Z</time></trkpt><trkpt lat="45.5957671" lon="12.312238"><ele>3.9999999999999996</ele><time>2026-04-12T15:18:33.094Z</time></trkpt><trkpt lat="45.5958282" lon="12.3122988"><ele>4.0</ele><time>2026-04-12T15:18:35.121Z</time></trkpt><trkpt lat="45.5959002" lon="12.3123834"><ele>4.0</ele><time>2026-04-12T15:18:38.076Z</time></trkpt><trkpt lat="45.5959601" lon="12.3124478"><ele>4.0</ele><time>2026-04-12T15:18:40.107Z</time></trkpt><trkpt lat="45.5960056" lon="12.3125311"><ele>3.9999999999999996</ele><time>2026-04-12T15:18:43.088Z</time></trkpt><trkpt lat="45.5960619" lon="12.3126199"><ele>4.0</ele><time>2026-04-12T15:18:46.089Z</time></trkpt><trkpt lat="45.5961152" lon="12.3126762"><ele>4.0</ele><time>2026-04-12T15:18:48.108Z</time></trkpt><trkpt lat="45.5961635" lon="12.3127404"><ele>3.9999999999999996</ele><time>2026-04-12T15:18:50.084Z</time></trkpt><trkpt lat="45.5962275" lon="12.3128116"><ele>4.0</ele><time>2026-04-12T15:18:52.09Z</time></trkpt><trkpt lat="45.5962965" lon="12.3128811"><ele>4.0</ele><time>2026-04-12T15:18:54.097Z</time></trkpt><trkpt lat="45.5963385" lon="12.3129526"><ele>3.9999999999999996</ele><time>2026-04-12T15:18:56.093Z</time></trkpt><trkpt lat="45.5964054" lon="12.3130232"><ele>4.0</ele><time>2026-04-12T15:18:58.092Z</time></trkpt><trkpt lat="45.5964503" lon="12.313092"><ele>4.0</ele><time>2026-04-12T15:19:00.105Z</time></trkpt><trkpt lat="45.596505" lon="12.3131385"><ele>3.833333333333333</ele><time>2026-04-12T15:19:03.096Z</time></trkpt><trkpt lat="45.5965694" lon="12.3131523"><ele>3.6666666666666665</ele><time>2026-04-12T15:19:10.139Z</time></trkpt><trkpt lat="45.5966374" lon="12.3131891"><ele>3.5</ele><time>2026-04-12T15:19:14.101Z</time></trkpt><trkpt lat="45.5967152" lon="12.3132597"><ele>3.333333333333333</ele><time>2026-04-12T15:19:17.093Z</time></trkpt><trkpt lat="45.59677" lon="12.3133137"><ele>3.1666666666666665</ele><time>2026-04-12T15:19:19.095Z</time></trkpt><trkpt lat="45.5968213" lon="12.3133694"><ele>3.0</ele><time>2026-04-12T15:19:21.095Z</time></trkpt><trkpt lat="45.5968888" lon="12.3134516"><ele>3.0</ele><time>2026-04-12T15:19:24.108Z</time></trkpt><trkpt lat="45.5969644" lon="12.3135215"><ele>3.0</ele><time>2026-04-12T15:19:26.099Z</time></trkpt><trkpt lat="45.5970357" lon="12.3135774"><ele>3.0</ele><time>2026-04-12T15:19:28.099Z</time></trkpt><trkpt lat="45.5971123" lon="12.313647"><ele>3.0</ele><time>2026-04-12T15:19:30.115Z</time></trkpt><trkpt lat="45.5971945" lon="12.3137319"><ele>3.0</ele><time>2026-04-12T15:19:32.111Z</time></trkpt><trkpt lat="45.5972594" lon="12.3137935"><ele>3.0</ele><time>2026-04-12T15:19:34.107Z</time></trkpt><trkpt lat="45.5973252" lon="12.3138479"><ele>3.0</ele><time>2026-04-12T15:19:36.101Z</time></trkpt><trkpt lat="45.5973829" lon="12.3139211"><ele>3.0</ele><time>2026-04-12T15:19:38.095Z</time></trkpt><trkpt lat="45.597411" lon="12.3140234"><ele>3.0</ele><time>2026-04-12T15:19:40.1Z</time></trkpt><trkpt lat="45.5974268" lon="12.3141346"><ele>3.0</ele><time>2026-04-12T15:19:42.106Z</time></trkpt><trkpt lat="45.5974421" lon="12.314248"><ele>3.0</ele><time>2026-04-12T15:19:44.1Z</time></trkpt><trkpt lat="45.5974582" lon="12.31437"><ele>3.0</ele><time>2026-04-12T15:19:46.09Z</time></trkpt><trkpt lat="45.5974912" lon="12.3144938"><ele>3.0</ele><time>2026-04-12T15:19:48.096Z</time></trkpt><trkpt lat="45.5975191" lon="12.3146234"><ele>3.0</ele><time>2026-04-12T15:19:50.103Z</time></trkpt><trkpt lat="45.5975441" lon="12.3147501"><ele>3.0</ele><time>2026-04-12T15:19:52.101Z</time></trkpt><trkpt lat="45.5975601" lon="12.3148792"><ele>3.0</ele><time>2026-04-12T15:19:54.102Z</time></trkpt><trkpt lat="45.5975762" lon="12.3150134"><ele>3.0</ele><time>2026-04-12T15:19:56.105Z</time></trkpt><trkpt lat="45.5975939" lon="12.3151394"><ele>2.8</ele><time>2026-04-12T15:19:58.105Z</time></trkpt><trkpt lat="45.5976063" lon="12.3152605"><ele>2.5999999999999996</ele><time>2026-04-12T15:20:00.095Z</time></trkpt><trkpt lat="45.5976186" lon="12.3153961"><ele>2.4000000000000004</ele><time>2026-04-12T15:20:02.107Z</time></trkpt><trkpt lat="45.5976378" lon="12.315534"><ele>2.2</ele><time>2026-04-12T15:20:04.108Z</time></trkpt><trkpt lat="45.5976718" lon="12.3156524"><ele>2.0</ele><time>2026-04-12T15:20:06.103Z</time></trkpt><trkpt lat="45.5977158" lon="12.3157722"><ele>2.0</ele><time>2026-04-12T15:20:08.11Z</time></trkpt><trkpt lat="45.5977606" lon="12.3158913"><ele>2.0</ele><time>2026-04-12T15:20:10.109Z</time></trkpt><trkpt lat="45.5978079" lon="12.3159984"><ele>2.0</ele><time>2026-04-12T15:20:12.102Z</time></trkpt><trkpt lat="45.5978787" lon="12.3161076"><ele>2.0</ele><time>2026-04-12T15:20:14.116Z</time></trkpt><trkpt lat="45.5979596" lon="12.3162155"><ele>2.0</ele><time>2026-04-12T15:20:16.114Z</time></trkpt><trkpt lat="45.598022" lon="12.3163024"><ele>2.0</ele><time>2026-04-12T15:20:18.104Z</time></trkpt><trkpt lat="45.5980982" lon="12.3163936"><ele>2.0</ele><time>2026-04-12T15:20:20.143Z</time></trkpt><trkpt lat="45.5981782" lon="12.3164783"><ele>2.0</ele><time>2026-04-12T15:20:22.109Z</time></trkpt><trkpt lat="45.5982525" lon="12.3165692"><ele>2.0</ele><time>2026-04-12T15:20:24.109Z</time></trkpt><trkpt lat="45.5983228" lon="12.3166589"><ele>2.0</ele><time>2026-04-12T15:20:26.109Z</time></trkpt><trkpt lat="45.5984063" lon="12.3167505"><ele>2.6</ele><time>2026-04-12T15:20:28.13Z</time></trkpt><trkpt lat="45.5984842" lon="12.3168402"><ele>3.2</ele><time>2026-04-12T15:20:30.109Z</time></trkpt><trkpt lat="45.5985561" lon="12.3169377"><ele>3.8</ele><time>2026-04-12T15:20:32.109Z</time></trkpt><trkpt lat="45.5986673" lon="12.3170518"><ele>4.4</ele><time>2026-04-12T15:20:35.131Z</time></trkpt><trkpt lat="45.5987367" lon="12.3171195"><ele>5.0</ele><time>2026-04-12T15:20:37.113Z</time></trkpt><trkpt lat="45.598804" lon="12.3171883"><ele>5.0</ele><time>2026-04-12T15:20:39.115Z</time></trkpt><trkpt lat="45.5988792" lon="12.3172609"><ele>5.0</ele><time>2026-04-12T15:20:41.114Z</time></trkpt><trkpt lat="45.5989493" lon="12.3173369"><ele>5.0</ele><time>2026-04-12T15:20:43.121Z</time></trkpt><trkpt lat="45.5990476" lon="12.3174094"><ele>5.0</ele><time>2026-04-12T15:20:45.105Z</time></trkpt><trkpt lat="45.5991278" lon="12.3174692"><ele>5.0</ele><time>2026-04-12T15:20:47.123Z</time></trkpt><trkpt lat="45.5991975" lon="12.3175455"><ele>5.0</ele><time>2026-04-12T15:20:49.118Z</time></trkpt><trkpt lat="45.5992593" lon="12.3176063"><ele>5.0</ele><time>2026-04-12T15:20:51.109Z</time></trkpt><trkpt lat="45.5993294" lon="12.3176835"><ele>5.0</ele><time>2026-04-12T15:20:54.107Z</time></trkpt><trkpt lat="45.5992935" lon="12.3177915"><ele>5.0</ele><time>2026-04-12T15:20:57.113Z</time></trkpt><trkpt lat="45.5992612" lon="12.3179261"><ele>5.0</ele><time>2026-04-12T15:20:59.107Z</time></trkpt><trkpt lat="45.5992404" lon="12.3180361"><ele>5.0</ele><time>2026-04-12T15:21:01.118Z</time></trkpt><trkpt lat="45.5991964" lon="12.3181668"><ele>4.833333333333334</ele><time>2026-04-12T15:21:03.125Z</time></trkpt><trkpt lat="45.5991662" lon="12.3182976"><ele>4.666666666666667</ele><time>2026-04-12T15:21:05.119Z</time></trkpt><trkpt lat="45.5991414" lon="12.3184306"><ele>4.5</ele><time>2026-04-12T15:21:07.108Z</time></trkpt><trkpt lat="45.5991271" lon="12.3185625"><ele>4.333333333333333</ele><time>2026-04-12T15:21:09.108Z</time></trkpt><trkpt lat="45.5991158" lon="12.3186832"><ele>4.166666666666666</ele><time>2026-04-12T15:21:11.105Z</time></trkpt><trkpt lat="45.5990991" lon="12.318792"><ele>4.0</ele><time>2026-04-12T15:21:13.097Z</time></trkpt><trkpt lat="45.5990916" lon="12.3189133"><ele>4.0</ele><time>2026-04-12T15:21:15.115Z</time></trkpt><trkpt lat="45.5990763" lon="12.3190468"><ele>4.0</ele><time>2026-04-12T15:21:17.11Z</time></trkpt><trkpt lat="45.5990565" lon="12.319177"><ele>4.0</ele><time>2026-04-12T15:21:19.113Z</time></trkpt><trkpt lat="45.5990388" lon="12.3193217"><ele>4.0</ele><time>2026-04-12T15:21:21.116Z</time></trkpt><trkpt lat="45.5990208" lon="12.319455"><ele>4.0</ele><time>2026-04-12T15:21:23.119Z</time></trkpt><trkpt lat="45.5990031" lon="12.3195843"><ele>4.0</ele><time>2026-04-12T15:21:25.106Z</time></trkpt><trkpt lat="45.598981" lon="12.3197026"><ele>4.0</ele><time>2026-04-12T15:21:27.113Z</time></trkpt><trkpt lat="45.5989579" lon="12.3198255"><ele>4.0</ele><time>2026-04-12T15:21:29.109Z</time></trkpt><trkpt lat="45.5989378" lon="12.3199467"><ele>4.0</ele><time>2026-04-12T15:21:31.11Z</time></trkpt><trkpt lat="45.5988676" lon="12.3200816"><ele>4.0</ele><time>2026-04-12T15:21:33.11Z</time></trkpt><trkpt lat="45.5988221" lon="12.3202149"><ele>4.0</ele><time>2026-04-12T15:21:35.119Z</time></trkpt><trkpt lat="45.5987873" lon="12.3203334"><ele>4.0</ele><time>2026-04-12T15:21:37.125Z</time></trkpt><trkpt lat="45.5987581" lon="12.3204554"><ele>4.0</ele><time>2026-04-12T15:21:39.123Z</time></trkpt><trkpt lat="45.5987187" lon="12.3205799"><ele>4.0</ele><time>2026-04-12T15:21:41.121Z</time></trkpt><trkpt lat="45.5986808" lon="12.3207071"><ele>4.0</ele><time>2026-04-12T15:21:43.125Z</time></trkpt><trkpt lat="45.598656" lon="12.3208209"><ele>4.0</ele><time>2026-04-12T15:21:45.105Z</time></trkpt><trkpt lat="45.5986291" lon="12.3209637"><ele>4.0</ele><time>2026-04-12T15:21:47.111Z</time></trkpt><trkpt lat="45.5985949" lon="12.3210905"><ele>4.0</ele><time>2026-04-12T15:21:49.119Z</time></trkpt><trkpt lat="45.5985626" lon="12.3212184"><ele>4.0</ele><time>2026-04-12T15:21:51.117Z</time></trkpt><trkpt lat="45.5985336" lon="12.3213549"><ele>4.0</ele><time>2026-04-12T15:21:53.124Z</time></trkpt><trkpt lat="45.5985075" lon="12.3214699"><ele>4.0</ele><time>2026-04-12T15:21:55.112Z</time></trkpt><trkpt lat="45.5984776" lon="12.3215973"><ele>4.0</ele><time>2026-04-12T15:21:57.119Z</time></trkpt><trkpt lat="45.5984494" lon="12.3217191"><ele>4.0</ele><time>2026-04-12T15:21:59.118Z</time></trkpt><trkpt lat="45.5984213" lon="12.3218436"><ele>4.0</ele><time>2026-04-12T15:22:01.136Z</time></trkpt><trkpt lat="45.5983927" lon="12.3219689"><ele>4.0</ele><time>2026-04-12T15:22:03.129Z</time></trkpt><trkpt lat="45.5983638" lon="12.3220921"><ele>4.0</ele><time>2026-04-12T15:22:05.111Z</time></trkpt><trkpt lat="45.5983326" lon="12.3222125"><ele>4.0</ele><time>2026-04-12T15:22:07.121Z</time></trkpt><trkpt lat="45.5983003" lon="12.3223348"><ele>4.0</ele><time>2026-04-12T15:22:09.124Z</time></trkpt><trkpt lat="45.5982669" lon="12.3224533"><ele>4.0</ele><time>2026-04-12T15:22:11.116Z</time></trkpt><trkpt lat="45.5982313" lon="12.3225812"><ele>4.0</ele><time>2026-04-12T15:22:13.116Z</time></trkpt><trkpt lat="45.5981929" lon="12.3227045"><ele>4.2</ele><time>2026-04-12T15:22:15.123Z</time></trkpt><trkpt lat="45.5981566" lon="12.3228315"><ele>4.4</ele><time>2026-04-12T15:22:17.112Z</time></trkpt><trkpt lat="45.5981134" lon="12.32294"><ele>4.6</ele><time>2026-04-12T15:22:19.112Z</time></trkpt><trkpt lat="45.5980336" lon="12.3230292"><ele>4.8</ele><time>2026-04-12T15:22:21.104Z</time></trkpt><trkpt lat="45.5979539" lon="12.3231461"><ele>5.0</ele><time>2026-04-12T15:22:23.115Z</time></trkpt><trkpt lat="45.5979281" lon="12.3232999"><ele>5.0</ele><time>2026-04-12T15:22:25.114Z</time></trkpt><trkpt lat="45.5979369" lon="12.3234443"><ele>5.0</ele><time>2026-04-12T15:22:27.121Z</time></trkpt><trkpt lat="45.5979602" lon="12.3235767"><ele>5.0</ele><time>2026-04-12T15:22:29.113Z</time></trkpt><trkpt lat="45.5979959" lon="12.3236686"><ele>5.0</ele><time>2026-04-12T15:22:31.115Z</time></trkpt><trkpt lat="45.5980445" lon="12.3237284"><ele>5.0</ele><time>2026-04-12T15:22:33.117Z</time></trkpt><trkpt lat="45.5981232" lon="12.3237816"><ele>5.0</ele><time>2026-04-12T15:22:35.112Z</time></trkpt><trkpt lat="45.5982012" lon="12.3238471"><ele>5.2</ele><time>2026-04-12T15:22:37.116Z</time></trkpt><trkpt lat="45.5982748" lon="12.3239302"><ele>5.4</ele><time>2026-04-12T15:22:39.108Z</time></trkpt><trkpt lat="45.5983446" lon="12.3240258"><ele>5.6</ele><time>2026-04-12T15:22:41.107Z</time></trkpt><trkpt lat="45.5984117" lon="12.3241247"><ele>5.8</ele><time>2026-04-12T15:22:43.111Z</time></trkpt><trkpt lat="45.5984714" lon="12.3242204"><ele>6.0</ele><time>2026-04-12T15:22:45.118Z</time></trkpt><trkpt lat="45.5985288" lon="12.3243244"><ele>6.0</ele><time>2026-04-12T15:22:47.11Z</time></trkpt><trkpt lat="45.5985947" lon="12.3244252"><ele>6.0</ele><time>2026-04-12T15:22:49.116Z</time></trkpt><trkpt lat="45.5986562" lon="12.3245249"><ele>6.0</ele><time>2026-04-12T15:22:51.108Z</time></trkpt><trkpt lat="45.5987218" lon="12.3246261"><ele>6.0</ele><time>2026-04-12T15:22:53.114Z</time></trkpt><trkpt lat="45.5987959" lon="12.3247313"><ele>6.0</ele><time>2026-04-12T15:22:55.119Z</time></trkpt><trkpt lat="45.5988715" lon="12.3248305"><ele>5.8</ele><time>2026-04-12T15:22:57.104Z</time></trkpt><trkpt lat="45.5989363" lon="12.3249116"><ele>5.6</ele><time>2026-04-12T15:22:59.108Z</time></trkpt><trkpt lat="45.5990161" lon="12.3249905"><ele>5.4</ele><time>2026-04-12T15:23:01.121Z</time></trkpt><trkpt lat="45.5991005" lon="12.3250654"><ele>5.2</ele><time>2026-04-12T15:23:03.112Z</time></trkpt><trkpt lat="45.5991875" lon="12.3251296"><ele>5.0</ele><time>2026-04-12T15:23:05.129Z</time></trkpt><trkpt lat="45.5992666" lon="12.3251953"><ele>5.0</ele><time>2026-04-12T15:23:07.123Z</time></trkpt><trkpt lat="45.5993491" lon="12.3252532"><ele>5.0</ele><time>2026-04-12T15:23:09.112Z</time></trkpt><trkpt lat="45.5994328" lon="12.3253119"><ele>5.0</ele><time>2026-04-12T15:23:11.108Z</time></trkpt><trkpt lat="45.5995109" lon="12.3253762"><ele>5.0</ele><time>2026-04-12T15:23:13.11Z</time></trkpt><trkpt lat="45.5995987" lon="12.3254578"><ele>5.0</ele><time>2026-04-12T15:23:15.12Z</time></trkpt><trkpt lat="45.5996563" lon="12.3255756"><ele>4.6</ele><time>2026-04-12T15:23:17.112Z</time></trkpt><trkpt lat="45.5996778" lon="12.3257142"><ele>4.2</ele><time>2026-04-12T15:23:19.122Z</time></trkpt><trkpt lat="45.5996934" lon="12.325886"><ele>3.8</ele><time>2026-04-12T15:23:21.122Z</time></trkpt><trkpt lat="45.5997438" lon="12.3260337"><ele>3.4</ele><time>2026-04-12T15:23:23.113Z</time></trkpt><trkpt lat="45.5998189" lon="12.3261404"><ele>3.0</ele><time>2026-04-12T15:23:25.112Z</time></trkpt><trkpt lat="45.5998907" lon="12.3262436"><ele>3.0</ele><time>2026-04-12T15:23:27.111Z</time></trkpt><trkpt lat="45.5999144" lon="12.3263713"><ele>3.0</ele><time>2026-04-12T15:23:29.119Z</time></trkpt><trkpt lat="45.5999267" lon="12.3265126"><ele>3.0</ele><time>2026-04-12T15:23:31.124Z</time></trkpt><trkpt lat="45.5999654" lon="12.3266419"><ele>3.0</ele><time>2026-04-12T15:23:33.119Z</time></trkpt><trkpt lat="45.6000275" lon="12.3267544"><ele>3.0</ele><time>2026-04-12T15:23:35.117Z</time></trkpt><trkpt lat="45.6000951" lon="12.3268659"><ele>3.2</ele><time>2026-04-12T15:23:37.106Z</time></trkpt><trkpt lat="45.6001596" lon="12.3269751"><ele>3.4</ele><time>2026-04-12T15:23:39.109Z</time></trkpt><trkpt lat="45.6002311" lon="12.3270872"><ele>3.6000000000000005</ele><time>2026-04-12T15:23:41.108Z</time></trkpt><trkpt lat="45.6002987" lon="12.327193"><ele>3.8000000000000003</ele><time>2026-04-12T15:23:43.112Z</time></trkpt><trkpt lat="45.6003539" lon="12.3272957"><ele>4.0</ele><time>2026-04-12T15:23:45.117Z</time></trkpt><trkpt lat="45.6004251" lon="12.3274086"><ele>4.0</ele><time>2026-04-12T15:23:47.101Z</time></trkpt><trkpt lat="45.6004908" lon="12.3275074"><ele>4.0</ele><time>2026-04-12T15:23:49.122Z</time></trkpt><trkpt lat="45.6005518" lon="12.3276152"><ele>4.0</ele><time>2026-04-12T15:23:51.105Z</time></trkpt><trkpt lat="45.6006063" lon="12.3277236"><ele>4.0</ele><time>2026-04-12T15:23:53.105Z</time></trkpt><trkpt lat="45.6006519" lon="12.327825"><ele>4.0</ele><time>2026-04-12T15:23:55.128Z</time></trkpt><trkpt lat="45.6007104" lon="12.3279398"><ele>4.0</ele><time>2026-04-12T15:23:57.117Z</time></trkpt><trkpt lat="45.600773" lon="12.3280542"><ele>4.0</ele><time>2026-04-12T15:23:59.105Z</time></trkpt><trkpt lat="45.6008367" lon="12.3281704"><ele>4.0</ele><time>2026-04-12T15:24:01.111Z</time></trkpt><trkpt lat="45.6008948" lon="12.3282734"><ele>4.0</ele><time>2026-04-12T15:24:03.113Z</time></trkpt><trkpt lat="45.6009654" lon="12.3283852"><ele>4.0</ele><time>2026-04-12T15:24:05.109Z</time></trkpt><trkpt lat="45.6010247" lon="12.3284946"><ele>4.0</ele><time>2026-04-12T15:24:07.101Z</time></trkpt><trkpt lat="45.6011033" lon="12.3286065"><ele>4.0</ele><time>2026-04-12T15:24:09.109Z</time></trkpt><trkpt lat="45.6011491" lon="12.328669"><ele>4.0</ele><time>2026-04-12T15:24:10.122Z</time></trkpt><trkpt lat="45.6012227" lon="12.328783"><ele>4.0</ele><time>2026-04-12T15:24:12.106Z</time></trkpt><trkpt lat="45.6012939" lon="12.328892"><ele>4.0</ele><time>2026-04-12T15:24:14.112Z</time></trkpt><trkpt lat="45.601359" lon="12.329008"><ele>4.0</ele><time>2026-04-12T15:24:16.121Z</time></trkpt><trkpt lat="45.6014097" lon="12.3291209"><ele>4.0</ele><time>2026-04-12T15:24:18.118Z</time></trkpt><trkpt lat="45.6014676" lon="12.3292204"><ele>4.0</ele><time>2026-04-12T15:24:20.113Z</time></trkpt><trkpt lat="45.6015487" lon="12.329347"><ele>4.0</ele><time>2026-04-12T15:24:22.107Z</time></trkpt><trkpt lat="45.6016166" lon="12.3294519"><ele>4.0</ele><time>2026-04-12T15:24:24.12Z</time></trkpt><trkpt lat="45.6017024" lon="12.3295747"><ele>4.0</ele><time>2026-04-12T15:24:26.105Z</time></trkpt><trkpt lat="45.6017641" lon="12.3296821"><ele>4.0</ele><time>2026-04-12T15:24:28.11Z</time></trkpt><trkpt lat="45.601829" lon="12.3297906"><ele>4.0</ele><time>2026-04-12T15:24:30.127Z</time></trkpt><trkpt lat="45.6018925" lon="12.3299035"><ele>4.0</ele><time>2026-04-12T15:24:32.105Z</time></trkpt><trkpt lat="45.6019544" lon="12.3300197"><ele>4.0</ele><time>2026-04-12T15:24:34.113Z</time></trkpt><trkpt lat="45.6020193" lon="12.3301311"><ele>4.0</ele><time>2026-04-12T15:24:36.119Z</time></trkpt><trkpt lat="45.6020811" lon="12.3302424"><ele>4.0</ele><time>2026-04-12T15:24:38.116Z</time></trkpt><trkpt lat="45.6021449" lon="12.330352"><ele>4.0</ele><time>2026-04-12T15:24:40.11Z</time></trkpt><trkpt lat="45.602213" lon="12.3304624"><ele>4.0</ele><time>2026-04-12T15:24:42.11Z</time></trkpt><trkpt lat="45.6022806" lon="12.3305694"><ele>4.0</ele><time>2026-04-12T15:24:44.123Z</time></trkpt><trkpt lat="45.6023491" lon="12.3306749"><ele>4.2</ele><time>2026-04-12T15:24:46.115Z</time></trkpt><trkpt lat="45.6024159" lon="12.3307837"><ele>4.4</ele><time>2026-04-12T15:24:48.113Z</time></trkpt><trkpt lat="45.6024777" lon="12.3308851"><ele>4.6</ele><time>2026-04-12T15:24:50.112Z</time></trkpt><trkpt lat="45.6025465" lon="12.3310017"><ele>4.8</ele><time>2026-04-12T15:24:52.113Z</time></trkpt><trkpt lat="45.6026159" lon="12.3311097"><ele>5.0</ele><time>2026-04-12T15:24:54.118Z</time></trkpt><trkpt lat="45.6026785" lon="12.3312142"><ele>5.0</ele><time>2026-04-12T15:24:56.125Z</time></trkpt><trkpt lat="45.6027356" lon="12.3313171"><ele>5.0</ele><time>2026-04-12T15:24:58.121Z</time></trkpt><trkpt lat="45.6027869" lon="12.3314149"><ele>5.0</ele><time>2026-04-12T15:25:00.112Z</time></trkpt><trkpt lat="45.6028321" lon="12.331501"><ele>5.0</ele><time>2026-04-12T15:25:02.108Z</time></trkpt><trkpt lat="45.6028659" lon="12.3315927"><ele>5.0</ele><time>2026-04-12T15:25:04.109Z</time></trkpt><trkpt lat="45.602917" lon="12.3316917"><ele>5.0</ele><time>2026-04-12T15:25:06.119Z</time></trkpt><trkpt lat="45.6029528" lon="12.3317786"><ele>4.666666666666667</ele><time>2026-04-12T15:25:08.112Z</time></trkpt><trkpt lat="45.6030074" lon="12.331887"><ele>4.333333333333334</ele><time>2026-04-12T15:25:10.111Z</time></trkpt><trkpt lat="45.603048" lon="12.3319875"><ele>4.0</ele><time>2026-04-12T15:25:12.113Z</time></trkpt><trkpt lat="45.6030837" lon="12.3320873"><ele>3.666666666666667</ele><time>2026-04-12T15:25:16.11Z</time></trkpt><trkpt lat="45.6031604" lon="12.3320801"><ele>3.3333333333333335</ele><time>2026-04-12T15:25:21.107Z</time></trkpt><trkpt lat="45.603228" lon="12.3321431"><ele>3.0</ele><time>2026-04-12T15:25:24.126Z</time></trkpt><trkpt lat="45.6032934" lon="12.3321834"><ele>2.8</ele><time>2026-04-12T15:25:25.112Z</time></trkpt><trkpt lat="45.6033708" lon="12.3322991"><ele>2.5999999999999996</ele><time>2026-04-12T15:25:27.109Z</time></trkpt><trkpt lat="45.6034222" lon="12.3324376"><ele>2.4000000000000004</ele><time>2026-04-12T15:25:29.115Z</time></trkpt><trkpt lat="45.6034511" lon="12.3325756"><ele>2.2</ele><time>2026-04-12T15:25:31.106Z</time></trkpt><trkpt lat="45.6034802" lon="12.3327309"><ele>2.0</ele><time>2026-04-12T15:25:33.105Z</time></trkpt><trkpt lat="45.6034813" lon="12.3328673"><ele>1.9999999999999998</ele><time>2026-04-12T15:25:35.11Z</time></trkpt><trkpt lat="45.6034689" lon="12.3329875"><ele>2.0</ele><time>2026-04-12T15:25:37.111Z</time></trkpt><trkpt lat="45.603512" lon="12.3331067"><ele>2.0</ele><time>2026-04-12T15:25:39.112Z</time></trkpt><trkpt lat="45.603542" lon="12.3332353"><ele>2.0</ele><time>2026-04-12T15:25:41.108Z</time></trkpt><trkpt lat="45.6035643" lon="12.3333586"><ele>1.9999999999999998</ele><time>2026-04-12T15:25:43.104Z</time></trkpt><trkpt lat="45.6035823" lon="12.3334698"><ele>2.0</ele><time>2026-04-12T15:25:45.123Z</time></trkpt><trkpt lat="45.6036472" lon="12.3335216"><ele>2.333333333333333</ele><time>2026-04-12T15:25:47.108Z</time></trkpt><trkpt lat="45.6037207" lon="12.3335393"><ele>2.6666666666666665</ele><time>2026-04-12T15:25:49.121Z</time></trkpt><trkpt lat="45.6038144" lon="12.3335614"><ele>3.0</ele><time>2026-04-12T15:25:51.114Z</time></trkpt><trkpt lat="45.6039021" lon="12.3335818"><ele>3.333333333333333</ele><time>2026-04-12T15:25:53.102Z</time></trkpt><trkpt lat="45.6039812" lon="12.3336051"><ele>3.6666666666666665</ele><time>2026-04-12T15:25:55.108Z</time></trkpt><trkpt lat="45.6040489" lon="12.3336278"><ele>4.0</ele><time>2026-04-12T15:25:57.118Z</time></trkpt><trkpt lat="45.6041258" lon="12.3336489"><ele>3.9999999999999996</ele><time>2026-04-12T15:25:59.115Z</time></trkpt><trkpt lat="45.6042089" lon="12.3336819"><ele>4.0</ele><time>2026-04-12T15:26:01.135Z</time></trkpt><trkpt lat="45.6042963" lon="12.3337026"><ele>4.0</ele><time>2026-04-12T15:26:03.106Z</time></trkpt><trkpt lat="45.6043953" lon="12.333724"><ele>4.0</ele><time>2026-04-12T15:26:05.109Z</time></trkpt><trkpt lat="45.60448" lon="12.3337377"><ele>3.9999999999999996</ele><time>2026-04-12T15:26:07.126Z</time></trkpt><trkpt lat="45.6045601" lon="12.3337526"><ele>4.0</ele><time>2026-04-12T15:26:09.124Z</time></trkpt><trkpt lat="45.6046341" lon="12.3338073"><ele>4.4</ele><time>2026-04-12T15:26:12.118Z</time></trkpt><trkpt lat="45.6046306" lon="12.333952"><ele>4.800000000000001</ele><time>2026-04-12T15:26:15.115Z</time></trkpt><trkpt lat="45.6046061" lon="12.3340856"><ele>5.199999999999999</ele><time>2026-04-12T15:26:17.112Z</time></trkpt><trkpt lat="45.6045756" lon="12.3342469"><ele>5.6</ele><time>2026-04-12T15:26:19.118Z</time></trkpt><trkpt lat="45.6045609" lon="12.3343891"><ele>6.0</ele><time>2026-04-12T15:26:21.115Z</time></trkpt><trkpt lat="45.6045383" lon="12.3345177"><ele>6.0</ele><time>2026-04-12T15:26:23.117Z</time></trkpt><trkpt lat="45.6045212" lon="12.3346136"><ele>6.0</ele><time>2026-04-12T15:26:24.113Z</time></trkpt><trkpt lat="45.604489" lon="12.3347564"><ele>6.0</ele><time>2026-04-12T15:26:26.147Z</time></trkpt><trkpt lat="45.6044699" lon="12.3348712"><ele>6.0</ele><time>2026-04-12T15:26:28.11Z</time></trkpt><trkpt lat="45.6044483" lon="12.3349944"><ele>6.0</ele><time>2026-04-12T15:26:30.109Z</time></trkpt><trkpt lat="45.6044297" lon="12.3351326"><ele>6.0</ele><time>2026-04-12T15:26:32.116Z</time></trkpt><trkpt lat="45.6044085" lon="12.3352638"><ele>5.2</ele><time>2026-04-12T15:26:34.113Z</time></trkpt><trkpt lat="45.6043839" lon="12.3353804"><ele>4.3999999999999995</ele><time>2026-04-12T15:26:36.112Z</time></trkpt><trkpt lat="45.6043379" lon="12.3354779"><ele>3.6</ele><time>2026-04-12T15:26:38.12Z</time></trkpt><trkpt lat="45.6042414" lon="12.3355745"><ele>2.8</ele><time>2026-04-12T15:26:40.106Z</time></trkpt><trkpt lat="45.6041366" lon="12.3356416"><ele>2.0</ele><time>2026-04-12T15:26:42.112Z</time></trkpt><trkpt lat="45.6040448" lon="12.3356009"><ele>1.9999999999999998</ele><time>2026-04-12T15:26:44.111Z</time></trkpt><trkpt lat="45.6039765" lon="12.3355297"><ele>2.0</ele><time>2026-04-12T15:26:46.129Z</time></trkpt><trkpt lat="45.6039022" lon="12.3355273"><ele>2.0</ele><time>2026-04-12T15:26:48.115Z</time></trkpt><trkpt lat="45.6038311" lon="12.3355264"><ele>2.0</ele><time>2026-04-12T15:26:51.114Z</time></trkpt><trkpt lat="45.6037907" lon="12.3354303"><ele>1.9999999999999998</ele><time>2026-04-12T15:26:54.111Z</time></trkpt><trkpt lat="45.6037646" lon="12.3353063"><ele>2.0</ele><time>2026-04-12T15:26:57.112Z</time></trkpt><trkpt lat="45.6037439" lon="12.3351936"><ele>2.0</ele><time>2026-04-12T15:26:59.122Z</time></trkpt><trkpt lat="45.6037134" lon="12.3351049"><ele>1.9999999999999998</ele><time>2026-04-12T15:27:01.113Z</time></trkpt><trkpt lat="45.6037701" lon="12.3351575"><ele>2.0</ele><time>2026-04-12T15:27:09.124Z</time></trkpt><trkpt lat="45.6037958" lon="12.3352516"><ele>2.0</ele><time>2026-04-12T15:27:12.112Z</time></trkpt><trkpt lat="45.6038203" lon="12.3353809"><ele>1.9999999999999998</ele><time>2026-04-12T15:27:15.11Z</time></trkpt><trkpt lat="45.6038377" lon="12.3354728"><ele>2.0</ele><time>2026-04-12T15:27:17.111Z</time></trkpt><trkpt lat="45.6038548" lon="12.3355636"><ele>2.0</ele><time>2026-04-12T15:27:19.111Z</time></trkpt><trkpt lat="45.6038703" lon="12.3356539"><ele>1.9999999999999998</ele><time>2026-04-12T15:27:21.111Z</time></trkpt><trkpt lat="45.6038884" lon="12.3357463"><ele>2.0</ele><time>2026-04-12T15:27:23.121Z</time></trkpt><trkpt lat="45.6039005" lon="12.3358632"><ele>2.0</ele><time>2026-04-12T15:27:26.12Z</time></trkpt><trkpt lat="45.6039258" lon="12.3359918"><ele>2.0</ele><time>2026-04-12T15:27:29.13Z</time></trkpt><trkpt lat="45.6039456" lon="12.3360869"><ele>1.9999999999999998</ele><time>2026-04-12T15:27:31.106Z</time></trkpt><trkpt lat="45.603964" lon="12.3361808"><ele>2.0</ele><time>2026-04-12T15:27:33.119Z</time></trkpt><trkpt lat="45.6039796" lon="12.3362776"><ele>2.333333333333333</ele><time>2026-04-12T15:27:35.126Z</time></trkpt><trkpt lat="45.6040029" lon="12.3363884"><ele>2.6666666666666665</ele><time>2026-04-12T15:27:37.118Z</time></trkpt><trkpt lat="45.6040432" lon="12.3365016"><ele>3.0</ele><time>2026-04-12T15:27:39.11Z</time></trkpt><trkpt lat="45.6040851" lon="12.3366368"><ele>3.333333333333333</ele><time>2026-04-12T15:27:41.106Z</time></trkpt><trkpt lat="45.6041153" lon="12.336772"><ele>3.6666666666666665</ele><time>2026-04-12T15:27:43.111Z</time></trkpt><trkpt lat="45.6041367" lon="12.336877"><ele>4.0</ele><time>2026-04-12T15:27:45.119Z</time></trkpt><trkpt lat="45.6041649" lon="12.3369769"><ele>3.9999999999999996</ele><time>2026-04-12T15:27:48.11Z</time></trkpt><trkpt lat="45.6041582" lon="12.3370689"><ele>4.0</ele><time>2026-04-12T15:27:52.114Z</time></trkpt><trkpt lat="45.6041261" lon="12.3369307"><ele>4.0</ele><time>2026-04-12T15:27:57.113Z</time></trkpt><trkpt lat="45.6041036" lon="12.3368252"><ele>4.0</ele><time>2026-04-12T15:27:59.13Z</time></trkpt><trkpt lat="45.6040788" lon="12.3367206"><ele>3.9999999999999996</ele><time>2026-04-12T15:28:01.125Z</time></trkpt><trkpt lat="45.6040488" lon="12.3366105"><ele>4.0</ele><time>2026-04-12T15:28:03.114Z</time></trkpt><trkpt lat="45.6040399" lon="12.3365065"><ele>3.9999999999999996</ele><time>2026-04-12T15:28:05.114Z</time></trkpt><trkpt lat="45.6039807" lon="12.3364132"><ele>4.0</ele><time>2026-04-12T15:28:09.12Z</time></trkpt><trkpt lat="45.6039018" lon="12.3363406"><ele>4.0</ele><time>2026-04-12T15:28:11.109Z</time></trkpt><trkpt lat="45.6038324" lon="12.3363094"><ele>4.0</ele><time>2026-04-12T15:28:13.115Z</time></trkpt><trkpt lat="45.6037521" lon="12.3362598"><ele>3.9999999999999996</ele><time>2026-04-12T15:28:15.111Z</time></trkpt><trkpt lat="45.6036584" lon="12.3362215"><ele>4.0</ele><time>2026-04-12T15:28:17.141Z</time></trkpt><trkpt lat="45.603557" lon="12.3362045"><ele>4.2</ele><time>2026-04-12T15:28:19.128Z</time></trkpt><trkpt lat="45.6034631" lon="12.3361827"><ele>4.4</ele><time>2026-04-12T15:28:21.139Z</time></trkpt><trkpt lat="45.6033615" lon="12.3361802"><ele>4.6</ele><time>2026-04-12T15:28:23.11Z</time></trkpt><trkpt lat="45.6032653" lon="12.3361553"><ele>4.8</ele><time>2026-04-12T15:28:25.122Z</time></trkpt><trkpt lat="45.6031655" lon="12.3361263"><ele>5.0</ele><time>2026-04-12T15:28:27.133Z</time></trkpt><trkpt lat="45.6030466" lon="12.3361086"><ele>5.0</ele><time>2026-04-12T15:28:29.137Z</time></trkpt><trkpt lat="45.602947" lon="12.3360837"><ele>5.0</ele><time>2026-04-12T15:28:31.128Z</time></trkpt><trkpt lat="45.6028554" lon="12.3360268"><ele>5.0</ele><time>2026-04-12T15:28:33.125Z</time></trkpt><trkpt lat="45.6027675" lon="12.3359586"><ele>5.0</ele><time>2026-04-12T15:28:35.127Z</time></trkpt><trkpt lat="45.6026917" lon="12.3358781"><ele>5.0</ele><time>2026-04-12T15:28:37.112Z</time></trkpt><trkpt lat="45.6026399" lon="12.3357961"><ele>4.833333333333334</ele><time>2026-04-12T15:28:39.121Z</time></trkpt><trkpt lat="45.6025904" lon="12.3357207"><ele>4.666666666666667</ele><time>2026-04-12T15:28:41.122Z</time></trkpt><trkpt lat="45.6025348" lon="12.3356221"><ele>4.5</ele><time>2026-04-12T15:28:43.141Z</time></trkpt><trkpt lat="45.6024822" lon="12.3355298"><ele>4.333333333333333</ele><time>2026-04-12T15:28:45.12Z</time></trkpt><trkpt lat="45.6024293" lon="12.3354455"><ele>4.166666666666666</ele><time>2026-04-12T15:28:47.131Z</time></trkpt><trkpt lat="45.6023747" lon="12.3353618"><ele>4.0</ele><time>2026-04-12T15:28:49.128Z</time></trkpt><trkpt lat="45.6023094" lon="12.3352707"><ele>3.8000000000000003</ele><time>2026-04-12T15:28:51.13Z</time></trkpt><trkpt lat="45.6022383" lon="12.3351817"><ele>3.6000000000000005</ele><time>2026-04-12T15:28:53.114Z</time></trkpt><trkpt lat="45.6021643" lon="12.3350988"><ele>3.4</ele><time>2026-04-12T15:28:55.127Z</time></trkpt><trkpt lat="45.6020947" lon="12.3350153"><ele>3.2</ele><time>2026-04-12T15:28:57.126Z</time></trkpt><trkpt lat="45.6020269" lon="12.3349264"><ele>3.0</ele><time>2026-04-12T15:28:59.119Z</time></trkpt><trkpt lat="45.6019555" lon="12.3348318"><ele>3.0</ele><time>2026-04-12T15:29:01.119Z</time></trkpt><trkpt lat="45.6018803" lon="12.3347445"><ele>3.0</ele><time>2026-04-12T15:29:03.114Z</time></trkpt><trkpt lat="45.6018021" lon="12.3346574"><ele>3.0</ele><time>2026-04-12T15:29:05.13Z</time></trkpt><trkpt lat="45.6017202" lon="12.3345603"><ele>3.0</ele><time>2026-04-12T15:29:07.121Z</time></trkpt><trkpt lat="45.6016439" lon="12.3344724"><ele>3.0</ele><time>2026-04-12T15:29:09.127Z</time></trkpt><trkpt lat="45.6015703" lon="12.3343883"><ele>3.0</ele><time>2026-04-12T15:29:11.127Z</time></trkpt><trkpt lat="45.601495" lon="12.3342936"><ele>3.0</ele><time>2026-04-12T15:29:13.115Z</time></trkpt><trkpt lat="45.6014192" lon="12.3342043"><ele>3.0</ele><time>2026-04-12T15:29:15.146Z</time></trkpt><trkpt lat="45.601342" lon="12.3341071"><ele>3.0</ele><time>2026-04-12T15:29:17.119Z</time></trkpt><trkpt lat="45.6012696" lon="12.3340221"><ele>3.0</ele><time>2026-04-12T15:29:19.137Z</time></trkpt><trkpt lat="45.6011972" lon="12.3339295"><ele>3.4</ele><time>2026-04-12T15:29:21.109Z</time></trkpt><trkpt lat="45.6011288" lon="12.3338433"><ele>3.8</ele><time>2026-04-12T15:29:23.124Z</time></trkpt><trkpt lat="45.6010573" lon="12.3337538"><ele>4.2</ele><time>2026-04-12T15:29:25.122Z</time></trkpt><trkpt lat="45.600985" lon="12.3336669"><ele>4.6</ele><time>2026-04-12T15:29:27.124Z</time></trkpt><trkpt lat="45.6009115" lon="12.3335741"><ele>5.0</ele><time>2026-04-12T15:29:29.119Z</time></trkpt><trkpt lat="45.6008395" lon="12.3334839"><ele>5.0</ele><time>2026-04-12T15:29:31.122Z</time></trkpt><trkpt lat="45.6007693" lon="12.333399"><ele>5.0</ele><time>2026-04-12T15:29:33.14Z</time></trkpt><trkpt lat="45.6006966" lon="12.3333077"><ele>5.0</ele><time>2026-04-12T15:29:35.131Z</time></trkpt><trkpt lat="45.6006214" lon="12.3332187"><ele>5.0</ele><time>2026-04-12T15:29:37.137Z</time></trkpt><trkpt lat="45.6005414" lon="12.3331256"><ele>5.0</ele><time>2026-04-12T15:29:39.12Z</time></trkpt><trkpt lat="45.6004548" lon="12.3330205"><ele>4.6</ele><time>2026-04-12T15:29:41.128Z</time></trkpt><trkpt lat="45.6003788" lon="12.3329272"><ele>4.2</ele><time>2026-04-12T15:29:43.111Z</time></trkpt><trkpt lat="45.6003095" lon="12.332848"><ele>3.8</ele><time>2026-04-12T15:29:45.12Z</time></trkpt><trkpt lat="45.6002346" lon="12.3327636"><ele>3.4</ele><time>2026-04-12T15:29:47.115Z</time></trkpt><trkpt lat="45.6001521" lon="12.3326753"><ele>3.0</ele><time>2026-04-12T15:29:49.143Z</time></trkpt><trkpt lat="45.6000736" lon="12.3325781"><ele>2.8</ele><time>2026-04-12T15:29:51.127Z</time></trkpt><trkpt lat="45.6000008" lon="12.3324779"><ele>2.5999999999999996</ele><time>2026-04-12T15:29:53.131Z</time></trkpt><trkpt lat="45.5999308" lon="12.3323831"><ele>2.4000000000000004</ele><time>2026-04-12T15:29:55.116Z</time></trkpt><trkpt lat="45.5998654" lon="12.332296"><ele>2.2</ele><time>2026-04-12T15:29:57.148Z</time></trkpt><trkpt lat="45.5998096" lon="12.3322109"><ele>2.0</ele><time>2026-04-12T15:29:59.12Z</time></trkpt><trkpt lat="45.5997486" lon="12.3321272"><ele>2.0</ele><time>2026-04-12T15:30:01.116Z</time></trkpt><trkpt lat="45.5996835" lon="12.3320391"><ele>2.0</ele><time>2026-04-12T15:30:03.124Z</time></trkpt><trkpt lat="45.5996159" lon="12.3319433"><ele>2.0</ele><time>2026-04-12T15:30:05.121Z</time></trkpt><trkpt lat="45.5995347" lon="12.3318209"><ele>2.0</ele><time>2026-04-12T15:30:07.128Z</time></trkpt><trkpt lat="45.599461" lon="12.3317063"><ele>2.0</ele><time>2026-04-12T15:30:09.122Z</time></trkpt><trkpt lat="45.5993887" lon="12.3316039"><ele>2.4000000000000004</ele><time>2026-04-12T15:30:11.11Z</time></trkpt><trkpt lat="45.5993085" lon="12.3314927"><ele>2.8000000000000003</ele><time>2026-04-12T15:30:13.123Z</time></trkpt><trkpt lat="45.5992409" lon="12.3314007"><ele>3.2</ele><time>2026-04-12T15:30:15.121Z</time></trkpt><trkpt lat="45.5991763" lon="12.3312921"><ele>3.6</ele><time>2026-04-12T15:30:17.118Z</time></trkpt><trkpt lat="45.5991142" lon="12.3311771"><ele>4.0</ele><time>2026-04-12T15:30:19.12Z</time></trkpt><trkpt lat="45.5990487" lon="12.3310669"><ele>4.166666666666666</ele><time>2026-04-12T15:30:21.128Z</time></trkpt><trkpt lat="45.5989899" lon="12.3309628"><ele>4.333333333333333</ele><time>2026-04-12T15:30:23.118Z</time></trkpt><trkpt lat="45.5989427" lon="12.3308393"><ele>4.5</ele><time>2026-04-12T15:30:25.111Z</time></trkpt><trkpt lat="45.5989063" lon="12.3307462"><ele>4.666666666666667</ele><time>2026-04-12T15:30:26.146Z</time></trkpt><trkpt lat="45.5988715" lon="12.3306617"><ele>4.833333333333334</ele><time>2026-04-12T15:30:27.121Z</time></trkpt><trkpt lat="45.5988379" lon="12.3305734"><ele>5.0</ele><time>2026-04-12T15:30:28.11Z</time></trkpt><trkpt lat="45.598803" lon="12.330452"><ele>4.666666666666667</ele><time>2026-04-12T15:30:30.136Z</time></trkpt><trkpt lat="45.5987681" lon="12.330341"><ele>4.333333333333334</ele><time>2026-04-12T15:30:33.149Z</time></trkpt><trkpt lat="45.5987211" lon="12.3302524"><ele>4.0</ele><time>2026-04-12T15:30:36.111Z</time></trkpt><trkpt lat="45.5986827" lon="12.3301451"><ele>3.666666666666667</ele><time>2026-04-12T15:30:38.118Z</time></trkpt><trkpt lat="45.5986213" lon="12.330018"><ele>3.3333333333333335</ele><time>2026-04-12T15:30:40.113Z</time></trkpt><trkpt lat="45.5985629" lon="12.3299153"><ele>3.0</ele><time>2026-04-12T15:30:42.119Z</time></trkpt><trkpt lat="45.5985063" lon="12.329812"><ele>2.8</ele><time>2026-04-12T15:30:44.133Z</time></trkpt><trkpt lat="45.5984414" lon="12.3296941"><ele>2.5999999999999996</ele><time>2026-04-12T15:30:46.111Z</time></trkpt><trkpt lat="45.5983844" lon="12.3295802"><ele>2.4000000000000004</ele><time>2026-04-12T15:30:48.122Z</time></trkpt><trkpt lat="45.598331" lon="12.3294692"><ele>2.2</ele><time>2026-04-12T15:30:50.135Z</time></trkpt><trkpt lat="45.5982699" lon="12.3293498"><ele>2.0</ele><time>2026-04-12T15:30:52.124Z</time></trkpt><trkpt lat="45.5982009" lon="12.3292393"><ele>1.9999999999999998</ele><time>2026-04-12T15:30:54.126Z</time></trkpt><trkpt lat="45.5981225" lon="12.3291261"><ele>2.0</ele><time>2026-04-12T15:30:56.116Z</time></trkpt><trkpt lat="45.5980655" lon="12.3290471"><ele>2.0</ele><time>2026-04-12T15:30:58.109Z</time></trkpt><trkpt lat="45.598001" lon="12.3289571"><ele>2.0</ele><time>2026-04-12T15:31:00.155Z</time></trkpt><trkpt lat="45.5979397" lon="12.3288823"><ele>1.9999999999999998</ele><time>2026-04-12T15:31:02.121Z</time></trkpt><trkpt lat="45.5978772" lon="12.3288128"><ele>2.0</ele><time>2026-04-12T15:31:04.13Z</time></trkpt><trkpt lat="45.5978191" lon="12.3287454"><ele>2.1666666666666665</ele><time>2026-04-12T15:31:06.131Z</time></trkpt><trkpt lat="45.5977622" lon="12.3286851"><ele>2.333333333333333</ele><time>2026-04-12T15:31:08.123Z</time></trkpt><trkpt lat="45.5976977" lon="12.328621"><ele>2.5</ele><time>2026-04-12T15:31:10.109Z</time></trkpt><trkpt lat="45.5976281" lon="12.3285549"><ele>2.6666666666666665</ele><time>2026-04-12T15:31:12.113Z</time></trkpt><trkpt lat="45.597566" lon="12.3284862"><ele>2.8333333333333335</ele><time>2026-04-12T15:31:14.114Z</time></trkpt><trkpt lat="45.5975066" lon="12.3284171"><ele>3.0</ele><time>2026-04-12T15:31:16.117Z</time></trkpt><trkpt lat="45.5974548" lon="12.3283543"><ele>3.0</ele><time>2026-04-12T15:31:18.121Z</time></trkpt><trkpt lat="45.5973832" lon="12.3282924"><ele>3.0</ele><time>2026-04-12T15:31:20.107Z</time></trkpt><trkpt lat="45.5973023" lon="12.3282443"><ele>3.0</ele><time>2026-04-12T15:31:22.112Z</time></trkpt><trkpt lat="45.59721" lon="12.3281792"><ele>3.0</ele><time>2026-04-12T15:31:24.124Z</time></trkpt><trkpt lat="45.5971028" lon="12.3281054"><ele>3.0</ele><time>2026-04-12T15:31:26.119Z</time></trkpt><trkpt lat="45.5970188" lon="12.3280697"><ele>2.8</ele><time>2026-04-12T15:31:28.118Z</time></trkpt><trkpt lat="45.5969548" lon="12.3280479"><ele>2.5999999999999996</ele><time>2026-04-12T15:31:30.125Z</time></trkpt><trkpt lat="45.5968479" lon="12.3280184"><ele>2.4000000000000004</ele><time>2026-04-12T15:31:32.14Z</time></trkpt><trkpt lat="45.5967527" lon="12.3280141"><ele>2.2</ele><time>2026-04-12T15:31:34.134Z</time></trkpt><trkpt lat="45.5966573" lon="12.3279998"><ele>2.0</ele><time>2026-04-12T15:31:36.108Z</time></trkpt><trkpt lat="45.5965722" lon="12.3280105"><ele>2.0</ele><time>2026-04-12T15:31:38.116Z</time></trkpt><trkpt lat="45.5964905" lon="12.3280278"><ele>2.0</ele><time>2026-04-12T15:31:40.119Z</time></trkpt><trkpt lat="45.5964154" lon="12.3280368"><ele>2.0</ele><time>2026-04-12T15:31:42.125Z</time></trkpt><trkpt lat="45.596308" lon="12.3280741"><ele>2.0</ele><time>2026-04-12T15:31:45.115Z</time></trkpt><trkpt lat="45.5962263" lon="12.3281208"><ele>2.0</ele><time>2026-04-12T15:31:47.115Z</time></trkpt><trkpt lat="45.5961271" lon="12.3281739"><ele>1.9999999999999998</ele><time>2026-04-12T15:31:49.118Z</time></trkpt><trkpt lat="45.5960534" lon="12.3282426"><ele>2.0</ele><time>2026-04-12T15:31:51.121Z</time></trkpt><trkpt lat="45.5959858" lon="12.3283194"><ele>2.0</ele><time>2026-04-12T15:31:53.115Z</time></trkpt><trkpt lat="45.5959292" lon="12.3284026"><ele>2.0</ele><time>2026-04-12T15:31:55.115Z</time></trkpt><trkpt lat="45.595887" lon="12.3284918"><ele>1.9999999999999998</ele><time>2026-04-12T15:31:57.117Z</time></trkpt><trkpt lat="45.5958354" lon="12.3285641"><ele>2.0</ele><time>2026-04-12T15:31:58.114Z</time></trkpt><trkpt lat="45.5957838" lon="12.3286935"><ele>2.0</ele><time>2026-04-12T15:32:00.107Z</time></trkpt><trkpt lat="45.5957532" lon="12.32884"><ele>2.0</ele><time>2026-04-12T15:32:02.117Z</time></trkpt><trkpt lat="45.595736" lon="12.3289627"><ele>2.0</ele><time>2026-04-12T15:32:04.137Z</time></trkpt><trkpt lat="45.5957141" lon="12.3290998"><ele>2.0</ele><time>2026-04-12T15:32:06.117Z</time></trkpt><trkpt lat="45.5956929" lon="12.3292213"><ele>2.0</ele><time>2026-04-12T15:32:08.121Z</time></trkpt><trkpt lat="45.5956707" lon="12.3293435"><ele>2.0</ele><time>2026-04-12T15:32:10.124Z</time></trkpt><trkpt lat="45.5956612" lon="12.3294556"><ele>2.0</ele><time>2026-04-12T15:32:12.123Z</time></trkpt><trkpt lat="45.5956398" lon="12.3296258"><ele>2.0</ele><time>2026-04-12T15:32:14.116Z</time></trkpt><trkpt lat="45.5956274" lon="12.3297507"><ele>2.0</ele><time>2026-04-12T15:32:16.122Z</time></trkpt><trkpt lat="45.5956159" lon="12.3298799"><ele>2.0</ele><time>2026-04-12T15:32:18.127Z</time></trkpt><trkpt lat="45.5956016" lon="12.3300317"><ele>2.0</ele><time>2026-04-12T15:32:20.12Z</time></trkpt><trkpt lat="45.5956126" lon="12.3301444"><ele>2.0</ele><time>2026-04-12T15:32:22.111Z</time></trkpt><trkpt lat="45.5956283" lon="12.3302922"><ele>2.0</ele><time>2026-04-12T15:32:24.112Z</time></trkpt><trkpt lat="45.5956365" lon="12.3303899"><ele>2.0</ele><time>2026-04-12T15:32:25.119Z</time></trkpt><trkpt lat="45.5956621" lon="12.3305484"><ele>2.0</ele><time>2026-04-12T15:32:27.118Z</time></trkpt><trkpt lat="45.5956927" lon="12.3306818"><ele>1.8</ele><time>2026-04-12T15:32:29.133Z</time></trkpt><trkpt lat="45.595729" lon="12.3308084"><ele>1.6</ele><time>2026-04-12T15:32:31.146Z</time></trkpt><trkpt lat="45.5957673" lon="12.3309294"><ele>1.4000000000000001</ele><time>2026-04-12T15:32:33.122Z</time></trkpt><trkpt lat="45.5958196" lon="12.3310738"><ele>1.2000000000000002</ele><time>2026-04-12T15:32:35.115Z</time></trkpt><trkpt lat="45.5958684" lon="12.3312053"><ele>1.0</ele><time>2026-04-12T15:32:37.117Z</time></trkpt><trkpt lat="45.5959114" lon="12.33134"><ele>1.4</ele><time>2026-04-12T15:32:39.114Z</time></trkpt><trkpt lat="45.5959429" lon="12.3314646"><ele>1.8</ele><time>2026-04-12T15:32:41.129Z</time></trkpt><trkpt lat="45.5959792" lon="12.3315935"><ele>2.1999999999999997</ele><time>2026-04-12T15:32:43.113Z</time></trkpt><trkpt lat="45.5960081" lon="12.3317256"><ele>2.6</ele><time>2026-04-12T15:32:45.124Z</time></trkpt><trkpt lat="45.5960291" lon="12.3318557"><ele>3.0</ele><time>2026-04-12T15:32:47.128Z</time></trkpt><trkpt lat="45.5960509" lon="12.3319811"><ele>3.0</ele><time>2026-04-12T15:32:49.133Z</time></trkpt><trkpt lat="45.5960584" lon="12.3321189"><ele>3.0</ele><time>2026-04-12T15:32:51.114Z</time></trkpt><trkpt lat="45.5960704" lon="12.3322637"><ele>3.0</ele><time>2026-04-12T15:32:53.117Z</time></trkpt><trkpt lat="45.596087" lon="12.332426"><ele>3.0</ele><time>2026-04-12T15:32:55.122Z</time></trkpt><trkpt lat="45.596115" lon="12.3325562"><ele>3.0</ele><time>2026-04-12T15:32:57.14Z</time></trkpt><trkpt lat="45.5961497" lon="12.3327216"><ele>2.25</ele><time>2026-04-12T15:32:59.115Z</time></trkpt><trkpt lat="45.5961912" lon="12.3328858"><ele>1.5</ele><time>2026-04-12T15:33:01.114Z</time></trkpt><trkpt lat="45.5962428" lon="12.3330417"><ele>0.75</ele><time>2026-04-12T15:33:03.12Z</time></trkpt><trkpt lat="45.5962837" lon="12.3331807"><ele>0.0</ele><time>2026-04-12T15:33:05.136Z</time></trkpt><trkpt lat="45.5963364" lon="12.3333221"><ele>0.0</ele><time>2026-04-12T15:33:07.114Z</time></trkpt><trkpt lat="45.5963838" lon="12.3334487"><ele>0.0</ele><time>2026-04-12T15:33:09.129Z</time></trkpt><trkpt lat="45.5964493" lon="12.3335898"><ele>0.0</ele><time>2026-04-12T15:33:11.115Z</time></trkpt><trkpt lat="45.5964996" lon="12.3337041"><ele>0.0</ele><time>2026-04-12T15:33:13.132Z</time></trkpt><trkpt lat="45.5965497" lon="12.3338197"><ele>0.0</ele><time>2026-04-12T15:33:15.117Z</time></trkpt><trkpt lat="45.5966024" lon="12.3339498"><ele>0.2</ele><time>2026-04-12T15:33:17.113Z</time></trkpt><trkpt lat="45.5966574" lon="12.3340805"><ele>0.4</ele><time>2026-04-12T15:33:19.121Z</time></trkpt><trkpt lat="45.5967066" lon="12.3342033"><ele>0.6000000000000001</ele><time>2026-04-12T15:33:21.126Z</time></trkpt><trkpt lat="45.5967544" lon="12.3343199"><ele>0.8</ele><time>2026-04-12T15:33:23.131Z</time></trkpt><trkpt lat="45.5968026" lon="12.3344371"><ele>1.0</ele><time>2026-04-12T15:33:25.108Z</time></trkpt><trkpt lat="45.5968477" lon="12.3345565"><ele>1.0</ele><time>2026-04-12T15:33:27.113Z</time></trkpt><trkpt lat="45.5968964" lon="12.3346857"><ele>1.0</ele><time>2026-04-12T15:33:29.124Z</time></trkpt><trkpt lat="45.5969544" lon="12.3348316"><ele>1.0</ele><time>2026-04-12T15:33:31.114Z</time></trkpt><trkpt lat="45.5969898" lon="12.3349062"><ele>1.0</ele><time>2026-04-12T15:33:32.12Z</time></trkpt><trkpt lat="45.5970509" lon="12.3350368"><ele>1.0</ele><time>2026-04-12T15:33:34.12Z</time></trkpt><trkpt lat="45.5971037" lon="12.3351538"><ele>1.0</ele><time>2026-04-12T15:33:36.121Z</time></trkpt><trkpt lat="45.5971566" lon="12.3352802"><ele>1.0</ele><time>2026-04-12T15:33:38.125Z</time></trkpt><trkpt lat="45.5972111" lon="12.3354092"><ele>1.0</ele><time>2026-04-12T15:33:40.12Z</time></trkpt><trkpt lat="45.5972654" lon="12.3355358"><ele>1.0</ele><time>2026-04-12T15:33:42.124Z</time></trkpt><trkpt lat="45.5973189" lon="12.3356623"><ele>1.0</ele><time>2026-04-12T15:33:44.108Z</time></trkpt><trkpt lat="45.5973616" lon="12.3357819"><ele>1.0</ele><time>2026-04-12T15:33:46.119Z</time></trkpt><trkpt lat="45.5973995" lon="12.3358968"><ele>1.0</ele><time>2026-04-12T15:33:48.118Z</time></trkpt><trkpt lat="45.597441" lon="12.3360202"><ele>1.0</ele><time>2026-04-12T15:33:50.124Z</time></trkpt><trkpt lat="45.5974814" lon="12.3361478"><ele>1.0</ele><time>2026-04-12T15:33:52.114Z</time></trkpt><trkpt lat="45.5975253" lon="12.33628"><ele>1.0</ele><time>2026-04-12T15:33:54.129Z</time></trkpt><trkpt lat="45.5975699" lon="12.3364116"><ele>1.6</ele><time>2026-04-12T15:33:56.134Z</time></trkpt><trkpt lat="45.5976123" lon="12.3365348"><ele>2.2</ele><time>2026-04-12T15:33:58.135Z</time></trkpt><trkpt lat="45.597655" lon="12.336655"><ele>2.8000000000000003</ele><time>2026-04-12T15:34:00.135Z</time></trkpt><trkpt lat="45.5977016" lon="12.3367885"><ele>3.4000000000000004</ele><time>2026-04-12T15:34:02.12Z</time></trkpt><trkpt lat="45.5977445" lon="12.336914"><ele>4.0</ele><time>2026-04-12T15:34:04.116Z</time></trkpt><trkpt lat="45.5977891" lon="12.3370436"><ele>4.0</ele><time>2026-04-12T15:34:06.133Z</time></trkpt><trkpt lat="45.5978303" lon="12.337161"><ele>4.0</ele><time>2026-04-12T15:34:08.12Z</time></trkpt><trkpt lat="45.5978739" lon="12.3372898"><ele>4.0</ele><time>2026-04-12T15:34:10.131Z</time></trkpt><trkpt lat="45.5979192" lon="12.3374189"><ele>4.0</ele><time>2026-04-12T15:34:12.14Z</time></trkpt><trkpt lat="45.597965" lon="12.3375337"><ele>4.0</ele><time>2026-04-12T15:34:14.127Z</time></trkpt><trkpt lat="45.5980089" lon="12.3376489"><ele>3.8000000000000003</ele><time>2026-04-12T15:34:16.123Z</time></trkpt><trkpt lat="45.5980539" lon="12.3377723"><ele>3.6000000000000005</ele><time>2026-04-12T15:34:18.13Z</time></trkpt><trkpt lat="45.5980966" lon="12.3378961"><ele>3.4</ele><time>2026-04-12T15:34:20.115Z</time></trkpt><trkpt lat="45.5981411" lon="12.3380241"><ele>3.2</ele><time>2026-04-12T15:34:22.126Z</time></trkpt><trkpt lat="45.5981842" lon="12.3381577"><ele>3.0</ele><time>2026-04-12T15:34:24.12Z</time></trkpt><trkpt lat="45.5982269" lon="12.3382851"><ele>3.0</ele><time>2026-04-12T15:34:26.129Z</time></trkpt><trkpt lat="45.5982609" lon="12.3384124"><ele>3.0</ele><time>2026-04-12T15:34:28.129Z</time></trkpt><trkpt lat="45.5983005" lon="12.3385451"><ele>3.0</ele><time>2026-04-12T15:34:30.111Z</time></trkpt><trkpt lat="45.5983363" lon="12.3386629"><ele>3.0</ele><time>2026-04-12T15:34:32.13Z</time></trkpt><trkpt lat="45.5983774" lon="12.3387778"><ele>3.0</ele><time>2026-04-12T15:34:34.135Z</time></trkpt><trkpt lat="45.5984263" lon="12.3388981"><ele>2.6</ele><time>2026-04-12T15:34:36.128Z</time></trkpt><trkpt lat="45.5984667" lon="12.3390358"><ele>2.1999999999999997</ele><time>2026-04-12T15:34:38.122Z</time></trkpt><trkpt lat="45.5984997" lon="12.3391751"><ele>1.8</ele><time>2026-04-12T15:34:40.11Z</time></trkpt><trkpt lat="45.5985288" lon="12.3392934"><ele>1.4</ele><time>2026-04-12T15:34:42.108Z</time></trkpt><trkpt lat="45.5985622" lon="12.3394292"><ele>1.0</ele><time>2026-04-12T15:34:44.134Z</time></trkpt><trkpt lat="45.5986012" lon="12.33956"><ele>1.0</ele><time>2026-04-12T15:34:46.112Z</time></trkpt><trkpt lat="45.5986439" lon="12.3397027"><ele>1.0</ele><time>2026-04-12T15:34:48.124Z</time></trkpt><trkpt lat="45.5986903" lon="12.3398497"><ele>1.0</ele><time>2026-04-12T15:34:50.118Z</time></trkpt><trkpt lat="45.59874" lon="12.3399771"><ele>1.0</ele><time>2026-04-12T15:34:52.138Z</time></trkpt><trkpt lat="45.5987923" lon="12.3401046"><ele>1.0</ele><time>2026-04-12T15:34:54.138Z</time></trkpt><trkpt lat="45.5988466" lon="12.3402287"><ele>1.0</ele><time>2026-04-12T15:34:56.126Z</time></trkpt><trkpt lat="45.5989064" lon="12.3403776"><ele>1.0</ele><time>2026-04-12T15:34:58.117Z</time></trkpt><trkpt lat="45.5989572" lon="12.3405016"><ele>1.0</ele><time>2026-04-12T15:35:00.109Z</time></trkpt><trkpt lat="45.5990021" lon="12.3406094"><ele>1.0</ele><time>2026-04-12T15:35:02.117Z</time></trkpt><trkpt lat="45.5990574" lon="12.3406962"><ele>1.0</ele><time>2026-04-12T15:35:04.113Z</time></trkpt><trkpt lat="45.5991058" lon="12.3407974"><ele>1.0</ele><time>2026-04-12T15:35:06.134Z</time></trkpt><trkpt lat="45.5991448" lon="12.3409057"><ele>1.0</ele><time>2026-04-12T15:35:08.118Z</time></trkpt><trkpt lat="45.5991627" lon="12.3410332"><ele>1.0</ele><time>2026-04-12T15:35:10.115Z</time></trkpt><trkpt lat="45.5991752" lon="12.3411689"><ele>1.0</ele><time>2026-04-12T15:35:12.123Z</time></trkpt><trkpt lat="45.5991715" lon="12.3413056"><ele>1.0</ele><time>2026-04-12T15:35:14.114Z</time></trkpt><trkpt lat="45.5991434" lon="12.3414678"><ele>1.0</ele><time>2026-04-12T15:35:16.137Z</time></trkpt><trkpt lat="45.5991108" lon="12.3416066"><ele>1.0</ele><time>2026-04-12T15:35:18.115Z</time></trkpt><trkpt lat="45.5990712" lon="12.3417225"><ele>1.0</ele><time>2026-04-12T15:35:20.131Z</time></trkpt><trkpt lat="45.5989871" lon="12.341817"><ele>1.0</ele><time>2026-04-12T15:35:22.111Z</time></trkpt><trkpt lat="45.5989135" lon="12.3419013"><ele>1.0</ele><time>2026-04-12T15:35:24.13Z</time></trkpt><trkpt lat="45.5988401" lon="12.3419822"><ele>0.9999999999999999</ele><time>2026-04-12T15:35:26.134Z</time></trkpt><trkpt lat="45.5987655" lon="12.3420474"><ele>1.0</ele><time>2026-04-12T15:35:28.112Z</time></trkpt><trkpt lat="45.5986838" lon="12.3421085"><ele>1.0</ele><time>2026-04-12T15:35:30.136Z</time></trkpt><trkpt lat="45.5986078" lon="12.3421353"><ele>1.0</ele><time>2026-04-12T15:35:32.116Z</time></trkpt><trkpt lat="45.5985121" lon="12.3421672"><ele>0.9999999999999999</ele><time>2026-04-12T15:35:34.135Z</time></trkpt><trkpt lat="45.5984286" lon="12.3421787"><ele>1.0</ele><time>2026-04-12T15:35:36.132Z</time></trkpt><trkpt lat="45.5983392" lon="12.3421836"><ele>1.0</ele><time>2026-04-12T15:35:38.11Z</time></trkpt><trkpt lat="45.5982461" lon="12.3421873"><ele>1.0</ele><time>2026-04-12T15:35:40.132Z</time></trkpt><trkpt lat="45.5981451" lon="12.3421912"><ele>1.0</ele><time>2026-04-12T15:35:42.119Z</time></trkpt><trkpt lat="45.5980473" lon="12.3421902"><ele>1.0</ele><time>2026-04-12T15:35:44.12Z</time></trkpt><trkpt lat="45.5979416" lon="12.3421909"><ele>1.0</ele><time>2026-04-12T15:35:46.107Z</time></trkpt><trkpt lat="45.5978362" lon="12.3421946"><ele>1.0</ele><time>2026-04-12T15:35:48.136Z</time></trkpt><trkpt lat="45.597731" lon="12.3421937"><ele>1.0</ele><time>2026-04-12T15:35:50.117Z</time></trkpt><trkpt lat="45.5976314" lon="12.3421829"><ele>1.0</ele><time>2026-04-12T15:35:52.12Z</time></trkpt><trkpt lat="45.5974727" lon="12.3421638"><ele>1.0</ele><time>2026-04-12T15:35:55.137Z</time></trkpt><trkpt lat="45.5973977" lon="12.3421814"><ele>1.0</ele><time>2026-04-12T15:35:57.12Z</time></trkpt><trkpt lat="45.5973234" lon="12.3421957"><ele>1.2000000000000002</ele><time>2026-04-12T15:35:59.134Z</time></trkpt><trkpt lat="45.5972348" lon="12.3422193"><ele>1.4000000000000001</ele><time>2026-04-12T15:36:01.133Z</time></trkpt><trkpt lat="45.5971472" lon="12.3422531"><ele>1.6</ele><time>2026-04-12T15:36:04.147Z</time></trkpt><trkpt lat="45.5970684" lon="12.3422748"><ele>1.8</ele><time>2026-04-12T15:36:06.136Z</time></trkpt><trkpt lat="45.5969792" lon="12.3423281"><ele>2.0</ele><time>2026-04-12T15:36:08.111Z</time></trkpt><trkpt lat="45.5968743" lon="12.3424042"><ele>1.6</ele><time>2026-04-12T15:36:10.115Z</time></trkpt><trkpt lat="45.5968162" lon="12.3424507"><ele>1.2000000000000002</ele><time>2026-04-12T15:36:11.124Z</time></trkpt><trkpt lat="45.5967179" lon="12.3425362"><ele>0.8</ele><time>2026-04-12T15:36:13.122Z</time></trkpt><trkpt lat="45.5966435" lon="12.342612"><ele>0.4</ele><time>2026-04-12T15:36:15.114Z</time></trkpt><trkpt lat="45.5965573" lon="12.3426924"><ele>0.0</ele><time>2026-04-12T15:36:17.113Z</time></trkpt><trkpt lat="45.5964655" lon="12.3427819"><ele>0.0</ele><time>2026-04-12T15:36:19.113Z</time></trkpt><trkpt lat="45.5963887" lon="12.3428577"><ele>0.0</ele><time>2026-04-12T15:36:21.114Z</time></trkpt><trkpt lat="45.596293" lon="12.3429537"><ele>0.0</ele><time>2026-04-12T15:36:23.135Z</time></trkpt><trkpt lat="45.5961979" lon="12.3430516"><ele>0.0</ele><time>2026-04-12T15:36:25.148Z</time></trkpt><trkpt lat="45.5961311" lon="12.3431119"><ele>0.0</ele><time>2026-04-12T15:36:27.117Z</time></trkpt><trkpt lat="45.5960498" lon="12.3431905"><ele>0.4</ele><time>2026-04-12T15:36:29.13Z</time></trkpt><trkpt lat="45.5959766" lon="12.3432597"><ele>0.8</ele><time>2026-04-12T15:36:31.125Z</time></trkpt><trkpt lat="45.5958791" lon="12.3433392"><ele>1.2000000000000002</ele><time>2026-04-12T15:36:33.131Z</time></trkpt><trkpt lat="45.5957998" lon="12.3434117"><ele>1.6</ele><time>2026-04-12T15:36:35.122Z</time></trkpt><trkpt lat="45.5957202" lon="12.3434751"><ele>2.0</ele><time>2026-04-12T15:36:37.124Z</time></trkpt><trkpt lat="45.5956378" lon="12.3435296"><ele>2.0</ele><time>2026-04-12T15:36:39.118Z</time></trkpt><trkpt lat="45.5955419" lon="12.3435714"><ele>2.0</ele><time>2026-04-12T15:36:41.131Z</time></trkpt><trkpt lat="45.5953975" lon="12.3436133"><ele>2.0</ele><time>2026-04-12T15:36:44.126Z</time></trkpt><trkpt lat="45.5952952" lon="12.3436389"><ele>2.0</ele><time>2026-04-12T15:36:46.115Z</time></trkpt><trkpt lat="45.5951842" lon="12.3436609"><ele>2.2</ele><time>2026-04-12T15:36:48.114Z</time></trkpt><trkpt lat="45.5950777" lon="12.343664"><ele>2.4000000000000004</ele><time>2026-04-12T15:36:50.116Z</time></trkpt><trkpt lat="45.5949611" lon="12.3436509"><ele>2.5999999999999996</ele><time>2026-04-12T15:36:52.139Z</time></trkpt><trkpt lat="45.594867" lon="12.3436133"><ele>2.8</ele><time>2026-04-12T15:36:54.137Z</time></trkpt><trkpt lat="45.5947616" lon="12.3435552"><ele>3.0</ele><time>2026-04-12T15:36:56.13Z</time></trkpt><trkpt lat="45.5946666" lon="12.3434902"><ele>3.0</ele><time>2026-04-12T15:36:58.118Z</time></trkpt><trkpt lat="45.5945807" lon="12.3434113"><ele>3.0</ele><time>2026-04-12T15:37:00.13Z</time></trkpt><trkpt lat="45.5945013" lon="12.3433113"><ele>3.0</ele><time>2026-04-12T15:37:02.121Z</time></trkpt><trkpt lat="45.5944315" lon="12.3432176"><ele>3.0</ele><time>2026-04-12T15:37:04.135Z</time></trkpt><trkpt lat="45.5943676" lon="12.3431082"><ele>3.0</ele><time>2026-04-12T15:37:06.133Z</time></trkpt><trkpt lat="45.5943053" lon="12.3429991"><ele>3.2</ele><time>2026-04-12T15:37:08.118Z</time></trkpt><trkpt lat="45.5942428" lon="12.3428888"><ele>3.4</ele><time>2026-04-12T15:37:10.123Z</time></trkpt><trkpt lat="45.5941758" lon="12.3427726"><ele>3.6000000000000005</ele><time>2026-04-12T15:37:12.128Z</time></trkpt><trkpt lat="45.5941124" lon="12.3426578"><ele>3.8000000000000003</ele><time>2026-04-12T15:37:14.12Z</time></trkpt><trkpt lat="45.5940412" lon="12.342549"><ele>4.0</ele><time>2026-04-12T15:37:16.114Z</time></trkpt><trkpt lat="45.593968" lon="12.342431"><ele>4.0</ele><time>2026-04-12T15:37:18.124Z</time></trkpt><trkpt lat="45.5938942" lon="12.342325"><ele>4.0</ele><time>2026-04-12T15:37:20.136Z</time></trkpt><trkpt lat="45.5938206" lon="12.3422207"><ele>4.0</ele><time>2026-04-12T15:37:22.127Z</time></trkpt><trkpt lat="45.5937447" lon="12.342128"><ele>4.0</ele><time>2026-04-12T15:37:24.115Z</time></trkpt><trkpt lat="45.5936652" lon="12.3420353"><ele>4.0</ele><time>2026-04-12T15:37:26.115Z</time></trkpt><trkpt lat="45.5935818" lon="12.3419336"><ele>3.4000000000000004</ele><time>2026-04-12T15:37:28.113Z</time></trkpt><trkpt lat="45.5934931" lon="12.341826"><ele>2.8000000000000003</ele><time>2026-04-12T15:37:30.128Z</time></trkpt><trkpt lat="45.5934035" lon="12.3417317"><ele>2.2</ele><time>2026-04-12T15:37:32.11Z</time></trkpt><trkpt lat="45.5933251" lon="12.3416529"><ele>1.6</ele><time>2026-04-12T15:37:34.122Z</time></trkpt><trkpt lat="45.5932471" lon="12.341585"><ele>1.0</ele><time>2026-04-12T15:37:36.13Z</time></trkpt><trkpt lat="45.5931895" lon="12.3415374"><ele>0.9999999999999999</ele><time>2026-04-12T15:37:38.118Z</time></trkpt><trkpt lat="45.5931212" lon="12.3415058"><ele>1.0</ele><time>2026-04-12T15:37:40.116Z</time></trkpt><trkpt lat="45.5930346" lon="12.3415108"><ele>1.0</ele><time>2026-04-12T15:37:42.131Z</time></trkpt><trkpt lat="45.5929492" lon="12.341575"><ele>1.0</ele><time>2026-04-12T15:37:44.116Z</time></trkpt><trkpt lat="45.5928618" lon="12.3416322"><ele>0.9999999999999999</ele><time>2026-04-12T15:37:46.121Z</time></trkpt><trkpt lat="45.5927763" lon="12.3416962"><ele>1.0</ele><time>2026-04-12T15:37:48.126Z</time></trkpt><trkpt lat="45.5926904" lon="12.3417672"><ele>1.0</ele><time>2026-04-12T15:37:50.129Z</time></trkpt><trkpt lat="45.5926003" lon="12.341864"><ele>1.0</ele><time>2026-04-12T15:37:52.115Z</time></trkpt><trkpt lat="45.5925509" lon="12.3419307"><ele>1.0</ele><time>2026-04-12T15:37:53.129Z</time></trkpt><trkpt lat="45.5924699" lon="12.3420376"><ele>1.0</ele><time>2026-04-12T15:37:55.128Z</time></trkpt><trkpt lat="45.592376" lon="12.3421579"><ele>1.0</ele><time>2026-04-12T15:37:57.112Z</time></trkpt><trkpt lat="45.5923276" lon="12.342216"><ele>1.0</ele><time>2026-04-12T15:37:58.128Z</time></trkpt><trkpt lat="45.5922607" lon="12.3423007"><ele>1.0</ele><time>2026-04-12T15:38:00.117Z</time></trkpt><trkpt lat="45.5921753" lon="12.342417"><ele>1.0</ele><time>2026-04-12T15:38:02.125Z</time></trkpt><trkpt lat="45.592127" lon="12.3424819"><ele>1.0</ele><time>2026-04-12T15:38:03.115Z</time></trkpt><trkpt lat="45.5920575" lon="12.3425749"><ele>1.0</ele><time>2026-04-12T15:38:05.123Z</time></trkpt><trkpt lat="45.5919987" lon="12.342673"><ele>1.2000000000000002</ele><time>2026-04-12T15:38:07.129Z</time></trkpt><trkpt lat="45.5919487" lon="12.3427858"><ele>1.4000000000000001</ele><time>2026-04-12T15:38:09.109Z</time></trkpt><trkpt lat="45.5919113" lon="12.3429236"><ele>1.6</ele><time>2026-04-12T15:38:11.13Z</time></trkpt><trkpt lat="45.5918824" lon="12.3430764"><ele>1.8</ele><time>2026-04-12T15:38:13.128Z</time></trkpt><trkpt lat="45.5918778" lon="12.3432204"><ele>2.0</ele><time>2026-04-12T15:38:15.128Z</time></trkpt><trkpt lat="45.5918778" lon="12.3433304"><ele>2.0</ele><time>2026-04-12T15:38:17.124Z</time></trkpt><trkpt lat="45.5918952" lon="12.3434576"><ele>2.0</ele><time>2026-04-12T15:38:19.159Z</time></trkpt><trkpt lat="45.591911" lon="12.343577"><ele>2.0</ele><time>2026-04-12T15:38:21.124Z</time></trkpt><trkpt lat="45.5919439" lon="12.3437181"><ele>2.0</ele><time>2026-04-12T15:38:23.144Z</time></trkpt><trkpt lat="45.5919871" lon="12.3438215"><ele>2.0</ele><time>2026-04-12T15:38:25.129Z</time></trkpt><trkpt lat="45.5920463" lon="12.3439374"><ele>2.0</ele><time>2026-04-12T15:38:27.124Z</time></trkpt><trkpt lat="45.5921076" lon="12.3440509"><ele>2.0</ele><time>2026-04-12T15:38:29.12Z</time></trkpt><trkpt lat="45.5921708" lon="12.3441661"><ele>2.0</ele><time>2026-04-12T15:38:31.132Z</time></trkpt><trkpt lat="45.5922341" lon="12.3442874"><ele>2.0</ele><time>2026-04-12T15:38:33.117Z</time></trkpt><trkpt lat="45.5922975" lon="12.3444091"><ele>2.0</ele><time>2026-04-12T15:38:35.146Z</time></trkpt><trkpt lat="45.5923634" lon="12.3445231"><ele>2.0</ele><time>2026-04-12T15:38:37.117Z</time></trkpt><trkpt lat="45.5924234" lon="12.3446371"><ele>2.0</ele><time>2026-04-12T15:38:39.143Z</time></trkpt><trkpt lat="45.5924878" lon="12.3447643"><ele>2.0</ele><time>2026-04-12T15:38:41.115Z</time></trkpt><trkpt lat="45.5925499" lon="12.3448886"><ele>2.0</ele><time>2026-04-12T15:38:43.144Z</time></trkpt><trkpt lat="45.5926179" lon="12.3450112"><ele>2.0</ele><time>2026-04-12T15:38:45.138Z</time></trkpt><trkpt lat="45.5926951" lon="12.3451366"><ele>2.2</ele><time>2026-04-12T15:38:47.15Z</time></trkpt><trkpt lat="45.5927768" lon="12.345256"><ele>2.4000000000000004</ele><time>2026-04-12T15:38:49.115Z</time></trkpt><trkpt lat="45.592842" lon="12.3453759"><ele>2.5999999999999996</ele><time>2026-04-12T15:38:51.125Z</time></trkpt><trkpt lat="45.5929071" lon="12.3454959"><ele>2.8</ele><time>2026-04-12T15:38:53.127Z</time></trkpt><trkpt lat="45.5929733" lon="12.345604"><ele>3.0</ele><time>2026-04-12T15:38:55.13Z</time></trkpt><trkpt lat="45.5930362" lon="12.3457291"><ele>3.0</ele><time>2026-04-12T15:38:57.11Z</time></trkpt><trkpt lat="45.5930757" lon="12.3458732"><ele>3.0</ele><time>2026-04-12T15:38:59.129Z</time></trkpt><trkpt lat="45.5930731" lon="12.3459822"><ele>3.0</ele><time>2026-04-12T15:39:01.119Z</time></trkpt><trkpt lat="45.5930859" lon="12.3461306"><ele>3.0</ele><time>2026-04-12T15:39:03.128Z</time></trkpt><trkpt lat="45.5930922" lon="12.3462633"><ele>3.0</ele><time>2026-04-12T15:39:05.133Z</time></trkpt><trkpt lat="45.5930997" lon="12.3463789"><ele>2.8</ele><time>2026-04-12T15:39:07.139Z</time></trkpt><trkpt lat="45.5930987" lon="12.346469"><ele>2.5999999999999996</ele><time>2026-04-12T15:39:09.133Z</time></trkpt><trkpt lat="45.5931153" lon="12.3466158"><ele>2.4000000000000004</ele><time>2026-04-12T15:39:11.121Z</time></trkpt><trkpt lat="45.5931263" lon="12.3467694"><ele>2.2</ele><time>2026-04-12T15:39:13.14Z</time></trkpt><trkpt lat="45.5931373" lon="12.3469215"><ele>2.0</ele><time>2026-04-12T15:39:15.132Z</time></trkpt><trkpt lat="45.5931375" lon="12.3470873"><ele>1.8</ele><time>2026-04-12T15:39:17.131Z</time></trkpt><trkpt lat="45.5931217" lon="12.3472407"><ele>1.6</ele><time>2026-04-12T15:39:19.115Z</time></trkpt><trkpt lat="45.5931069" lon="12.3474006"><ele>1.4000000000000001</ele><time>2026-04-12T15:39:21.118Z</time></trkpt><trkpt lat="45.5931158" lon="12.3475585"><ele>1.2000000000000002</ele><time>2026-04-12T15:39:23.118Z</time></trkpt><trkpt lat="45.5931308" lon="12.3477112"><ele>1.0</ele><time>2026-04-12T15:39:25.123Z</time></trkpt><trkpt lat="45.5931342" lon="12.3478738"><ele>1.0</ele><time>2026-04-12T15:39:27.132Z</time></trkpt><trkpt lat="45.5931392" lon="12.3480391"><ele>1.0</ele><time>2026-04-12T15:39:29.138Z</time></trkpt><trkpt lat="45.593171" lon="12.3481958"><ele>1.0</ele><time>2026-04-12T15:39:31.127Z</time></trkpt><trkpt lat="45.5932121" lon="12.3483422"><ele>1.0</ele><time>2026-04-12T15:39:33.13Z</time></trkpt><trkpt lat="45.5932602" lon="12.3484797"><ele>1.0</ele><time>2026-04-12T15:39:35.147Z</time></trkpt><trkpt lat="45.5933095" lon="12.3486171"><ele>1.4</ele><time>2026-04-12T15:39:37.128Z</time></trkpt><trkpt lat="45.5933651" lon="12.3487572"><ele>1.8</ele><time>2026-04-12T15:39:39.12Z</time></trkpt><trkpt lat="45.5934152" lon="12.348896"><ele>2.1999999999999997</ele><time>2026-04-12T15:39:41.129Z</time></trkpt><trkpt lat="45.5934631" lon="12.349038"><ele>2.6</ele><time>2026-04-12T15:39:43.151Z</time></trkpt><trkpt lat="45.5934971" lon="12.3491775"><ele>3.0</ele><time>2026-04-12T15:39:45.115Z</time></trkpt><trkpt lat="45.5934828" lon="12.349297"><ele>3.1666666666666665</ele><time>2026-04-12T15:39:47.11Z</time></trkpt><trkpt lat="45.5934598" lon="12.3494207"><ele>3.333333333333333</ele><time>2026-04-12T15:39:49.122Z</time></trkpt><trkpt lat="45.5934377" lon="12.3495376"><ele>3.5</ele><time>2026-04-12T15:39:51.129Z</time></trkpt><trkpt lat="45.5933968" lon="12.3496632"><ele>3.6666666666666665</ele><time>2026-04-12T15:39:53.116Z</time></trkpt><trkpt lat="45.5933549" lon="12.3497732"><ele>3.833333333333333</ele><time>2026-04-12T15:39:55.134Z</time></trkpt><trkpt lat="45.593295" lon="12.3498628"><ele>4.0</ele><time>2026-04-12T15:39:57.125Z</time></trkpt><trkpt lat="45.5932296" lon="12.3499553"><ele>4.0</ele><time>2026-04-12T15:39:59.117Z</time></trkpt><trkpt lat="45.5931531" lon="12.3500259"><ele>4.0</ele><time>2026-04-12T15:40:01.122Z</time></trkpt><trkpt lat="45.5930717" lon="12.350094"><ele>4.0</ele><time>2026-04-12T15:40:03.131Z</time></trkpt><trkpt lat="45.5929977" lon="12.3501639"><ele>4.0</ele><time>2026-04-12T15:40:05.121Z</time></trkpt><trkpt lat="45.5929164" lon="12.3502257"><ele>4.0</ele><time>2026-04-12T15:40:07.114Z</time></trkpt><trkpt lat="45.5928361" lon="12.3502911"><ele>3.8000000000000003</ele><time>2026-04-12T15:40:09.122Z</time></trkpt><trkpt lat="45.5927679" lon="12.3503442"><ele>3.6000000000000005</ele><time>2026-04-12T15:40:11.115Z</time></trkpt><trkpt lat="45.5926924" lon="12.3504005"><ele>3.4</ele><time>2026-04-12T15:40:13.142Z</time></trkpt><trkpt lat="45.5926166" lon="12.3504682"><ele>3.2</ele><time>2026-04-12T15:40:15.132Z</time></trkpt><trkpt lat="45.5925282" lon="12.3505388"><ele>3.0</ele><time>2026-04-12T15:40:17.114Z</time></trkpt><trkpt lat="45.5924359" lon="12.3506073"><ele>2.8</ele><time>2026-04-12T15:40:19.113Z</time></trkpt><trkpt lat="45.592346" lon="12.3506783"><ele>2.5999999999999996</ele><time>2026-04-12T15:40:21.128Z</time></trkpt><trkpt lat="45.592275" lon="12.3507327"><ele>2.4000000000000004</ele><time>2026-04-12T15:40:23.114Z</time></trkpt><trkpt lat="45.5921861" lon="12.3507867"><ele>2.2</ele><time>2026-04-12T15:40:25.111Z</time></trkpt><trkpt lat="45.5920967" lon="12.3508392"><ele>2.0</ele><time>2026-04-12T15:40:27.114Z</time></trkpt><trkpt lat="45.592004" lon="12.3508978"><ele>2.0</ele><time>2026-04-12T15:40:29.122Z</time></trkpt><trkpt lat="45.5919148" lon="12.3509489"><ele>2.0</ele><time>2026-04-12T15:40:31.136Z</time></trkpt><trkpt lat="45.5918139" lon="12.3510015"><ele>2.0</ele><time>2026-04-12T15:40:33.115Z</time></trkpt><trkpt lat="45.5917223" lon="12.3510435"><ele>2.0</ele><time>2026-04-12T15:40:35.118Z</time></trkpt><trkpt lat="45.5916218" lon="12.3511029"><ele>2.0</ele><time>2026-04-12T15:40:37.127Z</time></trkpt><trkpt lat="45.5915354" lon="12.3511507"><ele>1.9999999999999998</ele><time>2026-04-12T15:40:39.114Z</time></trkpt><trkpt lat="45.5914671" lon="12.3511807"><ele>2.0</ele><time>2026-04-12T15:40:41.128Z</time></trkpt><trkpt lat="45.5913938" lon="12.3512092"><ele>2.0</ele><time>2026-04-12T15:40:43.119Z</time></trkpt><trkpt lat="45.5913096" lon="12.3512332"><ele>2.0</ele><time>2026-04-12T15:40:45.114Z</time></trkpt><trkpt lat="45.5912364" lon="12.3512678"><ele>1.9999999999999998</ele><time>2026-04-12T15:40:47.109Z</time></trkpt><trkpt lat="45.5911483" lon="12.3513104"><ele>2.0</ele><time>2026-04-12T15:40:49.118Z</time></trkpt><trkpt lat="45.5910793" lon="12.3513446"><ele>1.9999999999999998</ele><time>2026-04-12T15:40:51.117Z</time></trkpt><trkpt lat="45.5910028" lon="12.3513634"><ele>2.0</ele><time>2026-04-12T15:40:53.126Z</time></trkpt><trkpt lat="45.5909193" lon="12.3513922"><ele>2.0</ele><time>2026-04-12T15:40:55.117Z</time></trkpt><trkpt lat="45.5908475" lon="12.3514124"><ele>2.0</ele><time>2026-04-12T15:40:57.119Z</time></trkpt><trkpt lat="45.5907729" lon="12.3514141"><ele>1.9999999999999998</ele><time>2026-04-12T15:40:59.137Z</time></trkpt><trkpt lat="45.590699" lon="12.3513973"><ele>2.0</ele><time>2026-04-12T15:41:01.133Z</time></trkpt><trkpt lat="45.5906044" lon="12.35139"><ele>2.0</ele><time>2026-04-12T15:41:04.112Z</time></trkpt><trkpt lat="45.5904999" lon="12.3513686"><ele>2.0</ele><time>2026-04-12T15:41:06.131Z</time></trkpt><trkpt lat="45.5904157" lon="12.3513498"><ele>2.0</ele><time>2026-04-12T15:41:08.111Z</time></trkpt><trkpt lat="45.5903402" lon="12.3513151"><ele>2.0</ele><time>2026-04-12T15:41:10.124Z</time></trkpt><trkpt lat="45.5902592" lon="12.3512977"><ele>2.0</ele><time>2026-04-12T15:41:12.126Z</time></trkpt><trkpt lat="45.5901365" lon="12.3512652"><ele>1.9999999999999998</ele><time>2026-04-12T15:41:14.131Z</time></trkpt><trkpt lat="45.5900733" lon="12.3512522"><ele>2.0</ele><time>2026-04-12T15:41:15.111Z</time></trkpt><trkpt lat="45.5899799" lon="12.3512303"><ele>2.0</ele><time>2026-04-12T15:41:17.116Z</time></trkpt><trkpt lat="45.5898816" lon="12.3512203"><ele>2.0</ele><time>2026-04-12T15:41:19.134Z</time></trkpt><trkpt lat="45.5897789" lon="12.3512106"><ele>1.9999999999999998</ele><time>2026-04-12T15:41:21.118Z</time></trkpt><trkpt lat="45.589699" lon="12.3512161"><ele>2.0</ele><time>2026-04-12T15:41:23.127Z</time></trkpt><trkpt lat="45.5896168" lon="12.3512391"><ele>2.0</ele><time>2026-04-12T15:41:25.115Z</time></trkpt><trkpt lat="45.5895254" lon="12.3512774"><ele>2.0</ele><time>2026-04-12T15:41:28.122Z</time></trkpt><trkpt lat="45.5894288" lon="12.3513307"><ele>2.0</ele><time>2026-04-12T15:41:30.123Z</time></trkpt><trkpt lat="45.589337" lon="12.351381"><ele>2.0</ele><time>2026-04-12T15:41:32.129Z</time></trkpt><trkpt lat="45.5892418" lon="12.3514398"><ele>2.0</ele><time>2026-04-12T15:41:34.125Z</time></trkpt><trkpt lat="45.58916" lon="12.3514918"><ele>1.9999999999999998</ele><time>2026-04-12T15:41:36.108Z</time></trkpt><trkpt lat="45.5890721" lon="12.351539"><ele>2.0</ele><time>2026-04-12T15:41:38.113Z</time></trkpt><trkpt lat="45.5889889" lon="12.3515732"><ele>2.0</ele><time>2026-04-12T15:41:40.136Z</time></trkpt><trkpt lat="45.5889093" lon="12.351615"><ele>2.0</ele><time>2026-04-12T15:41:42.156Z</time></trkpt><trkpt lat="45.5888198" lon="12.3516719"><ele>1.9999999999999998</ele><time>2026-04-12T15:41:44.128Z</time></trkpt><trkpt lat="45.5887585" lon="12.3517013"><ele>2.0</ele><time>2026-04-12T15:41:45.122Z</time></trkpt><trkpt lat="45.5886556" lon="12.3517585"><ele>2.0</ele><time>2026-04-12T15:41:47.14Z</time></trkpt><trkpt lat="45.5885686" lon="12.3518126"><ele>2.0</ele><time>2026-04-12T15:41:49.13Z</time></trkpt><trkpt lat="45.5884862" lon="12.3518748"><ele>2.0</ele><time>2026-04-12T15:41:51.14Z</time></trkpt><trkpt lat="45.5884182" lon="12.3519455"><ele>2.0</ele><time>2026-04-12T15:41:53.114Z</time></trkpt><trkpt lat="45.5883704" lon="12.3520305"><ele>2.0</ele><time>2026-04-12T15:41:55.132Z</time></trkpt><trkpt lat="45.5883196" lon="12.3521599"><ele>1.6</ele><time>2026-04-12T15:41:57.125Z</time></trkpt><trkpt lat="45.5882771" lon="12.3523181"><ele>1.2000000000000002</ele><time>2026-04-12T15:41:59.129Z</time></trkpt><trkpt lat="45.5882625" lon="12.3524503"><ele>0.8</ele><time>2026-04-12T15:42:01.122Z</time></trkpt><trkpt lat="45.5883029" lon="12.3525925"><ele>0.4</ele><time>2026-04-12T15:42:03.113Z</time></trkpt><trkpt lat="45.5883636" lon="12.3527411"><ele>0.0</ele><time>2026-04-12T15:42:05.122Z</time></trkpt><trkpt lat="45.5884141" lon="12.3528812"><ele>0.0</ele><time>2026-04-12T15:42:07.136Z</time></trkpt><trkpt lat="45.5884573" lon="12.3530092"><ele>0.0</ele><time>2026-04-12T15:42:09.127Z</time></trkpt><trkpt lat="45.5884906" lon="12.3531421"><ele>0.0</ele><time>2026-04-12T15:42:11.123Z</time></trkpt><trkpt lat="45.588531" lon="12.353283"><ele>0.0</ele><time>2026-04-12T15:42:13.111Z</time></trkpt><trkpt lat="45.5885663" lon="12.3534178"><ele>0.0</ele><time>2026-04-12T15:42:15.112Z</time></trkpt><trkpt lat="45.5886033" lon="12.353543"><ele>-0.2</ele><time>2026-04-12T15:42:17.111Z</time></trkpt><trkpt lat="45.5886456" lon="12.3536822"><ele>-0.4</ele><time>2026-04-12T15:42:19.116Z</time></trkpt><trkpt lat="45.5886939" lon="12.3537945"><ele>-0.6000000000000001</ele><time>2026-04-12T15:42:21.142Z</time></trkpt><trkpt lat="45.5887294" lon="12.3539103"><ele>-0.8</ele><time>2026-04-12T15:42:23.125Z</time></trkpt><trkpt lat="45.5887782" lon="12.3540103"><ele>-1.0</ele><time>2026-04-12T15:42:25.128Z</time></trkpt><trkpt lat="45.5888293" lon="12.3541128"><ele>-0.4</ele><time>2026-04-12T15:42:27.125Z</time></trkpt><trkpt lat="45.5888891" lon="12.3542201"><ele>0.19999999999999996</ele><time>2026-04-12T15:42:29.115Z</time></trkpt><trkpt lat="45.5889532" lon="12.3543419"><ele>0.8000000000000002</ele><time>2026-04-12T15:42:31.115Z</time></trkpt><trkpt lat="45.58901" lon="12.3544504"><ele>1.4000000000000001</ele><time>2026-04-12T15:42:33.118Z</time></trkpt><trkpt lat="45.589083" lon="12.3545258"><ele>2.0</ele><time>2026-04-12T15:42:35.118Z</time></trkpt><trkpt lat="45.5891504" lon="12.3546193"><ele>2.0</ele><time>2026-04-12T15:42:37.132Z</time></trkpt><trkpt lat="45.5892196" lon="12.3546938"><ele>2.0</ele><time>2026-04-12T15:42:39.116Z</time></trkpt><trkpt lat="45.5893076" lon="12.3547846"><ele>2.0</ele><time>2026-04-12T15:42:41.133Z</time></trkpt><trkpt lat="45.5893801" lon="12.354843"><ele>2.0</ele><time>2026-04-12T15:42:43.115Z</time></trkpt><trkpt lat="45.5894563" lon="12.354887"><ele>2.0</ele><time>2026-04-12T15:42:45.109Z</time></trkpt><trkpt lat="45.5895473" lon="12.35495"><ele>2.0</ele><time>2026-04-12T15:42:47.118Z</time></trkpt><trkpt lat="45.5896308" lon="12.355011"><ele>2.0</ele><time>2026-04-12T15:42:49.124Z</time></trkpt><trkpt lat="45.5897169" lon="12.3550719"><ele>2.0</ele><time>2026-04-12T15:42:51.115Z</time></trkpt><trkpt lat="45.5897826" lon="12.3551128"><ele>2.0</ele><time>2026-04-12T15:42:52.128Z</time></trkpt><trkpt lat="45.5898797" lon="12.3551707"><ele>2.0</ele><time>2026-04-12T15:42:54.123Z</time></trkpt><trkpt lat="45.5899812" lon="12.3552264"><ele>1.9999999999999998</ele><time>2026-04-12T15:42:56.118Z</time></trkpt><trkpt lat="45.5900419" lon="12.355259"><ele>2.0</ele><time>2026-04-12T15:42:57.114Z</time></trkpt><trkpt lat="45.5901306" lon="12.355312"><ele>2.0</ele><time>2026-04-12T15:42:59.116Z</time></trkpt><trkpt lat="45.5902263" lon="12.355385"><ele>2.0</ele><time>2026-04-12T15:43:01.124Z</time></trkpt><trkpt lat="45.5902922" lon="12.3554335"><ele>1.9999999999999998</ele><time>2026-04-12T15:43:03.115Z</time></trkpt><trkpt lat="45.5903546" lon="12.3554811"><ele>2.0</ele><time>2026-04-12T15:43:05.117Z</time></trkpt><trkpt lat="45.59043" lon="12.3555295"><ele>1.8333333333333333</ele><time>2026-04-12T15:43:08.139Z</time></trkpt><trkpt lat="45.590507" lon="12.3555741"><ele>1.6666666666666665</ele><time>2026-04-12T15:43:11.12Z</time></trkpt><trkpt lat="45.5905692" lon="12.3556056"><ele>1.5</ele><time>2026-04-12T15:43:13.137Z</time></trkpt><trkpt lat="45.5906441" lon="12.3556515"><ele>1.3333333333333333</ele><time>2026-04-12T15:43:15.131Z</time></trkpt><trkpt lat="45.5907128" lon="12.3557071"><ele>1.1666666666666665</ele><time>2026-04-12T15:43:17.13Z</time></trkpt><trkpt lat="45.5907888" lon="12.3557775"><ele>1.0</ele><time>2026-04-12T15:43:19.135Z</time></trkpt><trkpt lat="45.5908561" lon="12.3558445"><ele>0.9999999999999999</ele><time>2026-04-12T15:43:21.119Z</time></trkpt><trkpt lat="45.59091" lon="12.3559032"><ele>1.0</ele><time>2026-04-12T15:43:23.125Z</time></trkpt><trkpt lat="45.5909576" lon="12.3559685"><ele>1.0</ele><time>2026-04-12T15:43:25.112Z</time></trkpt><trkpt lat="45.5910118" lon="12.3560403"><ele>1.0</ele><time>2026-04-12T15:43:27.121Z</time></trkpt><trkpt lat="45.5910616" lon="12.3561173"><ele>0.9999999999999999</ele><time>2026-04-12T15:43:29.14Z</time></trkpt><trkpt lat="45.5910973" lon="12.3562496"><ele>1.0</ele><time>2026-04-12T15:43:31.119Z</time></trkpt><trkpt lat="45.5911121" lon="12.3563635"><ele>1.4</ele><time>2026-04-12T15:43:33.121Z</time></trkpt><trkpt lat="45.5911091" lon="12.3565082"><ele>1.8</ele><time>2026-04-12T15:43:35.121Z</time></trkpt><trkpt lat="45.5911006" lon="12.3566573"><ele>2.1999999999999997</ele><time>2026-04-12T15:43:37.135Z</time></trkpt><trkpt lat="45.5910944" lon="12.356813"><ele>2.6</ele><time>2026-04-12T15:43:39.133Z</time></trkpt><trkpt lat="45.5910901" lon="12.3569528"><ele>3.0</ele><time>2026-04-12T15:43:41.137Z</time></trkpt><trkpt lat="45.5910863" lon="12.3570727"><ele>3.0</ele><time>2026-04-12T15:43:43.122Z</time></trkpt><trkpt lat="45.5910771" lon="12.3571743"><ele>3.0</ele><time>2026-04-12T15:43:45.129Z</time></trkpt><trkpt lat="45.5910437" lon="12.3572745"><ele>3.0</ele><time>2026-04-12T15:43:47.125Z</time></trkpt><trkpt lat="45.5910119" lon="12.357386"><ele>3.0</ele><time>2026-04-12T15:43:49.12Z</time></trkpt><trkpt lat="45.590985" lon="12.3574824"><ele>3.0</ele><time>2026-04-12T15:43:51.114Z</time></trkpt><trkpt lat="45.5909378" lon="12.3575781"><ele>3.0</ele><time>2026-04-12T15:43:53.122Z</time></trkpt><trkpt lat="45.5908872" lon="12.3576607"><ele>2.8333333333333335</ele><time>2026-04-12T15:43:55.12Z</time></trkpt><trkpt lat="45.5908199" lon="12.3577558"><ele>2.6666666666666665</ele><time>2026-04-12T15:43:57.118Z</time></trkpt><trkpt lat="45.5907484" lon="12.3578588"><ele>2.5</ele><time>2026-04-12T15:43:59.119Z</time></trkpt><trkpt lat="45.5906877" lon="12.3579412"><ele>2.333333333333333</ele><time>2026-04-12T15:44:01.112Z</time></trkpt><trkpt lat="45.5906382" lon="12.3580051"><ele>2.1666666666666665</ele><time>2026-04-12T15:44:03.122Z</time></trkpt><trkpt lat="45.5905825" lon="12.3580758"><ele>2.0</ele><time>2026-04-12T15:44:05.143Z</time></trkpt><trkpt lat="45.5905378" lon="12.3581488"><ele>1.8333333333333333</ele><time>2026-04-12T15:44:07.116Z</time></trkpt><trkpt lat="45.590472" lon="12.3582428"><ele>1.6666666666666665</ele><time>2026-04-12T15:44:10.111Z</time></trkpt><trkpt lat="45.5904126" lon="12.3583155"><ele>1.5</ele><time>2026-04-12T15:44:12.121Z</time></trkpt><trkpt lat="45.5903387" lon="12.3583931"><ele>1.3333333333333333</ele><time>2026-04-12T15:44:14.12Z</time></trkpt><trkpt lat="45.5902763" lon="12.3584599"><ele>1.1666666666666665</ele><time>2026-04-12T15:44:16.118Z</time></trkpt><trkpt lat="45.5902197" lon="12.3585131"><ele>1.0</ele><time>2026-04-12T15:44:18.115Z</time></trkpt><trkpt lat="45.5901605" lon="12.3585644"><ele>1.5714285714285714</ele><time>2026-04-12T15:44:20.122Z</time></trkpt><trkpt lat="45.5900886" lon="12.3586104"><ele>2.142857142857143</ele><time>2026-04-12T15:44:23.114Z</time></trkpt><trkpt lat="45.5900288" lon="12.358645"><ele>2.7142857142857144</ele><time>2026-04-12T15:44:25.111Z</time></trkpt><trkpt lat="45.5899711" lon="12.3586835"><ele>3.2857142857142856</ele><time>2026-04-12T15:44:27.113Z</time></trkpt><trkpt lat="45.5898984" lon="12.3587191"><ele>3.857142857142857</ele><time>2026-04-12T15:44:29.118Z</time></trkpt><trkpt lat="45.5898264" lon="12.3587742"><ele>4.428571428571429</ele><time>2026-04-12T15:44:31.121Z</time></trkpt><trkpt lat="45.5897631" lon="12.3588096"><ele>5.0</ele><time>2026-04-12T15:44:33.139Z</time></trkpt><trkpt lat="45.589697" lon="12.3588057"><ele>5.0</ele><time>2026-04-12T15:44:35.122Z</time></trkpt><trkpt lat="45.5896044" lon="12.3588237"><ele>5.0</ele><time>2026-04-12T15:44:37.13Z</time></trkpt><trkpt lat="45.5895174" lon="12.3588358"><ele>5.0</ele><time>2026-04-12T15:44:39.123Z</time></trkpt><trkpt lat="45.5894203" lon="12.3588503"><ele>5.0</ele><time>2026-04-12T15:44:41.145Z</time></trkpt><trkpt lat="45.5893139" lon="12.3588636"><ele>5.0</ele><time>2026-04-12T15:44:43.128Z</time></trkpt><trkpt lat="45.5892163" lon="12.3588557"><ele>5.2</ele><time>2026-04-12T15:44:45.14Z</time></trkpt><trkpt lat="45.5891134" lon="12.3588527"><ele>5.4</ele><time>2026-04-12T15:44:47.14Z</time></trkpt><trkpt lat="45.5890176" lon="12.3588443"><ele>5.6</ele><time>2026-04-12T15:44:49.126Z</time></trkpt><trkpt lat="45.5889223" lon="12.3588352"><ele>5.8</ele><time>2026-04-12T15:44:51.115Z</time></trkpt><trkpt lat="45.5888276" lon="12.3588297"><ele>6.0</ele><time>2026-04-12T15:44:53.135Z</time></trkpt><trkpt lat="45.5887253" lon="12.3588231"><ele>6.199999999999999</ele><time>2026-04-12T15:44:55.129Z</time></trkpt><trkpt lat="45.5886272" lon="12.358829"><ele>6.3999999999999995</ele><time>2026-04-12T15:44:57.14Z</time></trkpt><trkpt lat="45.5885291" lon="12.3588514"><ele>6.6</ele><time>2026-04-12T15:44:59.138Z</time></trkpt><trkpt lat="45.5884311" lon="12.3588819"><ele>6.8</ele><time>2026-04-12T15:45:01.119Z</time></trkpt><trkpt lat="45.5883465" lon="12.3589029"><ele>7.0</ele><time>2026-04-12T15:45:03.114Z</time></trkpt><trkpt lat="45.5882541" lon="12.3589332"><ele>6.3999999999999995</ele><time>2026-04-12T15:45:05.133Z</time></trkpt><trkpt lat="45.5881576" lon="12.3589743"><ele>5.799999999999999</ele><time>2026-04-12T15:45:07.136Z</time></trkpt><trkpt lat="45.5880681" lon="12.3590097"><ele>5.2</ele><time>2026-04-12T15:45:09.125Z</time></trkpt><trkpt lat="45.5879804" lon="12.3590543"><ele>4.6</ele><time>2026-04-12T15:45:11.139Z</time></trkpt><trkpt lat="45.5879022" lon="12.359097"><ele>4.0</ele><time>2026-04-12T15:45:13.116Z</time></trkpt><trkpt lat="45.5878059" lon="12.3591197"><ele>3.8000000000000003</ele><time>2026-04-12T15:45:15.114Z</time></trkpt><trkpt lat="45.5877117" lon="12.3591447"><ele>3.6000000000000005</ele><time>2026-04-12T15:45:17.12Z</time></trkpt><trkpt lat="45.5876198" lon="12.3591743"><ele>3.4</ele><time>2026-04-12T15:45:19.13Z</time></trkpt><trkpt lat="45.5875166" lon="12.3592058"><ele>3.2</ele><time>2026-04-12T15:45:21.135Z</time></trkpt><trkpt lat="45.5874225" lon="12.3592427"><ele>3.0</ele><time>2026-04-12T15:45:23.12Z</time></trkpt><trkpt lat="45.5873302" lon="12.3592689"><ele>3.0</ele><time>2026-04-12T15:45:25.132Z</time></trkpt><trkpt lat="45.5872426" lon="12.3592915"><ele>3.0</ele><time>2026-04-12T15:45:27.147Z</time></trkpt><trkpt lat="45.587148" lon="12.3593191"><ele>3.0</ele><time>2026-04-12T15:45:29.119Z</time></trkpt><trkpt lat="45.5870478" lon="12.3593537"><ele>3.0</ele><time>2026-04-12T15:45:31.111Z</time></trkpt><trkpt lat="45.5869475" lon="12.3593911"><ele>3.0</ele><time>2026-04-12T15:45:33.114Z</time></trkpt><trkpt lat="45.5868474" lon="12.3594281"><ele>2.8</ele><time>2026-04-12T15:45:35.124Z</time></trkpt><trkpt lat="45.5867478" lon="12.3594629"><ele>2.5999999999999996</ele><time>2026-04-12T15:45:37.115Z</time></trkpt><trkpt lat="45.5866512" lon="12.3594977"><ele>2.4000000000000004</ele><time>2026-04-12T15:45:39.118Z</time></trkpt><trkpt lat="45.5865536" lon="12.3595344"><ele>2.2</ele><time>2026-04-12T15:45:41.138Z</time></trkpt><trkpt lat="45.5864591" lon="12.3595649"><ele>2.0</ele><time>2026-04-12T15:45:43.137Z</time></trkpt><trkpt lat="45.5863631" lon="12.359598"><ele>2.0</ele><time>2026-04-12T15:45:45.126Z</time></trkpt><trkpt lat="45.5862656" lon="12.3596313"><ele>2.0</ele><time>2026-04-12T15:45:47.112Z</time></trkpt><trkpt lat="45.5861686" lon="12.3596635"><ele>2.0</ele><time>2026-04-12T15:45:49.118Z</time></trkpt><trkpt lat="45.5860775" lon="12.3596939"><ele>2.0</ele><time>2026-04-12T15:45:51.119Z</time></trkpt><trkpt lat="45.5859849" lon="12.3597225"><ele>2.0</ele><time>2026-04-12T15:45:53.122Z</time></trkpt><trkpt lat="45.585894" lon="12.359749"><ele>1.4000000000000001</ele><time>2026-04-12T15:45:55.126Z</time></trkpt><trkpt lat="45.5857989" lon="12.3597809"><ele>0.8000000000000002</ele><time>2026-04-12T15:45:57.135Z</time></trkpt><trkpt lat="45.5857062" lon="12.3598089"><ele>0.19999999999999996</ele><time>2026-04-12T15:45:59.126Z</time></trkpt><trkpt lat="45.5856433" lon="12.3598398"><ele>-0.4</ele><time>2026-04-12T15:46:00.129Z</time></trkpt><trkpt lat="45.5855372" lon="12.3598899"><ele>-1.0</ele><time>2026-04-12T15:46:02.119Z</time></trkpt><trkpt lat="45.5854432" lon="12.3599405"><ele>-1.0</ele><time>2026-04-12T15:46:04.137Z</time></trkpt><trkpt lat="45.5853499" lon="12.3599881"><ele>-1.0</ele><time>2026-04-12T15:46:06.13Z</time></trkpt><trkpt lat="45.5852651" lon="12.3600271"><ele>-1.0</ele><time>2026-04-12T15:46:08.116Z</time></trkpt><trkpt lat="45.5851692" lon="12.3600739"><ele>-1.0</ele><time>2026-04-12T15:46:10.15Z</time></trkpt><trkpt lat="45.5850774" lon="12.3601305"><ele>-1.0</ele><time>2026-04-12T15:46:12.125Z</time></trkpt><trkpt lat="45.5849903" lon="12.3601843"><ele>-0.6000000000000001</ele><time>2026-04-12T15:46:14.135Z</time></trkpt><trkpt lat="45.5849037" lon="12.3602376"><ele>-0.20000000000000007</ele><time>2026-04-12T15:46:16.118Z</time></trkpt><trkpt lat="45.5848137" lon="12.3602984"><ele>0.20000000000000007</ele><time>2026-04-12T15:46:18.137Z</time></trkpt><trkpt lat="45.5847211" lon="12.3603595"><ele>0.6000000000000001</ele><time>2026-04-12T15:46:20.134Z</time></trkpt><trkpt lat="45.584633" lon="12.3604155"><ele>1.0</ele><time>2026-04-12T15:46:22.128Z</time></trkpt><trkpt lat="45.5845446" lon="12.3604694"><ele>1.2000000000000002</ele><time>2026-04-12T15:46:24.114Z</time></trkpt><trkpt lat="45.5844555" lon="12.3605239"><ele>1.4000000000000001</ele><time>2026-04-12T15:46:26.119Z</time></trkpt><trkpt lat="45.5843674" lon="12.3605737"><ele>1.6</ele><time>2026-04-12T15:46:28.139Z</time></trkpt><trkpt lat="45.5842766" lon="12.3606302"><ele>1.8</ele><time>2026-04-12T15:46:30.133Z</time></trkpt><trkpt lat="45.5841728" lon="12.3607009"><ele>2.0</ele><time>2026-04-12T15:46:32.134Z</time></trkpt><trkpt lat="45.5840983" lon="12.3607544"><ele>2.1666666666666665</ele><time>2026-04-12T15:46:34.144Z</time></trkpt><trkpt lat="45.5840369" lon="12.3607978"><ele>2.333333333333333</ele><time>2026-04-12T15:46:35.124Z</time></trkpt><trkpt lat="45.5839679" lon="12.3608295"><ele>2.5</ele><time>2026-04-12T15:46:36.126Z</time></trkpt><trkpt lat="45.5838582" lon="12.3609177"><ele>2.6666666666666665</ele><time>2026-04-12T15:46:38.129Z</time></trkpt><trkpt lat="45.5838077" lon="12.360978"><ele>2.8333333333333335</ele><time>2026-04-12T15:46:39.116Z</time></trkpt><trkpt lat="45.583747" lon="12.3610683"><ele>3.0</ele><time>2026-04-12T15:46:41.134Z</time></trkpt><trkpt lat="45.5836757" lon="12.3611588"><ele>2.8333333333333335</ele><time>2026-04-12T15:46:43.134Z</time></trkpt><trkpt lat="45.5836369" lon="12.3612307"><ele>2.6666666666666665</ele><time>2026-04-12T15:46:45.156Z</time></trkpt><trkpt lat="45.5836111" lon="12.3613172"><ele>2.5</ele><time>2026-04-12T15:46:47.143Z</time></trkpt><trkpt lat="45.5835715" lon="12.3614511"><ele>2.333333333333333</ele><time>2026-04-12T15:46:49.12Z</time></trkpt><trkpt lat="45.5835123" lon="12.3615759"><ele>2.1666666666666665</ele><time>2026-04-12T15:46:51.132Z</time></trkpt><trkpt lat="45.5834581" lon="12.3616964"><ele>2.0</ele><time>2026-04-12T15:46:53.129Z</time></trkpt><trkpt lat="45.5834032" lon="12.361813"><ele>1.9999999999999998</ele><time>2026-04-12T15:46:55.133Z</time></trkpt><trkpt lat="45.5833526" lon="12.3619042"><ele>2.0</ele><time>2026-04-12T15:46:57.113Z</time></trkpt><trkpt lat="45.5832912" lon="12.3619963"><ele>2.0</ele><time>2026-04-12T15:46:59.135Z</time></trkpt><trkpt lat="45.5832254" lon="12.3620933"><ele>2.0</ele><time>2026-04-12T15:47:01.134Z</time></trkpt><trkpt lat="45.5831722" lon="12.3621943"><ele>1.9999999999999998</ele><time>2026-04-12T15:47:03.137Z</time></trkpt><trkpt lat="45.5831196" lon="12.3623014"><ele>2.0</ele><time>2026-04-12T15:47:05.114Z</time></trkpt><trkpt lat="45.5830593" lon="12.3624108"><ele>1.6</ele><time>2026-04-12T15:47:07.125Z</time></trkpt><trkpt lat="45.5830037" lon="12.3625179"><ele>1.2000000000000002</ele><time>2026-04-12T15:47:09.126Z</time></trkpt><trkpt lat="45.5829479" lon="12.3626289"><ele>0.8</ele><time>2026-04-12T15:47:11.122Z</time></trkpt><trkpt lat="45.5828976" lon="12.3627438"><ele>0.4</ele><time>2026-04-12T15:47:13.11Z</time></trkpt><trkpt lat="45.5828565" lon="12.3628649"><ele>0.0</ele><time>2026-04-12T15:47:15.127Z</time></trkpt><trkpt lat="45.5828311" lon="12.362997"><ele>0.0</ele><time>2026-04-12T15:47:17.124Z</time></trkpt><trkpt lat="45.5828284" lon="12.3631411"><ele>0.0</ele><time>2026-04-12T15:47:19.135Z</time></trkpt><trkpt lat="45.5828628" lon="12.3632719"><ele>0.0</ele><time>2026-04-12T15:47:21.145Z</time></trkpt><trkpt lat="45.5829045" lon="12.3633995"><ele>0.0</ele><time>2026-04-12T15:47:23.124Z</time></trkpt><trkpt lat="45.5829409" lon="12.3635048"><ele>0.0</ele><time>2026-04-12T15:47:25.125Z</time></trkpt><trkpt lat="45.5829713" lon="12.3636091"><ele>0.0</ele><time>2026-04-12T15:47:27.138Z</time></trkpt><trkpt lat="45.5830037" lon="12.3637252"><ele>0.0</ele><time>2026-04-12T15:47:29.12Z</time></trkpt><trkpt lat="45.583042" lon="12.363843"><ele>0.0</ele><time>2026-04-12T15:47:31.142Z</time></trkpt><trkpt lat="45.5830753" lon="12.3639689"><ele>0.0</ele><time>2026-04-12T15:47:33.143Z</time></trkpt><trkpt lat="45.5831113" lon="12.3640936"><ele>0.0</ele><time>2026-04-12T15:47:35.13Z</time></trkpt><trkpt lat="45.5831534" lon="12.3642161"><ele>0.0</ele><time>2026-04-12T15:47:37.121Z</time></trkpt><trkpt lat="45.5831897" lon="12.3643418"><ele>0.0</ele><time>2026-04-12T15:47:39.123Z</time></trkpt><trkpt lat="45.5832286" lon="12.364472"><ele>0.0</ele><time>2026-04-12T15:47:41.118Z</time></trkpt><trkpt lat="45.5832695" lon="12.3646072"><ele>0.0</ele><time>2026-04-12T15:47:43.131Z</time></trkpt><trkpt lat="45.5833077" lon="12.3647359"><ele>0.0</ele><time>2026-04-12T15:47:45.129Z</time></trkpt><trkpt lat="45.5833472" lon="12.3648586"><ele>0.0</ele><time>2026-04-12T15:47:47.126Z</time></trkpt><trkpt lat="45.5833854" lon="12.3649861"><ele>0.0</ele><time>2026-04-12T15:47:49.126Z</time></trkpt><trkpt lat="45.5834182" lon="12.3651051"><ele>0.0</ele><time>2026-04-12T15:47:51.113Z</time></trkpt><trkpt lat="45.5834565" lon="12.3652353"><ele>0.0</ele><time>2026-04-12T15:47:53.132Z</time></trkpt><trkpt lat="45.5834936" lon="12.3653622"><ele>0.0</ele><time>2026-04-12T15:47:55.123Z</time></trkpt><trkpt lat="45.583531" lon="12.3654927"><ele>-0.16666666666666666</ele><time>2026-04-12T15:47:57.122Z</time></trkpt><trkpt lat="45.5835682" lon="12.3656021"><ele>-0.3333333333333333</ele><time>2026-04-12T15:47:59.13Z</time></trkpt><trkpt lat="45.5836036" lon="12.3657213"><ele>-0.5</ele><time>2026-04-12T15:48:01.111Z</time></trkpt><trkpt lat="45.5836385" lon="12.3658326"><ele>-0.6666666666666666</ele><time>2026-04-12T15:48:03.142Z</time></trkpt><trkpt lat="45.5836788" lon="12.3659589"><ele>-0.8333333333333333</ele><time>2026-04-12T15:48:06.124Z</time></trkpt><trkpt lat="45.5837085" lon="12.366071"><ele>-1.0</ele><time>2026-04-12T15:48:08.13Z</time></trkpt><trkpt lat="45.5837465" lon="12.3661966"><ele>-1.0</ele><time>2026-04-12T15:48:10.147Z</time></trkpt><trkpt lat="45.5837858" lon="12.3663245"><ele>-1.0</ele><time>2026-04-12T15:48:12.121Z</time></trkpt><trkpt lat="45.5838261" lon="12.3664534"><ele>-1.0</ele><time>2026-04-12T15:48:14.126Z</time></trkpt><trkpt lat="45.5838642" lon="12.3665774"><ele>-1.0</ele><time>2026-04-12T15:48:16.133Z</time></trkpt><trkpt lat="45.5838988" lon="12.3667016"><ele>-1.0</ele><time>2026-04-12T15:48:18.135Z</time></trkpt><trkpt lat="45.5839357" lon="12.3668339"><ele>-1.0</ele><time>2026-04-12T15:48:20.126Z</time></trkpt><trkpt lat="45.5839767" lon="12.3669631"><ele>-1.0</ele><time>2026-04-12T15:48:22.139Z</time></trkpt><trkpt lat="45.5840168" lon="12.367084"><ele>-1.0</ele><time>2026-04-12T15:48:24.128Z</time></trkpt><trkpt lat="45.584056" lon="12.3672132"><ele>-1.0</ele><time>2026-04-12T15:48:26.126Z</time></trkpt><trkpt lat="45.5840859" lon="12.3673361"><ele>-1.0</ele><time>2026-04-12T15:48:28.134Z</time></trkpt><trkpt lat="45.584118" lon="12.3674666"><ele>-1.2000000000000002</ele><time>2026-04-12T15:48:30.126Z</time></trkpt><trkpt lat="45.5841437" lon="12.3675984"><ele>-1.4000000000000001</ele><time>2026-04-12T15:48:32.119Z</time></trkpt><trkpt lat="45.5841594" lon="12.3677317"><ele>-1.6</ele><time>2026-04-12T15:48:34.137Z</time></trkpt><trkpt lat="45.5841716" lon="12.3678593"><ele>-1.8</ele><time>2026-04-12T15:48:36.139Z</time></trkpt><trkpt lat="45.5841851" lon="12.3679892"><ele>-2.0</ele><time>2026-04-12T15:48:38.116Z</time></trkpt><trkpt lat="45.5841982" lon="12.3681175"><ele>-1.6</ele><time>2026-04-12T15:48:40.144Z</time></trkpt><trkpt lat="45.5842059" lon="12.3682527"><ele>-1.2000000000000002</ele><time>2026-04-12T15:48:42.125Z</time></trkpt><trkpt lat="45.5842088" lon="12.3683916"><ele>-0.8</ele><time>2026-04-12T15:48:44.121Z</time></trkpt><trkpt lat="45.5841997" lon="12.3685254"><ele>-0.4</ele><time>2026-04-12T15:48:46.129Z</time></trkpt><trkpt lat="45.5841916" lon="12.3686545"><ele>0.0</ele><time>2026-04-12T15:48:48.136Z</time></trkpt><trkpt lat="45.5841714" lon="12.3687764"><ele>0.6666666666666666</ele><time>2026-04-12T15:48:50.128Z</time></trkpt><trkpt lat="45.5841488" lon="12.3688932"><ele>1.3333333333333333</ele><time>2026-04-12T15:48:52.12Z</time></trkpt><trkpt lat="45.5841278" lon="12.3689804"><ele>2.0</ele><time>2026-04-12T15:48:54.133Z</time></trkpt><trkpt lat="45.5841512" lon="12.3690717"><ele>2.6666666666666665</ele><time>2026-04-12T15:48:56.128Z</time></trkpt><trkpt lat="45.5842155" lon="12.3691278"><ele>3.333333333333333</ele><time>2026-04-12T15:48:58.134Z</time></trkpt><trkpt lat="45.5842931" lon="12.3691917"><ele>4.0</ele><time>2026-04-12T15:49:00.114Z</time></trkpt><trkpt lat="45.5843646" lon="12.3692824"><ele>4.0</ele><time>2026-04-12T15:49:02.118Z</time></trkpt><trkpt lat="45.5844423" lon="12.3693513"><ele>4.0</ele><time>2026-04-12T15:49:04.114Z</time></trkpt><trkpt lat="45.5845253" lon="12.3694028"><ele>4.0</ele><time>2026-04-12T15:49:06.132Z</time></trkpt><trkpt lat="45.5846321" lon="12.3694782"><ele>4.0</ele><time>2026-04-12T15:49:08.16Z</time></trkpt><trkpt lat="45.5846807" lon="12.3695654"><ele>4.0</ele><time>2026-04-12T15:49:10.135Z</time></trkpt><trkpt lat="45.5847222" lon="12.3696759"><ele>3.833333333333333</ele><time>2026-04-12T15:49:12.12Z</time></trkpt><trkpt lat="45.5847653" lon="12.3697718"><ele>3.6666666666666665</ele><time>2026-04-12T15:49:14.121Z</time></trkpt><trkpt lat="45.5848257" lon="12.369863"><ele>3.5</ele><time>2026-04-12T15:49:16.153Z</time></trkpt><trkpt lat="45.5848787" lon="12.3699408"><ele>3.333333333333333</ele><time>2026-04-12T15:49:18.146Z</time></trkpt><trkpt lat="45.5849091" lon="12.3700553"><ele>3.1666666666666665</ele><time>2026-04-12T15:49:21.128Z</time></trkpt><trkpt lat="45.5848961" lon="12.3701453"><ele>3.0</ele><time>2026-04-12T15:49:23.119Z</time></trkpt><trkpt lat="45.5848297" lon="12.3701794"><ele>3.0</ele><time>2026-04-12T15:49:25.12Z</time></trkpt><trkpt lat="45.5847525" lon="12.3701919"><ele>3.0</ele><time>2026-04-12T15:49:28.119Z</time></trkpt><trkpt lat="45.5846727" lon="12.3701737"><ele>3.0</ele><time>2026-04-12T15:49:31.126Z</time></trkpt><trkpt lat="45.5846031" lon="12.3701959"><ele>3.0</ele><time>2026-04-12T15:49:35.119Z</time></trkpt><trkpt lat="45.5845395" lon="12.3703115"><ele>3.0</ele><time>2026-04-12T15:49:39.135Z</time></trkpt><trkpt lat="45.5844905" lon="12.3704119"><ele>3.0</ele><time>2026-04-12T15:49:41.113Z</time></trkpt><trkpt lat="45.5844696" lon="12.3704989"><ele>2.8571428571428568</ele><time>2026-04-12T15:49:43.123Z</time></trkpt><trkpt lat="45.584463" lon="12.3706048"><ele>2.7142857142857144</ele><time>2026-04-12T15:49:45.131Z</time></trkpt><trkpt lat="45.5845255" lon="12.3706744"><ele>2.571428571428571</ele><time>2026-04-12T15:49:48.123Z</time></trkpt><trkpt lat="45.5846043" lon="12.3707023"><ele>2.4285714285714284</ele><time>2026-04-12T15:49:51.118Z</time></trkpt><trkpt lat="45.5846805" lon="12.3707394"><ele>2.2857142857142856</ele><time>2026-04-12T15:49:54.123Z</time></trkpt><trkpt lat="45.584695" lon="12.3708275"><ele>2.142857142857143</ele><time>2026-04-12T15:49:59.119Z</time></trkpt><trkpt lat="45.58463" lon="12.3708579"><ele>2.0</ele><time>2026-04-12T15:50:03.13Z</time></trkpt><trkpt lat="45.5845664" lon="12.3708908"><ele>2.333333333333333</ele><time>2026-04-12T15:50:06.126Z</time></trkpt><trkpt lat="45.5846241" lon="12.3709573"><ele>2.6666666666666665</ele><time>2026-04-12T15:50:09.12Z</time></trkpt><trkpt lat="45.5847243" lon="12.3709778"><ele>3.0</ele><time>2026-04-12T15:50:12.116Z</time></trkpt><trkpt lat="45.5848061" lon="12.370987"><ele>3.333333333333333</ele><time>2026-04-12T15:50:14.122Z</time></trkpt><trkpt lat="45.5848988" lon="12.3710118"><ele>3.6666666666666665</ele><time>2026-04-12T15:50:16.116Z</time></trkpt><trkpt lat="45.5849802" lon="12.3710313"><ele>4.0</ele><time>2026-04-12T15:50:18.117Z</time></trkpt><trkpt lat="45.5850667" lon="12.371051"><ele>4.0</ele><time>2026-04-12T15:50:20.131Z</time></trkpt><trkpt lat="45.5851596" lon="12.3710696"><ele>4.0</ele><time>2026-04-12T15:50:22.134Z</time></trkpt><trkpt lat="45.5852504" lon="12.3710952"><ele>4.0</ele><time>2026-04-12T15:50:24.127Z</time></trkpt><trkpt lat="45.5853416" lon="12.3711257"><ele>4.0</ele><time>2026-04-12T15:50:26.122Z</time></trkpt><trkpt lat="45.5854484" lon="12.3711538"><ele>4.0</ele><time>2026-04-12T15:50:28.122Z</time></trkpt><trkpt lat="45.5855483" lon="12.3711867"><ele>3.8000000000000003</ele><time>2026-04-12T15:50:30.127Z</time></trkpt><trkpt lat="45.5856376" lon="12.3712112"><ele>3.6000000000000005</ele><time>2026-04-12T15:50:32.125Z</time></trkpt><trkpt lat="45.5857279" lon="12.3712283"><ele>3.4</ele><time>2026-04-12T15:50:34.135Z</time></trkpt><trkpt lat="45.5858165" lon="12.3712411"><ele>3.2</ele><time>2026-04-12T15:50:36.126Z</time></trkpt><trkpt lat="45.585916" lon="12.3712613"><ele>3.0</ele><time>2026-04-12T15:50:38.132Z</time></trkpt><trkpt lat="45.5860041" lon="12.3712842"><ele>3.0</ele><time>2026-04-12T15:50:40.129Z</time></trkpt><trkpt lat="45.5861042" lon="12.3713244"><ele>3.0</ele><time>2026-04-12T15:50:42.121Z</time></trkpt><trkpt lat="45.5862153" lon="12.3713584"><ele>3.0</ele><time>2026-04-12T15:50:44.124Z</time></trkpt><trkpt lat="45.5863163" lon="12.3713964"><ele>3.0</ele><time>2026-04-12T15:50:46.134Z</time></trkpt><trkpt lat="45.5864074" lon="12.3714312"><ele>3.0</ele><time>2026-04-12T15:50:48.137Z</time></trkpt><trkpt lat="45.5864959" lon="12.3714613"><ele>2.6</ele><time>2026-04-12T15:50:50.138Z</time></trkpt><trkpt lat="45.5865852" lon="12.3714875"><ele>2.1999999999999997</ele><time>2026-04-12T15:50:52.109Z</time></trkpt><trkpt lat="45.5866798" lon="12.3715024"><ele>1.8</ele><time>2026-04-12T15:50:54.134Z</time></trkpt><trkpt lat="45.5867781" lon="12.3715265"><ele>1.4</ele><time>2026-04-12T15:50:56.131Z</time></trkpt><trkpt lat="45.5868935" lon="12.3715467"><ele>1.0</ele><time>2026-04-12T15:50:58.123Z</time></trkpt><trkpt lat="45.587001" lon="12.3715703"><ele>1.2000000000000002</ele><time>2026-04-12T15:51:00.109Z</time></trkpt><trkpt lat="45.5871024" lon="12.3715968"><ele>1.4000000000000001</ele><time>2026-04-12T15:51:02.108Z</time></trkpt><trkpt lat="45.5871957" lon="12.3716227"><ele>1.6</ele><time>2026-04-12T15:51:04.136Z</time></trkpt><trkpt lat="45.5872959" lon="12.3716462"><ele>1.8</ele><time>2026-04-12T15:51:06.129Z</time></trkpt><trkpt lat="45.5873981" lon="12.3716687"><ele>2.0</ele><time>2026-04-12T15:51:08.121Z</time></trkpt><trkpt lat="45.5875035" lon="12.3716928"><ele>2.0</ele><time>2026-04-12T15:51:10.132Z</time></trkpt><trkpt lat="45.5876085" lon="12.37172"><ele>2.0</ele><time>2026-04-12T15:51:12.121Z</time></trkpt><trkpt lat="45.5877106" lon="12.3717475"><ele>2.0</ele><time>2026-04-12T15:51:14.125Z</time></trkpt><trkpt lat="45.5878123" lon="12.3717714"><ele>2.0</ele><time>2026-04-12T15:51:16.115Z</time></trkpt><trkpt lat="45.5879155" lon="12.371795"><ele>2.0</ele><time>2026-04-12T15:51:18.128Z</time></trkpt><trkpt lat="45.5880132" lon="12.3718159"><ele>2.0</ele><time>2026-04-12T15:51:20.131Z</time></trkpt><trkpt lat="45.5881048" lon="12.3718419"><ele>2.0</ele><time>2026-04-12T15:51:22.121Z</time></trkpt><trkpt lat="45.5882055" lon="12.3718644"><ele>2.0</ele><time>2026-04-12T15:51:24.119Z</time></trkpt><trkpt lat="45.5883125" lon="12.3718896"><ele>2.0</ele><time>2026-04-12T15:51:26.127Z</time></trkpt><trkpt lat="45.5884124" lon="12.3719168"><ele>2.0</ele><time>2026-04-12T15:51:28.129Z</time></trkpt><trkpt lat="45.5885115" lon="12.3719459"><ele>2.0</ele><time>2026-04-12T15:51:30.135Z</time></trkpt><trkpt lat="45.5886137" lon="12.3719805"><ele>2.0</ele><time>2026-04-12T15:51:32.124Z</time></trkpt><trkpt lat="45.5887173" lon="12.372021"><ele>2.0</ele><time>2026-04-12T15:51:34.12Z</time></trkpt><trkpt lat="45.5888187" lon="12.37207"><ele>2.0</ele><time>2026-04-12T15:51:36.122Z</time></trkpt><trkpt lat="45.5889142" lon="12.3721313"><ele>2.0</ele><time>2026-04-12T15:51:38.119Z</time></trkpt><trkpt lat="45.5890047" lon="12.3722104"><ele>2.4000000000000004</ele><time>2026-04-12T15:51:40.126Z</time></trkpt><trkpt lat="45.5890912" lon="12.3722861"><ele>2.8000000000000003</ele><time>2026-04-12T15:51:42.117Z</time></trkpt><trkpt lat="45.5891783" lon="12.3723694"><ele>3.2</ele><time>2026-04-12T15:51:44.12Z</time></trkpt><trkpt lat="45.5892637" lon="12.3724595"><ele>3.6</ele><time>2026-04-12T15:51:46.122Z</time></trkpt><trkpt lat="45.5893556" lon="12.3725493"><ele>4.0</ele><time>2026-04-12T15:51:48.12Z</time></trkpt><trkpt lat="45.5894341" lon="12.3726429"><ele>3.4000000000000004</ele><time>2026-04-12T15:51:50.16Z</time></trkpt><trkpt lat="45.5895174" lon="12.3727367"><ele>2.8000000000000003</ele><time>2026-04-12T15:51:52.124Z</time></trkpt><trkpt lat="45.589596" lon="12.3728256"><ele>2.2</ele><time>2026-04-12T15:51:54.128Z</time></trkpt><trkpt lat="45.5896791" lon="12.3729215"><ele>1.6</ele><time>2026-04-12T15:51:56.119Z</time></trkpt><trkpt lat="45.5897591" lon="12.3730124"><ele>1.0</ele><time>2026-04-12T15:51:58.122Z</time></trkpt><trkpt lat="45.5898452" lon="12.3731078"><ele>1.0</ele><time>2026-04-12T15:52:00.132Z</time></trkpt><trkpt lat="45.5899292" lon="12.3732025"><ele>1.0</ele><time>2026-04-12T15:52:02.121Z</time></trkpt><trkpt lat="45.5900107" lon="12.3732976"><ele>1.0</ele><time>2026-04-12T15:52:04.118Z</time></trkpt><trkpt lat="45.5900932" lon="12.3733945"><ele>1.0</ele><time>2026-04-12T15:52:06.13Z</time></trkpt><trkpt lat="45.5901709" lon="12.3734973"><ele>1.0</ele><time>2026-04-12T15:52:08.126Z</time></trkpt><trkpt lat="45.5902471" lon="12.3735988"><ele>1.0</ele><time>2026-04-12T15:52:10.118Z</time></trkpt><trkpt lat="45.5903164" lon="12.3737007"><ele>1.0</ele><time>2026-04-12T15:52:12.13Z</time></trkpt><trkpt lat="45.59039" lon="12.3738199"><ele>1.0</ele><time>2026-04-12T15:52:14.133Z</time></trkpt><trkpt lat="45.590461" lon="12.373934"><ele>1.0</ele><time>2026-04-12T15:52:16.123Z</time></trkpt><trkpt lat="45.5905279" lon="12.3740414"><ele>1.0</ele><time>2026-04-12T15:52:18.114Z</time></trkpt><trkpt lat="45.5905954" lon="12.3741466"><ele>1.0</ele><time>2026-04-12T15:52:20.114Z</time></trkpt><trkpt lat="45.5906654" lon="12.374256"><ele>1.0</ele><time>2026-04-12T15:52:22.132Z</time></trkpt><trkpt lat="45.5907412" lon="12.374372"><ele>1.0</ele><time>2026-04-12T15:52:24.131Z</time></trkpt><trkpt lat="45.5908202" lon="12.3744953"><ele>1.0</ele><time>2026-04-12T15:52:26.13Z</time></trkpt><trkpt lat="45.5908968" lon="12.3746148"><ele>1.0</ele><time>2026-04-12T15:52:28.139Z</time></trkpt><trkpt lat="45.5909694" lon="12.3747285"><ele>1.0</ele><time>2026-04-12T15:52:30.123Z</time></trkpt><trkpt lat="45.5910392" lon="12.3748359"><ele>1.0</ele><time>2026-04-12T15:52:32.117Z</time></trkpt><trkpt lat="45.5911124" lon="12.3749486"><ele>1.0</ele><time>2026-04-12T15:52:34.13Z</time></trkpt><trkpt lat="45.5911812" lon="12.3750546"><ele>1.0</ele><time>2026-04-12T15:52:36.141Z</time></trkpt><trkpt lat="45.5912481" lon="12.3751607"><ele>1.0</ele><time>2026-04-12T15:52:38.129Z</time></trkpt><trkpt lat="45.591321" lon="12.3752747"><ele>1.0</ele><time>2026-04-12T15:52:40.131Z</time></trkpt><trkpt lat="45.5913904" lon="12.375381"><ele>1.0</ele><time>2026-04-12T15:52:42.113Z</time></trkpt><trkpt lat="45.5914631" lon="12.3754919"><ele>1.0</ele><time>2026-04-12T15:52:44.129Z</time></trkpt><trkpt lat="45.591537" lon="12.3756043"><ele>1.0</ele><time>2026-04-12T15:52:46.136Z</time></trkpt><trkpt lat="45.5916072" lon="12.3757104"><ele>1.0</ele><time>2026-04-12T15:52:48.133Z</time></trkpt><trkpt lat="45.5916718" lon="12.3758172"><ele>1.0</ele><time>2026-04-12T15:52:50.115Z</time></trkpt><trkpt lat="45.591742" lon="12.375926"><ele>1.0</ele><time>2026-04-12T15:52:52.11Z</time></trkpt><trkpt lat="45.591814" lon="12.3760323"><ele>1.0</ele><time>2026-04-12T15:52:54.121Z</time></trkpt><trkpt lat="45.5918886" lon="12.3761368"><ele>1.0</ele><time>2026-04-12T15:52:56.12Z</time></trkpt><trkpt lat="45.5919606" lon="12.3762488"><ele>1.0</ele><time>2026-04-12T15:52:58.139Z</time></trkpt><trkpt lat="45.5920308" lon="12.3763556"><ele>1.2000000000000002</ele><time>2026-04-12T15:53:00.109Z</time></trkpt><trkpt lat="45.5921014" lon="12.3764682"><ele>1.4000000000000001</ele><time>2026-04-12T15:53:02.11Z</time></trkpt><trkpt lat="45.592171" lon="12.376577"><ele>1.6</ele><time>2026-04-12T15:53:04.124Z</time></trkpt><trkpt lat="45.5922323" lon="12.3766676"><ele>1.8</ele><time>2026-04-12T15:53:06.114Z</time></trkpt><trkpt lat="45.5922919" lon="12.3767519"><ele>2.0</ele><time>2026-04-12T15:53:08.139Z</time></trkpt><trkpt lat="45.5923523" lon="12.3768406"><ele>1.9999999999999998</ele><time>2026-04-12T15:53:10.118Z</time></trkpt><trkpt lat="45.5924083" lon="12.3769265"><ele>2.0</ele><time>2026-04-12T15:53:12.121Z</time></trkpt><trkpt lat="45.5924519" lon="12.376994"><ele>2.0</ele><time>2026-04-12T15:53:14.122Z</time></trkpt><trkpt lat="45.5925177" lon="12.3770903"><ele>2.0</ele><time>2026-04-12T15:53:17.131Z</time></trkpt><trkpt lat="45.5925684" lon="12.3771488"><ele>1.9999999999999998</ele><time>2026-04-12T15:53:19.121Z</time></trkpt><trkpt lat="45.5926277" lon="12.3772054"><ele>2.0</ele><time>2026-04-12T15:53:21.125Z</time></trkpt><trkpt lat="45.5926952" lon="12.377263"><ele>1.9999999999999998</ele><time>2026-04-12T15:53:23.123Z</time></trkpt><trkpt lat="45.5927653" lon="12.3773336"><ele>2.0</ele><time>2026-04-12T15:53:25.123Z</time></trkpt><trkpt lat="45.5928375" lon="12.3774158"><ele>2.0</ele><time>2026-04-12T15:53:27.125Z</time></trkpt><trkpt lat="45.5929066" lon="12.3775015"><ele>2.0</ele><time>2026-04-12T15:53:29.131Z</time></trkpt><trkpt lat="45.592967" lon="12.3775737"><ele>1.9999999999999998</ele><time>2026-04-12T15:53:31.113Z</time></trkpt><trkpt lat="45.5930209" lon="12.3776635"><ele>2.0</ele><time>2026-04-12T15:53:33.13Z</time></trkpt><trkpt lat="45.5930744" lon="12.3777627"><ele>1.8333333333333333</ele><time>2026-04-12T15:53:35.136Z</time></trkpt><trkpt lat="45.5931262" lon="12.377872"><ele>1.6666666666666665</ele><time>2026-04-12T15:53:37.125Z</time></trkpt><trkpt lat="45.5931767" lon="12.3779761"><ele>1.5</ele><time>2026-04-12T15:53:39.115Z</time></trkpt><trkpt lat="45.5932315" lon="12.3780771"><ele>1.3333333333333333</ele><time>2026-04-12T15:53:41.142Z</time></trkpt><trkpt lat="45.5932906" lon="12.3781625"><ele>1.1666666666666665</ele><time>2026-04-12T15:53:43.134Z</time></trkpt><trkpt lat="45.5933539" lon="12.3782375"><ele>1.0</ele><time>2026-04-12T15:53:45.13Z</time></trkpt><trkpt lat="45.5934134" lon="12.3782945"><ele>0.9999999999999999</ele><time>2026-04-12T15:53:47.121Z</time></trkpt><trkpt lat="45.5934792" lon="12.3783432"><ele>1.0</ele><time>2026-04-12T15:53:49.129Z</time></trkpt><trkpt lat="45.5935536" lon="12.3783829"><ele>1.0</ele><time>2026-04-12T15:53:51.123Z</time></trkpt><trkpt lat="45.5936306" lon="12.3784176"><ele>1.0</ele><time>2026-04-12T15:53:53.143Z</time></trkpt><trkpt lat="45.5937092" lon="12.3784467"><ele>0.9999999999999999</ele><time>2026-04-12T15:53:55.116Z</time></trkpt><trkpt lat="45.5937888" lon="12.3784619"><ele>1.0</ele><time>2026-04-12T15:53:57.117Z</time></trkpt><trkpt lat="45.5938735" lon="12.3784748"><ele>1.0</ele><time>2026-04-12T15:53:59.134Z</time></trkpt><trkpt lat="45.5939619" lon="12.3784921"><ele>1.0</ele><time>2026-04-12T15:54:01.131Z</time></trkpt><trkpt lat="45.5940524" lon="12.3785087"><ele>1.0</ele><time>2026-04-12T15:54:03.123Z</time></trkpt><trkpt lat="45.5941413" lon="12.3785206"><ele>1.0</ele><time>2026-04-12T15:54:05.139Z</time></trkpt><trkpt lat="45.5942348" lon="12.3785336"><ele>1.0</ele><time>2026-04-12T15:54:07.142Z</time></trkpt><trkpt lat="45.594322" lon="12.3785379"><ele>1.0</ele><time>2026-04-12T15:54:09.138Z</time></trkpt><trkpt lat="45.5944233" lon="12.3785287"><ele>1.0</ele><time>2026-04-12T15:54:11.128Z</time></trkpt><trkpt lat="45.5945232" lon="12.3785124"><ele>1.0</ele><time>2026-04-12T15:54:13.118Z</time></trkpt><trkpt lat="45.5946213" lon="12.3784931"><ele>1.0</ele><time>2026-04-12T15:54:15.12Z</time></trkpt><trkpt lat="45.5947177" lon="12.3784607"><ele>1.0</ele><time>2026-04-12T15:54:17.135Z</time></trkpt><trkpt lat="45.5948116" lon="12.3784244"><ele>1.5</ele><time>2026-04-12T15:54:19.12Z</time></trkpt><trkpt lat="45.5948991" lon="12.3783933"><ele>2.0</ele><time>2026-04-12T15:54:21.133Z</time></trkpt><trkpt lat="45.5949808" lon="12.3783576"><ele>2.5</ele><time>2026-04-12T15:54:23.128Z</time></trkpt><trkpt lat="45.5950643" lon="12.3783155"><ele>3.0</ele><time>2026-04-12T15:54:25.117Z</time></trkpt><trkpt lat="45.595145" lon="12.3782778"><ele>3.4999999999999996</ele><time>2026-04-12T15:54:27.128Z</time></trkpt><trkpt lat="45.5952195" lon="12.3782425"><ele>4.0</ele><time>2026-04-12T15:54:29.133Z</time></trkpt><trkpt lat="45.5952842" lon="12.3782124"><ele>3.6666666666666665</ele><time>2026-04-12T15:54:31.143Z</time></trkpt><trkpt lat="45.5953524" lon="12.3781809"><ele>3.333333333333333</ele><time>2026-04-12T15:54:33.137Z</time></trkpt><trkpt lat="45.5954298" lon="12.3781444"><ele>3.0</ele><time>2026-04-12T15:54:35.13Z</time></trkpt><trkpt lat="45.5955072" lon="12.378107"><ele>2.6666666666666665</ele><time>2026-04-12T15:54:37.135Z</time></trkpt><trkpt lat="45.5955887" lon="12.3780705"><ele>2.333333333333333</ele><time>2026-04-12T15:54:39.147Z</time></trkpt><trkpt lat="45.5956595" lon="12.3780354"><ele>2.0</ele><time>2026-04-12T15:54:41.14Z</time></trkpt><trkpt lat="45.5957403" lon="12.3779874"><ele>1.9999999999999998</ele><time>2026-04-12T15:54:43.132Z</time></trkpt><trkpt lat="45.5958179" lon="12.3779475"><ele>2.0</ele><time>2026-04-12T15:54:45.13Z</time></trkpt><trkpt lat="45.5959003" lon="12.3779059"><ele>2.0</ele><time>2026-04-12T15:54:47.127Z</time></trkpt><trkpt lat="45.5959864" lon="12.3778708"><ele>2.0</ele><time>2026-04-12T15:54:49.148Z</time></trkpt><trkpt lat="45.5960744" lon="12.377837"><ele>1.9999999999999998</ele><time>2026-04-12T15:54:51.132Z</time></trkpt><trkpt lat="45.5961607" lon="12.3777986"><ele>2.0</ele><time>2026-04-12T15:54:53.137Z</time></trkpt><trkpt lat="45.5962522" lon="12.3777601"><ele>2.0</ele><time>2026-04-12T15:54:55.142Z</time></trkpt><trkpt lat="45.5963467" lon="12.377723"><ele>2.0</ele><time>2026-04-12T15:54:57.127Z</time></trkpt><trkpt lat="45.5964447" lon="12.3776839"><ele>2.0</ele><time>2026-04-12T15:54:59.135Z</time></trkpt><trkpt lat="45.5965467" lon="12.3776375"><ele>2.0</ele><time>2026-04-12T15:55:01.132Z</time></trkpt><trkpt lat="45.5966546" lon="12.3775915"><ele>2.0</ele><time>2026-04-12T15:55:03.146Z</time></trkpt><trkpt lat="45.5967688" lon="12.377536"><ele>1.9999999999999998</ele><time>2026-04-12T15:55:05.135Z</time></trkpt><trkpt lat="45.5968864" lon="12.3774822"><ele>2.0</ele><time>2026-04-12T15:55:07.13Z</time></trkpt><trkpt lat="45.5969503" lon="12.3774523"><ele>2.0</ele><time>2026-04-12T15:55:08.141Z</time></trkpt><trkpt lat="45.5970136" lon="12.377423"><ele>2.0</ele><time>2026-04-12T15:55:09.131Z</time></trkpt><trkpt lat="45.5970782" lon="12.3773953"><ele>1.9999999999999998</ele><time>2026-04-12T15:55:10.124Z</time></trkpt><trkpt lat="45.5971437" lon="12.3773659"><ele>2.0</ele><time>2026-04-12T15:55:11.125Z</time></trkpt><trkpt lat="45.5972124" lon="12.3773375"><ele>2.0</ele><time>2026-04-12T15:55:12.125Z</time></trkpt><trkpt lat="45.597283" lon="12.3773097"><ele>1.9999999999999998</ele><time>2026-04-12T15:55:13.146Z</time></trkpt><trkpt lat="45.5973533" lon="12.3772752"><ele>2.0</ele><time>2026-04-12T15:55:14.148Z</time></trkpt><trkpt lat="45.5974235" lon="12.3772398"><ele>2.0</ele><time>2026-04-12T15:55:15.142Z</time></trkpt><trkpt lat="45.5974943" lon="12.3772049"><ele>1.9999999999999998</ele><time>2026-04-12T15:55:16.144Z</time></trkpt><trkpt lat="45.5975652" lon="12.3771709"><ele>2.0</ele><time>2026-04-12T15:55:17.128Z</time></trkpt><trkpt lat="45.5976369" lon="12.3771412"><ele>2.0</ele><time>2026-04-12T15:55:18.141Z</time></trkpt><trkpt lat="45.597707" lon="12.3771099"><ele>2.0</ele><time>2026-04-12T15:55:19.139Z</time></trkpt><trkpt lat="45.5977778" lon="12.3770848"><ele>1.9999999999999998</ele><time>2026-04-12T15:55:20.125Z</time></trkpt><trkpt lat="45.5978471" lon="12.377057"><ele>2.0</ele><time>2026-04-12T15:55:21.134Z</time></trkpt><trkpt lat="45.5979148" lon="12.3770258"><ele>2.0</ele><time>2026-04-12T15:55:22.119Z</time></trkpt><trkpt lat="45.5979823" lon="12.3769978"><ele>1.9999999999999998</ele><time>2026-04-12T15:55:23.141Z</time></trkpt><trkpt lat="45.5980491" lon="12.3769729"><ele>2.0</ele><time>2026-04-12T15:55:24.135Z</time></trkpt><trkpt lat="45.5981156" lon="12.3769504"><ele>2.0</ele><time>2026-04-12T15:55:25.132Z</time></trkpt><trkpt lat="45.5981821" lon="12.3769291"><ele>2.0</ele><time>2026-04-12T15:55:26.118Z</time></trkpt><trkpt lat="45.5982487" lon="12.3769096"><ele>1.9999999999999998</ele><time>2026-04-12T15:55:27.121Z</time></trkpt><trkpt lat="45.5983145" lon="12.3768909"><ele>2.0</ele><time>2026-04-12T15:55:28.12Z</time></trkpt><trkpt lat="45.5983805" lon="12.3768775"><ele>2.0</ele><time>2026-04-12T15:55:29.14Z</time></trkpt><trkpt lat="45.5984461" lon="12.3768592"><ele>1.9999999999999998</ele><time>2026-04-12T15:55:30.117Z</time></trkpt><trkpt lat="45.5985132" lon="12.3768503"><ele>2.0</ele><time>2026-04-12T15:55:31.132Z</time></trkpt><trkpt lat="45.5985806" lon="12.376839"><ele>2.0</ele><time>2026-04-12T15:55:32.139Z</time></trkpt><trkpt lat="45.5986485" lon="12.3768287"><ele>1.857142857142857</ele><time>2026-04-12T15:55:33.16Z</time></trkpt><trkpt lat="45.5987163" lon="12.3768199"><ele>1.714285714285714</ele><time>2026-04-12T15:55:34.128Z</time></trkpt><trkpt lat="45.5987843" lon="12.3768114"><ele>1.5714285714285714</ele><time>2026-04-12T15:55:35.129Z</time></trkpt><trkpt lat="45.5988532" lon="12.3768059"><ele>1.4285714285714284</ele><time>2026-04-12T15:55:36.135Z</time></trkpt><trkpt lat="45.5989218" lon="12.3768053"><ele>1.2857142857142856</ele><time>2026-04-12T15:55:37.122Z</time></trkpt><trkpt lat="45.5989904" lon="12.3768054"><ele>1.1428571428571428</ele><time>2026-04-12T15:55:38.143Z</time></trkpt><trkpt lat="45.599058" lon="12.3768067"><ele>1.0</ele><time>2026-04-12T15:55:39.116Z</time></trkpt><trkpt lat="45.5991234" lon="12.3768109"><ele>0.9999999999999999</ele><time>2026-04-12T15:55:40.119Z</time></trkpt><trkpt lat="45.5991885" lon="12.3768196"><ele>1.0</ele><time>2026-04-12T15:55:41.162Z</time></trkpt><trkpt lat="45.5992525" lon="12.376825"><ele>1.0</ele><time>2026-04-12T15:55:42.128Z</time></trkpt><trkpt lat="45.5993157" lon="12.3768235"><ele>1.0</ele><time>2026-04-12T15:55:43.125Z</time></trkpt><trkpt lat="45.599438" lon="12.3768379"><ele>0.9999999999999999</ele><time>2026-04-12T15:55:45.136Z</time></trkpt><trkpt lat="45.5995575" lon="12.3768527"><ele>1.0</ele><time>2026-04-12T15:55:47.132Z</time></trkpt><trkpt lat="45.5996683" lon="12.3768739"><ele>0.9999999999999999</ele><time>2026-04-12T15:55:49.133Z</time></trkpt><trkpt lat="45.5997754" lon="12.3768767"><ele>1.0</ele><time>2026-04-12T15:55:51.126Z</time></trkpt><trkpt lat="45.5998753" lon="12.3768724"><ele>1.0</ele><time>2026-04-12T15:55:53.123Z</time></trkpt><trkpt lat="45.5999687" lon="12.3768625"><ele>1.0</ele><time>2026-04-12T15:55:55.13Z</time></trkpt><trkpt lat="45.6000345" lon="12.3768438"><ele>0.9999999999999999</ele><time>2026-04-12T15:55:57.122Z</time></trkpt><trkpt lat="45.6001039" lon="12.3768617"><ele>1.0</ele><time>2026-04-12T15:56:00.132Z</time></trkpt><trkpt lat="45.6001232" lon="12.376948"><ele>0.9999999999999999</ele><time>2026-04-12T15:56:04.132Z</time></trkpt><trkpt lat="45.6001664" lon="12.377017"><ele>1.0</ele><time>2026-04-12T15:56:07.117Z</time></trkpt><trkpt lat="45.6002301" lon="12.3770713"><ele>1.0</ele><time>2026-04-12T15:56:09.131Z</time></trkpt><trkpt lat="45.6003142" lon="12.3771102"><ele>1.0</ele><time>2026-04-12T15:56:11.119Z</time></trkpt><trkpt lat="45.6004039" lon="12.377142"><ele>0.9999999999999999</ele><time>2026-04-12T15:56:13.133Z</time></trkpt><trkpt lat="45.6004908" lon="12.3771962"><ele>1.0</ele><time>2026-04-12T15:56:15.124Z</time></trkpt><trkpt lat="45.6005922" lon="12.3772188"><ele>0.8</ele><time>2026-04-12T15:56:17.133Z</time></trkpt><trkpt lat="45.6006921" lon="12.3772212"><ele>0.6000000000000001</ele><time>2026-04-12T15:56:19.134Z</time></trkpt><trkpt lat="45.6007898" lon="12.3772283"><ele>0.4</ele><time>2026-04-12T15:56:21.133Z</time></trkpt><trkpt lat="45.6008913" lon="12.377232"><ele>0.2</ele><time>2026-04-12T15:56:23.131Z</time></trkpt><trkpt lat="45.6010017" lon="12.3772383"><ele>0.0</ele><time>2026-04-12T15:56:25.128Z</time></trkpt><trkpt lat="45.6011142" lon="12.377239"><ele>0.75</ele><time>2026-04-12T15:56:27.122Z</time></trkpt><trkpt lat="45.6012287" lon="12.3772316"><ele>1.5</ele><time>2026-04-12T15:56:29.127Z</time></trkpt><trkpt lat="45.6013439" lon="12.3772215"><ele>2.25</ele><time>2026-04-12T15:56:31.134Z</time></trkpt><trkpt lat="45.6014613" lon="12.3771968"><ele>3.0</ele><time>2026-04-12T15:56:33.12Z</time></trkpt><trkpt lat="45.6015712" lon="12.3771684"><ele>3.0</ele><time>2026-04-12T15:56:35.122Z</time></trkpt><trkpt lat="45.6016654" lon="12.3771335"><ele>3.0</ele><time>2026-04-12T15:56:37.119Z</time></trkpt><trkpt lat="45.6017538" lon="12.3771177"><ele>3.0</ele><time>2026-04-12T15:56:39.134Z</time></trkpt><trkpt lat="45.60185" lon="12.3770969"><ele>3.0</ele><time>2026-04-12T15:56:41.142Z</time></trkpt><trkpt lat="45.6019484" lon="12.3770764"><ele>3.0</ele><time>2026-04-12T15:56:43.125Z</time></trkpt><trkpt lat="45.6020568" lon="12.3770476"><ele>2.5</ele><time>2026-04-12T15:56:45.129Z</time></trkpt><trkpt lat="45.6021707" lon="12.3770063"><ele>2.0</ele><time>2026-04-12T15:56:47.135Z</time></trkpt><trkpt lat="45.6022823" lon="12.3769827"><ele>1.5</ele><time>2026-04-12T15:56:49.142Z</time></trkpt><trkpt lat="45.6023986" lon="12.37696"><ele>1.0</ele><time>2026-04-12T15:56:51.129Z</time></trkpt><trkpt lat="45.6025093" lon="12.3769348"><ele>1.0</ele><time>2026-04-12T15:56:53.142Z</time></trkpt><trkpt lat="45.6026227" lon="12.3769067"><ele>1.0</ele><time>2026-04-12T15:56:55.125Z</time></trkpt><trkpt lat="45.6027287" lon="12.3768707"><ele>1.0</ele><time>2026-04-12T15:56:57.123Z</time></trkpt><trkpt lat="45.6028197" lon="12.3768036"><ele>1.0</ele><time>2026-04-12T15:56:59.129Z</time></trkpt><trkpt lat="45.6029354" lon="12.3767696"><ele>1.0</ele><time>2026-04-12T15:57:01.128Z</time></trkpt><trkpt lat="45.6030587" lon="12.3767382"><ele>1.25</ele><time>2026-04-12T15:57:03.121Z</time></trkpt><trkpt lat="45.6031746" lon="12.3767062"><ele>1.5</ele><time>2026-04-12T15:57:05.124Z</time></trkpt><trkpt lat="45.6032878" lon="12.3766792"><ele>1.75</ele><time>2026-04-12T15:57:07.138Z</time></trkpt><trkpt lat="45.6033957" lon="12.3766528"><ele>2.0</ele><time>2026-04-12T15:57:09.144Z</time></trkpt><trkpt lat="45.6035054" lon="12.3766265"><ele>2.0</ele><time>2026-04-12T15:57:11.129Z</time></trkpt><trkpt lat="45.6036195" lon="12.3765908"><ele>2.0</ele><time>2026-04-12T15:57:13.114Z</time></trkpt><trkpt lat="45.6037361" lon="12.3765586"><ele>2.0</ele><time>2026-04-12T15:57:15.162Z</time></trkpt><trkpt lat="45.6038479" lon="12.3765302"><ele>2.0</ele><time>2026-04-12T15:57:17.12Z</time></trkpt><trkpt lat="45.6039596" lon="12.3764996"><ele>2.0</ele><time>2026-04-12T15:57:19.119Z</time></trkpt><trkpt lat="45.6040752" lon="12.3764715"><ele>2.0</ele><time>2026-04-12T15:57:21.125Z</time></trkpt><trkpt lat="45.6041913" lon="12.3764443"><ele>2.0</ele><time>2026-04-12T15:57:23.134Z</time></trkpt><trkpt lat="45.6043002" lon="12.3764176"><ele>2.0</ele><time>2026-04-12T15:57:25.148Z</time></trkpt><trkpt lat="45.6044071" lon="12.3763839"><ele>2.5</ele><time>2026-04-12T15:57:27.135Z</time></trkpt><trkpt lat="45.6045227" lon="12.3763502"><ele>3.0</ele><time>2026-04-12T15:57:29.131Z</time></trkpt><trkpt lat="45.6046399" lon="12.3763222"><ele>3.5</ele><time>2026-04-12T15:57:31.12Z</time></trkpt><trkpt lat="45.6047559" lon="12.376294"><ele>4.0</ele><time>2026-04-12T15:57:33.119Z</time></trkpt><trkpt lat="45.6048763" lon="12.3762647"><ele>4.0</ele><time>2026-04-12T15:57:35.125Z</time></trkpt><trkpt lat="45.6049943" lon="12.3762334"><ele>4.0</ele><time>2026-04-12T15:57:37.143Z</time></trkpt><trkpt lat="45.6051132" lon="12.3762047"><ele>4.0</ele><time>2026-04-12T15:57:39.129Z</time></trkpt><trkpt lat="45.6052269" lon="12.3761756"><ele>4.0</ele><time>2026-04-12T15:57:41.126Z</time></trkpt><trkpt lat="45.605333" lon="12.3761484"><ele>4.25</ele><time>2026-04-12T15:57:43.125Z</time></trkpt><trkpt lat="45.6054413" lon="12.3761167"><ele>4.5</ele><time>2026-04-12T15:57:45.127Z</time></trkpt><trkpt lat="45.6055578" lon="12.3760838"><ele>4.75</ele><time>2026-04-12T15:57:47.132Z</time></trkpt><trkpt lat="45.6056746" lon="12.3760658"><ele>5.0</ele><time>2026-04-12T15:57:49.147Z</time></trkpt><trkpt lat="45.6057874" lon="12.3760493"><ele>5.0</ele><time>2026-04-12T15:57:51.136Z</time></trkpt><trkpt lat="45.605901" lon="12.3760439"><ele>5.0</ele><time>2026-04-12T15:57:53.12Z</time></trkpt><trkpt lat="45.6060091" lon="12.376054"><ele>5.0</ele><time>2026-04-12T15:57:55.157Z</time></trkpt><trkpt lat="45.6061195" lon="12.3760627"><ele>5.0</ele><time>2026-04-12T15:57:57.128Z</time></trkpt><trkpt lat="45.6062395" lon="12.3760709"><ele>4.8</ele><time>2026-04-12T15:57:59.12Z</time></trkpt><trkpt lat="45.606361" lon="12.3760792"><ele>4.6</ele><time>2026-04-12T15:58:01.126Z</time></trkpt><trkpt lat="45.6064721" lon="12.3760907"><ele>4.4</ele><time>2026-04-12T15:58:03.123Z</time></trkpt><trkpt lat="45.6065736" lon="12.3760938"><ele>4.2</ele><time>2026-04-12T15:58:05.122Z</time></trkpt><trkpt lat="45.6066784" lon="12.3760974"><ele>4.0</ele><time>2026-04-12T15:58:07.114Z</time></trkpt><trkpt lat="45.6067946" lon="12.3761057"><ele>4.0</ele><time>2026-04-12T15:58:09.129Z</time></trkpt><trkpt lat="45.6069132" lon="12.3761121"><ele>4.0</ele><time>2026-04-12T15:58:11.131Z</time></trkpt><trkpt lat="45.6070312" lon="12.3761173"><ele>4.0</ele><time>2026-04-12T15:58:13.134Z</time></trkpt><trkpt lat="45.6071452" lon="12.376128"><ele>4.0</ele><time>2026-04-12T15:58:15.127Z</time></trkpt><trkpt lat="45.6072476" lon="12.3761319"><ele>3.9999999999999996</ele><time>2026-04-12T15:58:17.138Z</time></trkpt><trkpt lat="45.6073484" lon="12.3761349"><ele>4.0</ele><time>2026-04-12T15:58:19.135Z</time></trkpt><trkpt lat="45.6074427" lon="12.3761407"><ele>4.0</ele><time>2026-04-12T15:58:21.128Z</time></trkpt><trkpt lat="45.6075112" lon="12.3761669"><ele>4.0</ele><time>2026-04-12T15:58:23.111Z</time></trkpt><trkpt lat="45.6075718" lon="12.3762252"><ele>3.9999999999999996</ele><time>2026-04-12T15:58:25.121Z</time></trkpt><trkpt lat="45.6076481" lon="12.3762367"><ele>4.0</ele><time>2026-04-12T15:58:27.139Z</time></trkpt><trkpt lat="45.6077433" lon="12.3762418"><ele>4.2</ele><time>2026-04-12T15:58:29.139Z</time></trkpt><trkpt lat="45.6078583" lon="12.3762592"><ele>4.4</ele><time>2026-04-12T15:58:31.15Z</time></trkpt><trkpt lat="45.6079252" lon="12.3762665"><ele>4.6</ele><time>2026-04-12T15:58:32.134Z</time></trkpt><trkpt lat="45.6080398" lon="12.3762704"><ele>4.8</ele><time>2026-04-12T15:58:34.138Z</time></trkpt><trkpt lat="45.6081595" lon="12.3762818"><ele>5.0</ele><time>2026-04-12T15:58:36.122Z</time></trkpt><trkpt lat="45.6082801" lon="12.3762855"><ele>5.0</ele><time>2026-04-12T15:58:38.125Z</time></trkpt><trkpt lat="45.6084014" lon="12.3762942"><ele>5.0</ele><time>2026-04-12T15:58:40.128Z</time></trkpt><trkpt lat="45.6085254" lon="12.3763015"><ele>5.0</ele><time>2026-04-12T15:58:42.143Z</time></trkpt><trkpt lat="45.6086496" lon="12.3763063"><ele>5.0</ele><time>2026-04-12T15:58:44.121Z</time></trkpt><trkpt lat="45.6087126" lon="12.3763099"><ele>5.0</ele><time>2026-04-12T15:58:45.143Z</time></trkpt><trkpt lat="45.6088318" lon="12.3763227"><ele>4.75</ele><time>2026-04-12T15:58:47.11Z</time></trkpt><trkpt lat="45.6089455" lon="12.3763281"><ele>4.5</ele><time>2026-04-12T15:58:49.149Z</time></trkpt><trkpt lat="45.6090602" lon="12.3763298"><ele>4.25</ele><time>2026-04-12T15:58:51.129Z</time></trkpt><trkpt lat="45.6091736" lon="12.3763362"><ele>4.0</ele><time>2026-04-12T15:58:53.121Z</time></trkpt><trkpt lat="45.6092866" lon="12.3763475"><ele>4.0</ele><time>2026-04-12T15:58:55.132Z</time></trkpt><trkpt lat="45.6093981" lon="12.3763535"><ele>4.0</ele><time>2026-04-12T15:58:57.137Z</time></trkpt><trkpt lat="45.6095039" lon="12.3763304"><ele>4.0</ele><time>2026-04-12T15:58:59.144Z</time></trkpt><trkpt lat="45.6096031" lon="12.3763008"><ele>4.0</ele><time>2026-04-12T15:59:01.127Z</time></trkpt><trkpt lat="45.6097018" lon="12.376302"><ele>4.0</ele><time>2026-04-12T15:59:03.142Z</time></trkpt><trkpt lat="45.609794" lon="12.3763219"><ele>4.0</ele><time>2026-04-12T15:59:05.13Z</time></trkpt><trkpt lat="45.6098885" lon="12.376321"><ele>4.0</ele><time>2026-04-12T15:59:07.137Z</time></trkpt><trkpt lat="45.609991" lon="12.3763254"><ele>4.0</ele><time>2026-04-12T15:59:09.128Z</time></trkpt><trkpt lat="45.6101005" lon="12.3763436"><ele>4.0</ele><time>2026-04-12T15:59:11.143Z</time></trkpt><trkpt lat="45.6102119" lon="12.376361"><ele>4.0</ele><time>2026-04-12T15:59:13.129Z</time></trkpt><trkpt lat="45.6103224" lon="12.3763846"><ele>4.4</ele><time>2026-04-12T15:59:15.143Z</time></trkpt><trkpt lat="45.6104306" lon="12.3764196"><ele>4.800000000000001</ele><time>2026-04-12T15:59:17.129Z</time></trkpt><trkpt lat="45.6105343" lon="12.3764417"><ele>5.199999999999999</ele><time>2026-04-12T15:59:19.131Z</time></trkpt><trkpt lat="45.6106329" lon="12.3764757"><ele>5.6</ele><time>2026-04-12T15:59:21.14Z</time></trkpt><trkpt lat="45.6107317" lon="12.3765078"><ele>6.0</ele><time>2026-04-12T15:59:23.148Z</time></trkpt><trkpt lat="45.610825" lon="12.376534"><ele>6.0</ele><time>2026-04-12T15:59:25.139Z</time></trkpt><trkpt lat="45.6109144" lon="12.3765625"><ele>6.0</ele><time>2026-04-12T15:59:27.121Z</time></trkpt><trkpt lat="45.611002" lon="12.3765838"><ele>6.0</ele><time>2026-04-12T15:59:29.128Z</time></trkpt><trkpt lat="45.6110895" lon="12.3765984"><ele>6.0</ele><time>2026-04-12T15:59:31.15Z</time></trkpt><trkpt lat="45.6111734" lon="12.3765857"><ele>6.0</ele><time>2026-04-12T15:59:33.138Z</time></trkpt><trkpt lat="45.611279" lon="12.3765909"><ele>6.199999999999999</ele><time>2026-04-12T15:59:35.133Z</time></trkpt><trkpt lat="45.6113928" lon="12.3766067"><ele>6.3999999999999995</ele><time>2026-04-12T15:59:37.14Z</time></trkpt><trkpt lat="45.611516" lon="12.3766159"><ele>6.6</ele><time>2026-04-12T15:59:39.146Z</time></trkpt><trkpt lat="45.6116395" lon="12.3766366"><ele>6.8</ele><time>2026-04-12T15:59:41.141Z</time></trkpt><trkpt lat="45.6117024" lon="12.3766418"><ele>7.0</ele><time>2026-04-12T15:59:42.134Z</time></trkpt><trkpt lat="45.6117674" lon="12.3766462"><ele>7.0</ele><time>2026-04-12T15:59:43.118Z</time></trkpt><trkpt lat="45.6118327" lon="12.3766489"><ele>7.0</ele><time>2026-04-12T15:59:44.135Z</time></trkpt><trkpt lat="45.6118986" lon="12.3766556"><ele>7.0</ele><time>2026-04-12T15:59:45.12Z</time></trkpt><trkpt lat="45.6119642" lon="12.3766613"><ele>7.0</ele><time>2026-04-12T15:59:46.13Z</time></trkpt><trkpt lat="45.6120294" lon="12.3766676"><ele>7.0</ele><time>2026-04-12T15:59:47.136Z</time></trkpt><trkpt lat="45.6120961" lon="12.3766703"><ele>7.0</ele><time>2026-04-12T15:59:48.136Z</time></trkpt><trkpt lat="45.6121615" lon="12.3766752"><ele>7.0</ele><time>2026-04-12T15:59:49.131Z</time></trkpt><trkpt lat="45.6122247" lon="12.3766804"><ele>6.8</ele><time>2026-04-12T15:59:50.132Z</time></trkpt><trkpt lat="45.6123487" lon="12.3766967"><ele>6.6</ele><time>2026-04-12T15:59:52.137Z</time></trkpt><trkpt lat="45.6124716" lon="12.3767043"><ele>6.3999999999999995</ele><time>2026-04-12T15:59:54.136Z</time></trkpt><trkpt lat="45.6125919" lon="12.3767369"><ele>6.199999999999999</ele><time>2026-04-12T15:59:56.132Z</time></trkpt><trkpt lat="45.6126526" lon="12.3767619"><ele>6.0</ele><time>2026-04-12T15:59:57.138Z</time></trkpt><trkpt lat="45.6127112" lon="12.3767967"><ele>6.0</ele><time>2026-04-12T15:59:58.149Z</time></trkpt><trkpt lat="45.6127634" lon="12.3768497"><ele>6.0</ele><time>2026-04-12T15:59:59.122Z</time></trkpt><trkpt lat="45.6128686" lon="12.3769399"><ele>6.0</ele><time>2026-04-12T16:00:01.133Z</time></trkpt><trkpt lat="45.6129593" lon="12.3770569"><ele>6.0</ele><time>2026-04-12T16:00:03.116Z</time></trkpt><trkpt lat="45.6130103" lon="12.3771104"><ele>6.0</ele><time>2026-04-12T16:00:04.132Z</time></trkpt><trkpt lat="45.6130944" lon="12.3772418"><ele>5.5</ele><time>2026-04-12T16:00:06.122Z</time></trkpt><trkpt lat="45.6131701" lon="12.3773781"><ele>5.0</ele><time>2026-04-12T16:00:08.139Z</time></trkpt><trkpt lat="45.6132479" lon="12.3775034"><ele>4.5</ele><time>2026-04-12T16:00:10.121Z</time></trkpt><trkpt lat="45.6133272" lon="12.3776217"><ele>4.0</ele><time>2026-04-12T16:00:12.134Z</time></trkpt><trkpt lat="45.6134052" lon="12.3777474"><ele>4.0</ele><time>2026-04-12T16:00:14.132Z</time></trkpt><trkpt lat="45.6134916" lon="12.3778668"><ele>4.0</ele><time>2026-04-12T16:00:16.132Z</time></trkpt><trkpt lat="45.6135799" lon="12.3779851"><ele>4.0</ele><time>2026-04-12T16:00:18.126Z</time></trkpt><trkpt lat="45.613665" lon="12.3781143"><ele>4.0</ele><time>2026-04-12T16:00:20.13Z</time></trkpt><trkpt lat="45.6136919" lon="12.3781964"><ele>4.0</ele><time>2026-04-12T16:00:21.126Z</time></trkpt><trkpt lat="45.6137212" lon="12.3782801"><ele>4.5</ele><time>2026-04-12T16:00:22.124Z</time></trkpt><trkpt lat="45.6138128" lon="12.3783949"><ele>5.0</ele><time>2026-04-12T16:00:24.132Z</time></trkpt><trkpt lat="45.6139251" lon="12.378389"><ele>5.5</ele><time>2026-04-12T16:00:26.133Z</time></trkpt><trkpt lat="45.6140421" lon="12.3783422"><ele>6.0</ele><time>2026-04-12T16:00:28.132Z</time></trkpt><trkpt lat="45.6141682" lon="12.3783679"><ele>6.0</ele><time>2026-04-12T16:00:30.137Z</time></trkpt><trkpt lat="45.6142325" lon="12.3783833"><ele>6.0</ele><time>2026-04-12T16:00:31.13Z</time></trkpt><trkpt lat="45.6142953" lon="12.3784022"><ele>6.0</ele><time>2026-04-12T16:00:32.143Z</time></trkpt><trkpt lat="45.614358" lon="12.3784196"><ele>6.0</ele><time>2026-04-12T16:00:33.13Z</time></trkpt><trkpt lat="45.6144789" lon="12.3784471"><ele>6.0</ele><time>2026-04-12T16:00:35.13Z</time></trkpt><trkpt lat="45.6145963" lon="12.3784841"><ele>6.0</ele><time>2026-04-12T16:00:37.121Z</time></trkpt><trkpt lat="45.6147153" lon="12.3785087"><ele>6.199999999999999</ele><time>2026-04-12T16:00:39.122Z</time></trkpt><trkpt lat="45.6148327" lon="12.3785351"><ele>6.3999999999999995</ele><time>2026-04-12T16:00:41.118Z</time></trkpt><trkpt lat="45.6149458" lon="12.3785549"><ele>6.6</ele><time>2026-04-12T16:00:43.122Z</time></trkpt><trkpt lat="45.6150449" lon="12.378561"><ele>6.8</ele><time>2026-04-12T16:00:45.143Z</time></trkpt><trkpt lat="45.6151296" lon="12.3785126"><ele>7.0</ele><time>2026-04-12T16:00:47.135Z</time></trkpt><trkpt lat="45.6152087" lon="12.3784656"><ele>7.0</ele><time>2026-04-12T16:00:49.125Z</time></trkpt><trkpt lat="45.6152829" lon="12.3784163"><ele>6.999999999999999</ele><time>2026-04-12T16:00:51.144Z</time></trkpt><trkpt lat="45.615339" lon="12.3783385"><ele>6.999999999999999</ele><time>2026-04-12T16:00:53.14Z</time></trkpt><trkpt lat="45.6154151" lon="12.3782556"><ele>7.0</ele><time>2026-04-12T16:00:55.146Z</time></trkpt><trkpt lat="45.6155127" lon="12.3781857"><ele>7.0</ele><time>2026-04-12T16:00:57.119Z</time></trkpt><trkpt lat="45.6156185" lon="12.3781064"><ele>6.5</ele><time>2026-04-12T16:00:59.132Z</time></trkpt><trkpt lat="45.6157153" lon="12.3780105"><ele>6.0</ele><time>2026-04-12T16:01:01.124Z</time></trkpt><trkpt lat="45.6158151" lon="12.3779251"><ele>5.5</ele><time>2026-04-12T16:01:03.12Z</time></trkpt><trkpt lat="45.6159088" lon="12.3778272"><ele>5.0</ele><time>2026-04-12T16:01:05.12Z</time></trkpt><trkpt lat="45.616004" lon="12.3777352"><ele>5.0</ele><time>2026-04-12T16:01:07.134Z</time></trkpt><trkpt lat="45.6161043" lon="12.3776564"><ele>5.0</ele><time>2026-04-12T16:01:09.136Z</time></trkpt><trkpt lat="45.6161987" lon="12.3775635"><ele>5.0</ele><time>2026-04-12T16:01:11.133Z</time></trkpt><trkpt lat="45.6162905" lon="12.3774621"><ele>5.0</ele><time>2026-04-12T16:01:13.121Z</time></trkpt><trkpt lat="45.6163814" lon="12.3773656"><ele>5.2</ele><time>2026-04-12T16:01:15.132Z</time></trkpt><trkpt lat="45.6164665" lon="12.377272"><ele>5.4</ele><time>2026-04-12T16:01:17.121Z</time></trkpt><trkpt lat="45.6165441" lon="12.3771813"><ele>5.6</ele><time>2026-04-12T16:01:19.128Z</time></trkpt><trkpt lat="45.6166185" lon="12.3771008"><ele>5.8</ele><time>2026-04-12T16:01:21.122Z</time></trkpt><trkpt lat="45.6166926" lon="12.3770269"><ele>6.0</ele><time>2026-04-12T16:01:23.117Z</time></trkpt><trkpt lat="45.6167721" lon="12.3769617"><ele>6.0</ele><time>2026-04-12T16:01:25.145Z</time></trkpt><trkpt lat="45.6168614" lon="12.376907"><ele>6.0</ele><time>2026-04-12T16:01:27.12Z</time></trkpt><trkpt lat="45.6169683" lon="12.3768845"><ele>6.0</ele><time>2026-04-12T16:01:29.126Z</time></trkpt><trkpt lat="45.6170809" lon="12.3768813"><ele>6.0</ele><time>2026-04-12T16:01:31.132Z</time></trkpt><trkpt lat="45.6171931" lon="12.3768998"><ele>6.0</ele><time>2026-04-12T16:01:33.135Z</time></trkpt><trkpt lat="45.6173093" lon="12.3769012"><ele>6.0</ele><time>2026-04-12T16:01:35.127Z</time></trkpt><trkpt lat="45.6174267" lon="12.3769008"><ele>6.0</ele><time>2026-04-12T16:01:37.13Z</time></trkpt><trkpt lat="45.6175413" lon="12.3769084"><ele>6.0</ele><time>2026-04-12T16:01:39.133Z</time></trkpt><trkpt lat="45.6176511" lon="12.3769211"><ele>6.0</ele><time>2026-04-12T16:01:41.127Z</time></trkpt><trkpt lat="45.6177515" lon="12.3769261"><ele>6.0</ele><time>2026-04-12T16:01:43.12Z</time></trkpt><trkpt lat="45.6178445" lon="12.3769287"><ele>6.4</ele><time>2026-04-12T16:01:45.154Z</time></trkpt><trkpt lat="45.6179256" lon="12.3769364"><ele>6.8</ele><time>2026-04-12T16:01:47.146Z</time></trkpt><trkpt lat="45.6180111" lon="12.3769397"><ele>7.200000000000001</ele><time>2026-04-12T16:01:49.116Z</time></trkpt><trkpt lat="45.6181032" lon="12.3769391"><ele>7.6000000000000005</ele><time>2026-04-12T16:01:51.133Z</time></trkpt><trkpt lat="45.6182023" lon="12.3769418"><ele>8.0</ele><time>2026-04-12T16:01:53.13Z</time></trkpt><trkpt lat="45.6183002" lon="12.3769364"><ele>8.0</ele><time>2026-04-12T16:01:55.121Z</time></trkpt><trkpt lat="45.6184021" lon="12.3769279"><ele>8.0</ele><time>2026-04-12T16:01:57.112Z</time></trkpt><trkpt lat="45.6185083" lon="12.3769293"><ele>8.0</ele><time>2026-04-12T16:01:59.133Z</time></trkpt><trkpt lat="45.6186155" lon="12.3769318"><ele>8.0</ele><time>2026-04-12T16:02:01.127Z</time></trkpt><trkpt lat="45.6187215" lon="12.3769297"><ele>8.0</ele><time>2026-04-12T16:02:03.146Z</time></trkpt><trkpt lat="45.6188272" lon="12.3769275"><ele>7.800000000000001</ele><time>2026-04-12T16:02:05.127Z</time></trkpt><trkpt lat="45.6189379" lon="12.3769326"><ele>7.6000000000000005</ele><time>2026-04-12T16:02:07.135Z</time></trkpt><trkpt lat="45.6190472" lon="12.3769432"><ele>7.3999999999999995</ele><time>2026-04-12T16:02:09.123Z</time></trkpt><trkpt lat="45.6191584" lon="12.3769563"><ele>7.199999999999999</ele><time>2026-04-12T16:02:11.136Z</time></trkpt><trkpt lat="45.6192729" lon="12.3769701"><ele>7.0</ele><time>2026-04-12T16:02:13.129Z</time></trkpt><trkpt lat="45.6193827" lon="12.3770038"><ele>6.8</ele><time>2026-04-12T16:02:15.131Z</time></trkpt><trkpt lat="45.619495" lon="12.3770309"><ele>6.6</ele><time>2026-04-12T16:02:17.139Z</time></trkpt><trkpt lat="45.619606" lon="12.3770681"><ele>6.3999999999999995</ele><time>2026-04-12T16:02:19.137Z</time></trkpt><trkpt lat="45.6197147" lon="12.3771088"><ele>6.199999999999999</ele><time>2026-04-12T16:02:21.145Z</time></trkpt><trkpt lat="45.6198176" lon="12.37715"><ele>6.0</ele><time>2026-04-12T16:02:23.123Z</time></trkpt><trkpt lat="45.6199173" lon="12.3771746"><ele>6.0</ele><time>2026-04-12T16:02:25.135Z</time></trkpt><trkpt lat="45.6200079" lon="12.3771999"><ele>6.0</ele><time>2026-04-12T16:02:27.118Z</time></trkpt><trkpt lat="45.6201012" lon="12.3772198"><ele>6.0</ele><time>2026-04-12T16:02:29.147Z</time></trkpt><trkpt lat="45.6202024" lon="12.377226"><ele>6.0</ele><time>2026-04-12T16:02:31.115Z</time></trkpt><trkpt lat="45.6203126" lon="12.3772408"><ele>6.0</ele><time>2026-04-12T16:02:33.132Z</time></trkpt><trkpt lat="45.6204258" lon="12.3772539"><ele>6.0</ele><time>2026-04-12T16:02:35.132Z</time></trkpt><trkpt lat="45.6205376" lon="12.3772715"><ele>6.0</ele><time>2026-04-12T16:02:37.118Z</time></trkpt><trkpt lat="45.6206431" lon="12.3772933"><ele>6.0</ele><time>2026-04-12T16:02:39.132Z</time></trkpt><trkpt lat="45.6207511" lon="12.377306"><ele>6.0</ele><time>2026-04-12T16:02:41.125Z</time></trkpt><trkpt lat="45.6208588" lon="12.3773145"><ele>6.0</ele><time>2026-04-12T16:02:43.135Z</time></trkpt><trkpt lat="45.62097" lon="12.3773227"><ele>6.0</ele><time>2026-04-12T16:02:45.119Z</time></trkpt><trkpt lat="45.6210829" lon="12.3773172"><ele>6.0</ele><time>2026-04-12T16:02:47.135Z</time></trkpt><trkpt lat="45.6211911" lon="12.3773035"><ele>6.0</ele><time>2026-04-12T16:02:49.153Z</time></trkpt><trkpt lat="45.6212937" lon="12.3772752"><ele>6.0</ele><time>2026-04-12T16:02:51.131Z</time></trkpt><trkpt lat="45.6213749" lon="12.3772421"><ele>6.0</ele><time>2026-04-12T16:02:53.14Z</time></trkpt><trkpt lat="45.6214749" lon="12.3771911"><ele>6.199999999999999</ele><time>2026-04-12T16:02:55.132Z</time></trkpt><trkpt lat="45.6215646" lon="12.3771385"><ele>6.3999999999999995</ele><time>2026-04-12T16:02:57.135Z</time></trkpt><trkpt lat="45.621657" lon="12.3770681"><ele>6.6</ele><time>2026-04-12T16:02:59.14Z</time></trkpt><trkpt lat="45.6217471" lon="12.3769854"><ele>6.8</ele><time>2026-04-12T16:03:01.112Z</time></trkpt><trkpt lat="45.6218356" lon="12.3768929"><ele>7.0</ele><time>2026-04-12T16:03:03.153Z</time></trkpt><trkpt lat="45.6219215" lon="12.3767887"><ele>6.8</ele><time>2026-04-12T16:03:05.14Z</time></trkpt><trkpt lat="45.6220157" lon="12.3767"><ele>6.6</ele><time>2026-04-12T16:03:07.118Z</time></trkpt><trkpt lat="45.6221042" lon="12.3766105"><ele>6.3999999999999995</ele><time>2026-04-12T16:03:09.119Z</time></trkpt><trkpt lat="45.6221905" lon="12.376528"><ele>6.199999999999999</ele><time>2026-04-12T16:03:11.146Z</time></trkpt><trkpt lat="45.6222835" lon="12.3764394"><ele>6.0</ele><time>2026-04-12T16:03:13.123Z</time></trkpt><trkpt lat="45.622356" lon="12.376365"><ele>6.4</ele><time>2026-04-12T16:03:15.132Z</time></trkpt><trkpt lat="45.6224254" lon="12.376294"><ele>6.8</ele><time>2026-04-12T16:03:17.125Z</time></trkpt><trkpt lat="45.6225165" lon="12.3762193"><ele>7.200000000000001</ele><time>2026-04-12T16:03:19.118Z</time></trkpt><trkpt lat="45.6226129" lon="12.3761575"><ele>7.6000000000000005</ele><time>2026-04-12T16:03:21.139Z</time></trkpt><trkpt lat="45.6227159" lon="12.3761061"><ele>8.0</ele><time>2026-04-12T16:03:23.124Z</time></trkpt><trkpt lat="45.6228028" lon="12.376071"><ele>7.6000000000000005</ele><time>2026-04-12T16:03:25.134Z</time></trkpt><trkpt lat="45.622887" lon="12.3760432"><ele>7.200000000000001</ele><time>2026-04-12T16:03:27.115Z</time></trkpt><trkpt lat="45.6229759" lon="12.3760282"><ele>6.8</ele><time>2026-04-12T16:03:29.133Z</time></trkpt><trkpt lat="45.6230567" lon="12.3760178"><ele>6.4</ele><time>2026-04-12T16:03:31.119Z</time></trkpt><trkpt lat="45.6231612" lon="12.3760038"><ele>6.0</ele><time>2026-04-12T16:03:33.123Z</time></trkpt><trkpt lat="45.6232733" lon="12.3759801"><ele>6.0</ele><time>2026-04-12T16:03:35.118Z</time></trkpt><trkpt lat="45.6233815" lon="12.375948"><ele>6.0</ele><time>2026-04-12T16:03:37.122Z</time></trkpt><trkpt lat="45.6234883" lon="12.3759258"><ele>6.0</ele><time>2026-04-12T16:03:39.123Z</time></trkpt><trkpt lat="45.6235949" lon="12.3759006"><ele>6.0</ele><time>2026-04-12T16:03:41.118Z</time></trkpt><trkpt lat="45.6236964" lon="12.3758809"><ele>6.0</ele><time>2026-04-12T16:03:43.124Z</time></trkpt><trkpt lat="45.6238035" lon="12.3758624"><ele>6.199999999999999</ele><time>2026-04-12T16:03:45.122Z</time></trkpt><trkpt lat="45.6239196" lon="12.375835"><ele>6.3999999999999995</ele><time>2026-04-12T16:03:47.118Z</time></trkpt><trkpt lat="45.6240338" lon="12.3758172"><ele>6.6</ele><time>2026-04-12T16:03:49.127Z</time></trkpt><trkpt lat="45.6241424" lon="12.3757881"><ele>6.8</ele><time>2026-04-12T16:03:51.148Z</time></trkpt><trkpt lat="45.6242441" lon="12.3757504"><ele>7.0</ele><time>2026-04-12T16:03:53.138Z</time></trkpt><trkpt lat="45.6243417" lon="12.3757202"><ele>7.0</ele><time>2026-04-12T16:03:55.129Z</time></trkpt><trkpt lat="45.6244458" lon="12.3756925"><ele>6.999999999999999</ele><time>2026-04-12T16:03:57.13Z</time></trkpt><trkpt lat="45.6245542" lon="12.3756532"><ele>6.999999999999999</ele><time>2026-04-12T16:03:59.122Z</time></trkpt><trkpt lat="45.6246547" lon="12.3756179"><ele>7.0</ele><time>2026-04-12T16:04:01.113Z</time></trkpt><trkpt lat="45.624761" lon="12.3756201"><ele>7.0</ele><time>2026-04-12T16:04:03.13Z</time></trkpt><trkpt lat="45.6248583" lon="12.3755943"><ele>7.0</ele><time>2026-04-12T16:04:05.132Z</time></trkpt><trkpt lat="45.6249616" lon="12.3755776"><ele>6.999999999999999</ele><time>2026-04-12T16:04:07.13Z</time></trkpt><trkpt lat="45.6250462" lon="12.3755615"><ele>6.999999999999999</ele><time>2026-04-12T16:04:09.139Z</time></trkpt><trkpt lat="45.6251418" lon="12.3755461"><ele>7.0</ele><time>2026-04-12T16:04:11.121Z</time></trkpt><trkpt lat="45.6252073" lon="12.3755281"><ele>7.0</ele><time>2026-04-12T16:04:12.135Z</time></trkpt><trkpt lat="45.6253093" lon="12.3755009"><ele>7.166666666666667</ele><time>2026-04-12T16:04:14.124Z</time></trkpt><trkpt lat="45.6254048" lon="12.3754738"><ele>7.333333333333334</ele><time>2026-04-12T16:04:16.122Z</time></trkpt><trkpt lat="45.6254994" lon="12.3754496"><ele>7.5</ele><time>2026-04-12T16:04:18.126Z</time></trkpt><trkpt lat="45.6255748" lon="12.3754284"><ele>7.666666666666666</ele><time>2026-04-12T16:04:20.136Z</time></trkpt><trkpt lat="45.6256399" lon="12.3754201"><ele>7.833333333333333</ele><time>2026-04-12T16:04:22.152Z</time></trkpt><trkpt lat="45.625712" lon="12.3754066"><ele>8.0</ele><time>2026-04-12T16:04:24.129Z</time></trkpt><trkpt lat="45.6257892" lon="12.3753891"><ele>8.0</ele><time>2026-04-12T16:04:27.134Z</time></trkpt><trkpt lat="45.6258574" lon="12.375381"><ele>7.999999999999999</ele><time>2026-04-12T16:04:30.133Z</time></trkpt><trkpt lat="45.6259204" lon="12.375371"><ele>8.0</ele><time>2026-04-12T16:04:32.142Z</time></trkpt><trkpt lat="45.625997" lon="12.3753539"><ele>8.0</ele><time>2026-04-12T16:04:35.125Z</time></trkpt><trkpt lat="45.6260562" lon="12.3753955"><ele>7.999999999999999</ele><time>2026-04-12T16:04:37.117Z</time></trkpt><trkpt lat="45.6260672" lon="12.3755109"><ele>8.0</ele><time>2026-04-12T16:04:41.134Z</time></trkpt><trkpt lat="45.6260489" lon="12.375628"><ele>8.0</ele><time>2026-04-12T16:04:43.131Z</time></trkpt><trkpt lat="45.6260331" lon="12.3757422"><ele>8.0</ele><time>2026-04-12T16:04:45.126Z</time></trkpt><trkpt lat="45.6260268" lon="12.3758695"><ele>8.0</ele><time>2026-04-12T16:04:47.129Z</time></trkpt><trkpt lat="45.6260114" lon="12.3760191"><ele>8.0</ele><time>2026-04-12T16:04:49.115Z</time></trkpt><trkpt lat="45.6259938" lon="12.3761625"><ele>8.0</ele><time>2026-04-12T16:04:51.131Z</time></trkpt><trkpt lat="45.6259753" lon="12.3763013"><ele>8.0</ele><time>2026-04-12T16:04:53.126Z</time></trkpt><trkpt lat="45.6259646" lon="12.3764403"><ele>8.0</ele><time>2026-04-12T16:04:55.128Z</time></trkpt><trkpt lat="45.6259574" lon="12.3765902"><ele>8.0</ele><time>2026-04-12T16:04:57.145Z</time></trkpt><trkpt lat="45.6259466" lon="12.3767141"><ele>8.0</ele><time>2026-04-12T16:04:59.118Z</time></trkpt><trkpt lat="45.6259494" lon="12.3768401"><ele>8.0</ele><time>2026-04-12T16:05:01.125Z</time></trkpt><trkpt lat="45.6259653" lon="12.3769799"><ele>8.0</ele><time>2026-04-12T16:05:03.133Z</time></trkpt><trkpt lat="45.6259834" lon="12.3771215"><ele>7.6000000000000005</ele><time>2026-04-12T16:05:05.112Z</time></trkpt><trkpt lat="45.6260046" lon="12.3772551"><ele>7.200000000000001</ele><time>2026-04-12T16:05:07.124Z</time></trkpt><trkpt lat="45.6260263" lon="12.3774054"><ele>6.8</ele><time>2026-04-12T16:05:09.13Z</time></trkpt><trkpt lat="45.6260485" lon="12.3775497"><ele>6.4</ele><time>2026-04-12T16:05:11.129Z</time></trkpt><trkpt lat="45.6260713" lon="12.3776805"><ele>6.0</ele><time>2026-04-12T16:05:13.125Z</time></trkpt><trkpt lat="45.6260956" lon="12.3778325"><ele>6.0</ele><time>2026-04-12T16:05:15.123Z</time></trkpt><trkpt lat="45.6261101" lon="12.3779619"><ele>6.0</ele><time>2026-04-12T16:05:17.128Z</time></trkpt><trkpt lat="45.6261256" lon="12.3780995"><ele>6.0</ele><time>2026-04-12T16:05:19.122Z</time></trkpt><trkpt lat="45.6261425" lon="12.3782498"><ele>6.0</ele><time>2026-04-12T16:05:21.13Z</time></trkpt><trkpt lat="45.6261526" lon="12.3783896"><ele>6.0</ele><time>2026-04-12T16:05:23.116Z</time></trkpt><trkpt lat="45.6261566" lon="12.378517"><ele>6.0</ele><time>2026-04-12T16:05:25.131Z</time></trkpt><trkpt lat="45.6261695" lon="12.3786422"><ele>6.0</ele><time>2026-04-12T16:05:27.118Z</time></trkpt><trkpt lat="45.6261872" lon="12.3787583"><ele>6.0</ele><time>2026-04-12T16:05:29.122Z</time></trkpt><trkpt lat="45.6262096" lon="12.3788853"><ele>6.0</ele><time>2026-04-12T16:05:31.13Z</time></trkpt><trkpt lat="45.6262242" lon="12.3790167"><ele>6.0</ele><time>2026-04-12T16:05:33.135Z</time></trkpt><trkpt lat="45.6262303" lon="12.3791437"><ele>6.0</ele><time>2026-04-12T16:05:35.121Z</time></trkpt><trkpt lat="45.626237" lon="12.379275"><ele>6.0</ele><time>2026-04-12T16:05:37.13Z</time></trkpt><trkpt lat="45.6262392" lon="12.3794062"><ele>6.0</ele><time>2026-04-12T16:05:39.131Z</time></trkpt><trkpt lat="45.6262471" lon="12.3795489"><ele>6.0</ele><time>2026-04-12T16:05:41.122Z</time></trkpt><trkpt lat="45.6262562" lon="12.3796947"><ele>6.0</ele><time>2026-04-12T16:05:43.125Z</time></trkpt><trkpt lat="45.626266" lon="12.3798374"><ele>6.0</ele><time>2026-04-12T16:05:45.117Z</time></trkpt><trkpt lat="45.6262756" lon="12.3799816"><ele>6.199999999999999</ele><time>2026-04-12T16:05:47.141Z</time></trkpt><trkpt lat="45.6262801" lon="12.3801143"><ele>6.3999999999999995</ele><time>2026-04-12T16:05:49.138Z</time></trkpt><trkpt lat="45.6262878" lon="12.3802591"><ele>6.6</ele><time>2026-04-12T16:05:51.117Z</time></trkpt><trkpt lat="45.6262985" lon="12.3804071"><ele>6.8</ele><time>2026-04-12T16:05:53.132Z</time></trkpt><trkpt lat="45.6263107" lon="12.380563"><ele>7.0</ele><time>2026-04-12T16:05:55.126Z</time></trkpt><trkpt lat="45.6263213" lon="12.3807018"><ele>7.0</ele><time>2026-04-12T16:05:57.127Z</time></trkpt><trkpt lat="45.6263237" lon="12.3808445"><ele>6.999999999999999</ele><time>2026-04-12T16:05:59.128Z</time></trkpt><trkpt lat="45.6263274" lon="12.3809953"><ele>6.999999999999999</ele><time>2026-04-12T16:06:01.143Z</time></trkpt><trkpt lat="45.6263349" lon="12.3811462"><ele>7.0</ele><time>2026-04-12T16:06:03.119Z</time></trkpt><trkpt lat="45.6263314" lon="12.3812899"><ele>7.0</ele><time>2026-04-12T16:06:05.154Z</time></trkpt><trkpt lat="45.6263178" lon="12.3814404"><ele>7.0</ele><time>2026-04-12T16:06:07.135Z</time></trkpt><trkpt lat="45.6262998" lon="12.3815865"><ele>6.999999999999999</ele><time>2026-04-12T16:06:09.152Z</time></trkpt><trkpt lat="45.6262749" lon="12.3817339"><ele>6.999999999999999</ele><time>2026-04-12T16:06:11.128Z</time></trkpt><trkpt lat="45.6262418" lon="12.381882"><ele>7.0</ele><time>2026-04-12T16:06:13.138Z</time></trkpt><trkpt lat="45.6261986" lon="12.3820146"><ele>7.0</ele><time>2026-04-12T16:06:15.128Z</time></trkpt><trkpt lat="45.6261531" lon="12.382158"><ele>6.3999999999999995</ele><time>2026-04-12T16:06:17.119Z</time></trkpt><trkpt lat="45.6261245" lon="12.3822839"><ele>5.799999999999999</ele><time>2026-04-12T16:06:19.125Z</time></trkpt><trkpt lat="45.6260889" lon="12.3824179"><ele>5.2</ele><time>2026-04-12T16:06:21.119Z</time></trkpt><trkpt lat="45.6260504" lon="12.382541"><ele>4.6</ele><time>2026-04-12T16:06:23.135Z</time></trkpt><trkpt lat="45.6260065" lon="12.3826714"><ele>4.0</ele><time>2026-04-12T16:06:25.131Z</time></trkpt><trkpt lat="45.6259647" lon="12.3828003"><ele>4.0</ele><time>2026-04-12T16:06:27.129Z</time></trkpt><trkpt lat="45.6259309" lon="12.3829108"><ele>4.0</ele><time>2026-04-12T16:06:29.121Z</time></trkpt><trkpt lat="45.6258921" lon="12.3830209"><ele>4.0</ele><time>2026-04-12T16:06:31.128Z</time></trkpt><trkpt lat="45.6258557" lon="12.3831448"><ele>4.0</ele><time>2026-04-12T16:06:33.142Z</time></trkpt><trkpt lat="45.6258171" lon="12.3832863"><ele>4.0</ele><time>2026-04-12T16:06:35.144Z</time></trkpt><trkpt lat="45.625781" lon="12.3834174"><ele>3.9999999999999996</ele><time>2026-04-12T16:06:37.123Z</time></trkpt><trkpt lat="45.6257503" lon="12.3835268"><ele>4.0</ele><time>2026-04-12T16:06:39.132Z</time></trkpt><trkpt lat="45.6257246" lon="12.3836325"><ele>4.0</ele><time>2026-04-12T16:06:41.128Z</time></trkpt><trkpt lat="45.6257008" lon="12.3837409"><ele>4.0</ele><time>2026-04-12T16:06:43.124Z</time></trkpt><trkpt lat="45.6256612" lon="12.3838535"><ele>3.9999999999999996</ele><time>2026-04-12T16:06:45.139Z</time></trkpt><trkpt lat="45.6256207" lon="12.3839885"><ele>4.0</ele><time>2026-04-12T16:06:47.129Z</time></trkpt><trkpt lat="45.6255803" lon="12.3841265"><ele>4.0</ele><time>2026-04-12T16:06:49.121Z</time></trkpt><trkpt lat="45.6255361" lon="12.3842627"><ele>4.0</ele><time>2026-04-12T16:06:51.132Z</time></trkpt><trkpt lat="45.6254942" lon="12.3843945"><ele>4.0</ele><time>2026-04-12T16:06:53.134Z</time></trkpt><trkpt lat="45.6254513" lon="12.38454"><ele>4.0</ele><time>2026-04-12T16:06:55.141Z</time></trkpt><trkpt lat="45.6254115" lon="12.3846757"><ele>4.0</ele><time>2026-04-12T16:06:57.131Z</time></trkpt><trkpt lat="45.6253694" lon="12.3848142"><ele>4.0</ele><time>2026-04-12T16:06:59.122Z</time></trkpt><trkpt lat="45.6253308" lon="12.3849544"><ele>4.0</ele><time>2026-04-12T16:07:01.129Z</time></trkpt><trkpt lat="45.6252929" lon="12.3850794"><ele>4.0</ele><time>2026-04-12T16:07:03.131Z</time></trkpt><trkpt lat="45.6252534" lon="12.3852142"><ele>4.0</ele><time>2026-04-12T16:07:05.134Z</time></trkpt><trkpt lat="45.6252098" lon="12.3853497"><ele>4.0</ele><time>2026-04-12T16:07:07.129Z</time></trkpt><trkpt lat="45.6251696" lon="12.385479"><ele>4.4</ele><time>2026-04-12T16:07:09.12Z</time></trkpt><trkpt lat="45.6251332" lon="12.3856046"><ele>4.800000000000001</ele><time>2026-04-12T16:07:11.15Z</time></trkpt><trkpt lat="45.6250945" lon="12.3857458"><ele>5.199999999999999</ele><time>2026-04-12T16:07:13.13Z</time></trkpt><trkpt lat="45.6250532" lon="12.3858865"><ele>5.6</ele><time>2026-04-12T16:07:15.125Z</time></trkpt><trkpt lat="45.6250155" lon="12.3860321"><ele>6.0</ele><time>2026-04-12T16:07:17.139Z</time></trkpt><trkpt lat="45.6249697" lon="12.3861673"><ele>6.0</ele><time>2026-04-12T16:07:19.14Z</time></trkpt><trkpt lat="45.6249288" lon="12.3863106"><ele>6.0</ele><time>2026-04-12T16:07:21.126Z</time></trkpt><trkpt lat="45.6248919" lon="12.3864557"><ele>6.0</ele><time>2026-04-12T16:07:23.148Z</time></trkpt><trkpt lat="45.6248531" lon="12.3866011"><ele>6.0</ele><time>2026-04-12T16:07:25.126Z</time></trkpt><trkpt lat="45.6248133" lon="12.3867422"><ele>6.0</ele><time>2026-04-12T16:07:27.117Z</time></trkpt><trkpt lat="45.624775" lon="12.3868651"><ele>6.0</ele><time>2026-04-12T16:07:29.12Z</time></trkpt><trkpt lat="45.6247324" lon="12.3870049"><ele>6.0</ele><time>2026-04-12T16:07:31.146Z</time></trkpt><trkpt lat="45.6246949" lon="12.3871443"><ele>6.0</ele><time>2026-04-12T16:07:33.123Z</time></trkpt><trkpt lat="45.6246508" lon="12.3872905"><ele>6.0</ele><time>2026-04-12T16:07:35.119Z</time></trkpt><trkpt lat="45.6246038" lon="12.3874368"><ele>6.0</ele><time>2026-04-12T16:07:37.124Z</time></trkpt><trkpt lat="45.6245642" lon="12.3875742"><ele>6.0</ele><time>2026-04-12T16:07:39.128Z</time></trkpt><trkpt lat="45.624523" lon="12.387714"><ele>6.0</ele><time>2026-04-12T16:07:41.13Z</time></trkpt><trkpt lat="45.6244816" lon="12.3878579"><ele>6.0</ele><time>2026-04-12T16:07:43.129Z</time></trkpt><trkpt lat="45.624443" lon="12.3879929"><ele>6.0</ele><time>2026-04-12T16:07:45.135Z</time></trkpt><trkpt lat="45.6244026" lon="12.3881226"><ele>6.0</ele><time>2026-04-12T16:07:47.122Z</time></trkpt><trkpt lat="45.6243623" lon="12.3882632"><ele>6.0</ele><time>2026-04-12T16:07:49.129Z</time></trkpt><trkpt lat="45.6243248" lon="12.388386"><ele>6.0</ele><time>2026-04-12T16:07:51.143Z</time></trkpt><trkpt lat="45.624284" lon="12.3885318"><ele>6.0</ele><time>2026-04-12T16:07:53.135Z</time></trkpt><trkpt lat="45.6242421" lon="12.3886817"><ele>6.0</ele><time>2026-04-12T16:07:55.122Z</time></trkpt><trkpt lat="45.624202" lon="12.3888352"><ele>6.0</ele><time>2026-04-12T16:07:57.132Z</time></trkpt><trkpt lat="45.6241579" lon="12.3889834"><ele>5.6</ele><time>2026-04-12T16:07:59.129Z</time></trkpt><trkpt lat="45.6241189" lon="12.3891236"><ele>5.199999999999999</ele><time>2026-04-12T16:08:01.127Z</time></trkpt><trkpt lat="45.6240714" lon="12.3892731"><ele>4.800000000000001</ele><time>2026-04-12T16:08:03.134Z</time></trkpt><trkpt lat="45.6240274" lon="12.3894172"><ele>4.4</ele><time>2026-04-12T16:08:05.144Z</time></trkpt><trkpt lat="45.6239852" lon="12.3895455"><ele>4.0</ele><time>2026-04-12T16:08:07.132Z</time></trkpt><trkpt lat="45.6239432" lon="12.3896852"><ele>3.8000000000000003</ele><time>2026-04-12T16:08:09.134Z</time></trkpt><trkpt lat="45.6239025" lon="12.3898246"><ele>3.6000000000000005</ele><time>2026-04-12T16:08:11.127Z</time></trkpt><trkpt lat="45.6238578" lon="12.3899657"><ele>3.4</ele><time>2026-04-12T16:08:13.133Z</time></trkpt><trkpt lat="45.6238131" lon="12.3901095"><ele>3.2</ele><time>2026-04-12T16:08:15.135Z</time></trkpt><trkpt lat="45.623775" lon="12.3902488"><ele>3.0</ele><time>2026-04-12T16:08:17.137Z</time></trkpt><trkpt lat="45.623739" lon="12.3903855"><ele>3.2</ele><time>2026-04-12T16:08:19.127Z</time></trkpt><trkpt lat="45.6236983" lon="12.3905192"><ele>3.4</ele><time>2026-04-12T16:08:21.116Z</time></trkpt><trkpt lat="45.6236566" lon="12.3906898"><ele>3.6000000000000005</ele><time>2026-04-12T16:08:23.124Z</time></trkpt><trkpt lat="45.6236192" lon="12.3908486"><ele>3.8000000000000003</ele><time>2026-04-12T16:08:25.123Z</time></trkpt><trkpt lat="45.6235907" lon="12.3909857"><ele>4.0</ele><time>2026-04-12T16:08:27.132Z</time></trkpt><trkpt lat="45.6235653" lon="12.3911303"><ele>4.2</ele><time>2026-04-12T16:08:29.131Z</time></trkpt><trkpt lat="45.6235474" lon="12.391279"><ele>4.4</ele><time>2026-04-12T16:08:31.134Z</time></trkpt><trkpt lat="45.6235285" lon="12.3914288"><ele>4.6</ele><time>2026-04-12T16:08:33.147Z</time></trkpt><trkpt lat="45.6235063" lon="12.3915856"><ele>4.8</ele><time>2026-04-12T16:08:35.135Z</time></trkpt><trkpt lat="45.6234937" lon="12.3917352"><ele>5.0</ele><time>2026-04-12T16:08:37.135Z</time></trkpt><trkpt lat="45.6234884" lon="12.391886"><ele>5.0</ele><time>2026-04-12T16:08:39.147Z</time></trkpt><trkpt lat="45.6234838" lon="12.392025"><ele>5.0</ele><time>2026-04-12T16:08:41.128Z</time></trkpt><trkpt lat="45.6234823" lon="12.392162"><ele>5.0</ele><time>2026-04-12T16:08:43.123Z</time></trkpt><trkpt lat="45.6234826" lon="12.3922932"><ele>5.0</ele><time>2026-04-12T16:08:45.134Z</time></trkpt><trkpt lat="45.6234836" lon="12.392431"><ele>5.0</ele><time>2026-04-12T16:08:47.145Z</time></trkpt><trkpt lat="45.6234854" lon="12.3925703"><ele>5.0</ele><time>2026-04-12T16:08:49.134Z</time></trkpt><trkpt lat="45.6234955" lon="12.3927131"><ele>5.0</ele><time>2026-04-12T16:08:51.137Z</time></trkpt><trkpt lat="45.623505" lon="12.3928557"><ele>5.0</ele><time>2026-04-12T16:08:53.12Z</time></trkpt><trkpt lat="45.6235208" lon="12.3930035"><ele>5.0</ele><time>2026-04-12T16:08:55.129Z</time></trkpt><trkpt lat="45.6235292" lon="12.3931442"><ele>5.0</ele><time>2026-04-12T16:08:57.145Z</time></trkpt><trkpt lat="45.6235354" lon="12.3932828"><ele>5.0</ele><time>2026-04-12T16:08:59.13Z</time></trkpt><trkpt lat="45.623546" lon="12.3934183"><ele>5.0</ele><time>2026-04-12T16:09:01.147Z</time></trkpt><trkpt lat="45.6235506" lon="12.3935592"><ele>5.0</ele><time>2026-04-12T16:09:03.132Z</time></trkpt><trkpt lat="45.6235537" lon="12.3937028"><ele>5.0</ele><time>2026-04-12T16:09:05.127Z</time></trkpt><trkpt lat="45.6235561" lon="12.3938401"><ele>5.0</ele><time>2026-04-12T16:09:07.138Z</time></trkpt><trkpt lat="45.6235553" lon="12.3939847"><ele>4.8</ele><time>2026-04-12T16:09:09.121Z</time></trkpt><trkpt lat="45.6235485" lon="12.3941151"><ele>4.6</ele><time>2026-04-12T16:09:11.126Z</time></trkpt><trkpt lat="45.6235321" lon="12.3942549"><ele>4.4</ele><time>2026-04-12T16:09:13.102Z</time></trkpt><trkpt lat="45.6235136" lon="12.3943874"><ele>4.2</ele><time>2026-04-12T16:09:15.126Z</time></trkpt><trkpt lat="45.6234944" lon="12.3945293"><ele>4.0</ele><time>2026-04-12T16:09:17.133Z</time></trkpt><trkpt lat="45.6234778" lon="12.394671"><ele>3.833333333333333</ele><time>2026-04-12T16:09:19.121Z</time></trkpt><trkpt lat="45.6234633" lon="12.3947966"><ele>3.6666666666666665</ele><time>2026-04-12T16:09:21.122Z</time></trkpt><trkpt lat="45.6234441" lon="12.3949069"><ele>3.5</ele><time>2026-04-12T16:09:23.127Z</time></trkpt><trkpt lat="45.6234275" lon="12.3950311"><ele>3.333333333333333</ele><time>2026-04-12T16:09:25.13Z</time></trkpt><trkpt lat="45.623408" lon="12.3951692"><ele>3.1666666666666665</ele><time>2026-04-12T16:09:27.129Z</time></trkpt><trkpt lat="45.6233919" lon="12.3953001"><ele>3.0</ele><time>2026-04-12T16:09:29.137Z</time></trkpt><trkpt lat="45.6233772" lon="12.3954376"><ele>3.2</ele><time>2026-04-12T16:09:31.132Z</time></trkpt><trkpt lat="45.623362" lon="12.3955738"><ele>3.4</ele><time>2026-04-12T16:09:33.118Z</time></trkpt><trkpt lat="45.6233459" lon="12.3957139"><ele>3.6000000000000005</ele><time>2026-04-12T16:09:35.153Z</time></trkpt><trkpt lat="45.623329" lon="12.3958528"><ele>3.8000000000000003</ele><time>2026-04-12T16:09:37.111Z</time></trkpt><trkpt lat="45.6233124" lon="12.3959924"><ele>4.0</ele><time>2026-04-12T16:09:39.128Z</time></trkpt><trkpt lat="45.6232947" lon="12.3961278"><ele>4.0</ele><time>2026-04-12T16:09:41.135Z</time></trkpt><trkpt lat="45.6232789" lon="12.3962653"><ele>4.0</ele><time>2026-04-12T16:09:43.136Z</time></trkpt><trkpt lat="45.6232601" lon="12.3963982"><ele>4.0</ele><time>2026-04-12T16:09:45.121Z</time></trkpt><trkpt lat="45.6232412" lon="12.3965403"><ele>4.0</ele><time>2026-04-12T16:09:47.133Z</time></trkpt><trkpt lat="45.6232234" lon="12.3966815"><ele>4.0</ele><time>2026-04-12T16:09:49.128Z</time></trkpt><trkpt lat="45.6232063" lon="12.3968136"><ele>3.9999999999999996</ele><time>2026-04-12T16:09:51.143Z</time></trkpt><trkpt lat="45.6231874" lon="12.3969415"><ele>4.0</ele><time>2026-04-12T16:09:53.129Z</time></trkpt><trkpt lat="45.6231732" lon="12.397064"><ele>4.0</ele><time>2026-04-12T16:09:55.142Z</time></trkpt><trkpt lat="45.6231574" lon="12.3971797"><ele>4.0</ele><time>2026-04-12T16:09:57.14Z</time></trkpt><trkpt lat="45.6231411" lon="12.3972991"><ele>3.9999999999999996</ele><time>2026-04-12T16:09:59.138Z</time></trkpt><trkpt lat="45.6231251" lon="12.3974213"><ele>4.0</ele><time>2026-04-12T16:10:01.121Z</time></trkpt><trkpt lat="45.6231116" lon="12.3975324"><ele>3.9999999999999996</ele><time>2026-04-12T16:10:03.15Z</time></trkpt><trkpt lat="45.6230985" lon="12.3976442"><ele>4.0</ele><time>2026-04-12T16:10:05.133Z</time></trkpt><trkpt lat="45.6230821" lon="12.3977638"><ele>4.0</ele><time>2026-04-12T16:10:07.132Z</time></trkpt><trkpt lat="45.6230631" lon="12.3978908"><ele>4.0</ele><time>2026-04-12T16:10:09.141Z</time></trkpt><trkpt lat="45.6230477" lon="12.3980232"><ele>3.9999999999999996</ele><time>2026-04-12T16:10:11.14Z</time></trkpt><trkpt lat="45.6230304" lon="12.3981587"><ele>4.0</ele><time>2026-04-12T16:10:13.141Z</time></trkpt><trkpt lat="45.6230127" lon="12.3982885"><ele>3.9999999999999996</ele><time>2026-04-12T16:10:15.138Z</time></trkpt><trkpt lat="45.6229948" lon="12.3984171"><ele>4.0</ele><time>2026-04-12T16:10:17.136Z</time></trkpt><trkpt lat="45.6229817" lon="12.398545"><ele>4.0</ele><time>2026-04-12T16:10:19.135Z</time></trkpt><trkpt lat="45.6229666" lon="12.3986487"><ele>4.0</ele><time>2026-04-12T16:10:21.138Z</time></trkpt><trkpt lat="45.6229521" lon="12.3987542"><ele>3.9999999999999996</ele><time>2026-04-12T16:10:23.133Z</time></trkpt><trkpt lat="45.6229304" lon="12.3988617"><ele>4.0</ele><time>2026-04-12T16:10:25.138Z</time></trkpt><trkpt lat="45.622903" lon="12.3989819"><ele>4.2</ele><time>2026-04-12T16:10:27.135Z</time></trkpt><trkpt lat="45.6228761" lon="12.3991072"><ele>4.4</ele><time>2026-04-12T16:10:29.136Z</time></trkpt><trkpt lat="45.6228486" lon="12.3992316"><ele>4.6</ele><time>2026-04-12T16:10:31.134Z</time></trkpt><trkpt lat="45.62282" lon="12.3993562"><ele>4.8</ele><time>2026-04-12T16:10:33.119Z</time></trkpt><trkpt lat="45.622783" lon="12.3994751"><ele>5.0</ele><time>2026-04-12T16:10:35.129Z</time></trkpt><trkpt lat="45.6227454" lon="12.3995985"><ele>5.2</ele><time>2026-04-12T16:10:37.123Z</time></trkpt><trkpt lat="45.6227038" lon="12.3997197"><ele>5.4</ele><time>2026-04-12T16:10:39.121Z</time></trkpt><trkpt lat="45.6226698" lon="12.3998511"><ele>5.6</ele><time>2026-04-12T16:10:41.123Z</time></trkpt><trkpt lat="45.622637" lon="12.3999704"><ele>5.8</ele><time>2026-04-12T16:10:43.132Z</time></trkpt><trkpt lat="45.6225945" lon="12.4001147"><ele>6.0</ele><time>2026-04-12T16:10:45.135Z</time></trkpt><trkpt lat="45.6225546" lon="12.4002439"><ele>6.0</ele><time>2026-04-12T16:10:47.133Z</time></trkpt><trkpt lat="45.6225192" lon="12.4003634"><ele>6.0</ele><time>2026-04-12T16:10:49.131Z</time></trkpt><trkpt lat="45.6224846" lon="12.4004937"><ele>6.0</ele><time>2026-04-12T16:10:51.122Z</time></trkpt><trkpt lat="45.6224482" lon="12.4006194"><ele>6.0</ele><time>2026-04-12T16:10:53.132Z</time></trkpt><trkpt lat="45.6224122" lon="12.4007466"><ele>6.0</ele><time>2026-04-12T16:10:55.146Z</time></trkpt><trkpt lat="45.622374" lon="12.4008653"><ele>5.8</ele><time>2026-04-12T16:10:57.12Z</time></trkpt><trkpt lat="45.6223299" lon="12.4010046"><ele>5.6</ele><time>2026-04-12T16:10:59.139Z</time></trkpt><trkpt lat="45.6222915" lon="12.4011377"><ele>5.4</ele><time>2026-04-12T16:11:01.165Z</time></trkpt><trkpt lat="45.6222588" lon="12.4012611"><ele>5.2</ele><time>2026-04-12T16:11:03.129Z</time></trkpt><trkpt lat="45.6222196" lon="12.40139"><ele>5.0</ele><time>2026-04-12T16:11:05.125Z</time></trkpt><trkpt lat="45.6221801" lon="12.4015164"><ele>5.0</ele><time>2026-04-12T16:11:07.135Z</time></trkpt><trkpt lat="45.6221479" lon="12.4016265"><ele>5.0</ele><time>2026-04-12T16:11:09.129Z</time></trkpt><trkpt lat="45.6221153" lon="12.4017456"><ele>5.0</ele><time>2026-04-12T16:11:11.121Z</time></trkpt><trkpt lat="45.6220825" lon="12.401863"><ele>5.0</ele><time>2026-04-12T16:11:13.135Z</time></trkpt><trkpt lat="45.6220429" lon="12.4019735"><ele>5.0</ele><time>2026-04-12T16:11:15.12Z</time></trkpt><trkpt lat="45.6220013" lon="12.4020687"><ele>5.0</ele><time>2026-04-12T16:11:17.152Z</time></trkpt><trkpt lat="45.6219701" lon="12.4021668"><ele>4.833333333333334</ele><time>2026-04-12T16:11:19.132Z</time></trkpt><trkpt lat="45.6219443" lon="12.4022609"><ele>4.666666666666667</ele><time>2026-04-12T16:11:21.137Z</time></trkpt><trkpt lat="45.6219199" lon="12.40235"><ele>4.5</ele><time>2026-04-12T16:11:23.113Z</time></trkpt><trkpt lat="45.6218811" lon="12.4024564"><ele>4.333333333333333</ele><time>2026-04-12T16:11:26.128Z</time></trkpt><trkpt lat="45.6218358" lon="12.4025601"><ele>4.166666666666666</ele><time>2026-04-12T16:11:30.12Z</time></trkpt><trkpt lat="45.6217932" lon="12.4026448"><ele>4.0</ele><time>2026-04-12T16:11:32.124Z</time></trkpt><trkpt lat="45.6217445" lon="12.4027393"><ele>3.9999999999999996</ele><time>2026-04-12T16:11:34.136Z</time></trkpt><trkpt lat="45.6217081" lon="12.4028219"><ele>4.0</ele><time>2026-04-12T16:11:36.11Z</time></trkpt><trkpt lat="45.6216495" lon="12.4029223"><ele>4.0</ele><time>2026-04-12T16:11:39.131Z</time></trkpt><trkpt lat="45.6215958" lon="12.4030097"><ele>4.0</ele><time>2026-04-12T16:11:41.129Z</time></trkpt><trkpt lat="45.6215424" lon="12.4031133"><ele>3.9999999999999996</ele><time>2026-04-12T16:11:43.14Z</time></trkpt><trkpt lat="45.6214846" lon="12.4032218"><ele>4.0</ele><time>2026-04-12T16:11:45.14Z</time></trkpt><trkpt lat="45.6214269" lon="12.4033206"><ele>4.0</ele><time>2026-04-12T16:11:47.125Z</time></trkpt><trkpt lat="45.6213718" lon="12.4034193"><ele>4.0</ele><time>2026-04-12T16:11:49.134Z</time></trkpt><trkpt lat="45.6213154" lon="12.403526"><ele>4.0</ele><time>2026-04-12T16:11:51.143Z</time></trkpt><trkpt lat="45.6212531" lon="12.403645"><ele>4.0</ele><time>2026-04-12T16:11:53.132Z</time></trkpt><trkpt lat="45.6211931" lon="12.4037567"><ele>4.0</ele><time>2026-04-12T16:11:55.128Z</time></trkpt><trkpt lat="45.6211358" lon="12.4038559"><ele>3.6</ele><time>2026-04-12T16:11:57.136Z</time></trkpt><trkpt lat="45.6210831" lon="12.4039542"><ele>3.2</ele><time>2026-04-12T16:11:59.131Z</time></trkpt><trkpt lat="45.6210241" lon="12.4040625"><ele>2.8000000000000003</ele><time>2026-04-12T16:12:01.148Z</time></trkpt><trkpt lat="45.6209659" lon="12.4041716"><ele>2.4000000000000004</ele><time>2026-04-12T16:12:03.149Z</time></trkpt><trkpt lat="45.6209" lon="12.4042807"><ele>2.0</ele><time>2026-04-12T16:12:05.133Z</time></trkpt><trkpt lat="45.6208356" lon="12.4043894"><ele>2.0</ele><time>2026-04-12T16:12:07.127Z</time></trkpt><trkpt lat="45.6207727" lon="12.4044899"><ele>2.0</ele><time>2026-04-12T16:12:09.131Z</time></trkpt><trkpt lat="45.620709" lon="12.4046051"><ele>2.0</ele><time>2026-04-12T16:12:11.124Z</time></trkpt><trkpt lat="45.6206414" lon="12.4047178"><ele>2.0</ele><time>2026-04-12T16:12:13.12Z</time></trkpt><trkpt lat="45.6205821" lon="12.4048218"><ele>2.0</ele><time>2026-04-12T16:12:15.12Z</time></trkpt><trkpt lat="45.6205215" lon="12.4049332"><ele>2.0</ele><time>2026-04-12T16:12:17.131Z</time></trkpt><trkpt lat="45.6204599" lon="12.4050427"><ele>2.0</ele><time>2026-04-12T16:12:19.123Z</time></trkpt><trkpt lat="45.6203977" lon="12.4051475"><ele>2.0</ele><time>2026-04-12T16:12:21.126Z</time></trkpt><trkpt lat="45.6203311" lon="12.4052656"><ele>2.0</ele><time>2026-04-12T16:12:23.112Z</time></trkpt><trkpt lat="45.6202646" lon="12.4053824"><ele>2.0</ele><time>2026-04-12T16:12:25.135Z</time></trkpt><trkpt lat="45.6202035" lon="12.4054891"><ele>1.8</ele><time>2026-04-12T16:12:27.142Z</time></trkpt><trkpt lat="45.6201391" lon="12.4056017"><ele>1.6</ele><time>2026-04-12T16:12:29.127Z</time></trkpt><trkpt lat="45.6200753" lon="12.4057195"><ele>1.4000000000000001</ele><time>2026-04-12T16:12:31.137Z</time></trkpt><trkpt lat="45.6200084" lon="12.4058396"><ele>1.2000000000000002</ele><time>2026-04-12T16:12:33.145Z</time></trkpt><trkpt lat="45.61994" lon="12.4059606"><ele>1.0</ele><time>2026-04-12T16:12:35.131Z</time></trkpt><trkpt lat="45.6198816" lon="12.4060708"><ele>1.0</ele><time>2026-04-12T16:12:37.13Z</time></trkpt><trkpt lat="45.6198214" lon="12.406181"><ele>1.0</ele><time>2026-04-12T16:12:39.125Z</time></trkpt><trkpt lat="45.6197582" lon="12.4062902"><ele>1.0</ele><time>2026-04-12T16:12:41.138Z</time></trkpt><trkpt lat="45.6196972" lon="12.4063919"><ele>1.0</ele><time>2026-04-12T16:12:43.125Z</time></trkpt><trkpt lat="45.6196367" lon="12.4064902"><ele>1.0</ele><time>2026-04-12T16:12:45.136Z</time></trkpt><trkpt lat="45.6195814" lon="12.4065878"><ele>1.1666666666666665</ele><time>2026-04-12T16:12:47.138Z</time></trkpt><trkpt lat="45.6195276" lon="12.4066775"><ele>1.3333333333333333</ele><time>2026-04-12T16:12:49.119Z</time></trkpt><trkpt lat="45.6194731" lon="12.4067676"><ele>1.5</ele><time>2026-04-12T16:12:51.141Z</time></trkpt><trkpt lat="45.6194141" lon="12.406862"><ele>1.6666666666666665</ele><time>2026-04-12T16:12:53.13Z</time></trkpt><trkpt lat="45.6193575" lon="12.4069592"><ele>1.8333333333333333</ele><time>2026-04-12T16:12:55.155Z</time></trkpt><trkpt lat="45.6192943" lon="12.4070726"><ele>2.0</ele><time>2026-04-12T16:12:57.124Z</time></trkpt><trkpt lat="45.6192314" lon="12.4071817"><ele>2.4000000000000004</ele><time>2026-04-12T16:12:59.118Z</time></trkpt><trkpt lat="45.6191688" lon="12.4072839"><ele>2.8000000000000003</ele><time>2026-04-12T16:13:01.127Z</time></trkpt><trkpt lat="45.6191093" lon="12.4073874"><ele>3.2</ele><time>2026-04-12T16:13:03.12Z</time></trkpt><trkpt lat="45.6190496" lon="12.407489"><ele>3.6</ele><time>2026-04-12T16:13:05.134Z</time></trkpt><trkpt lat="45.6189916" lon="12.4075907"><ele>4.0</ele><time>2026-04-12T16:13:07.144Z</time></trkpt><trkpt lat="45.6189335" lon="12.4076876"><ele>3.9999999999999996</ele><time>2026-04-12T16:13:09.12Z</time></trkpt><trkpt lat="45.618877" lon="12.4077793"><ele>4.0</ele><time>2026-04-12T16:13:11.139Z</time></trkpt><trkpt lat="45.6188245" lon="12.407864"><ele>4.0</ele><time>2026-04-12T16:13:13.163Z</time></trkpt><trkpt lat="45.6187766" lon="12.4079462"><ele>4.0</ele><time>2026-04-12T16:13:15.142Z</time></trkpt><trkpt lat="45.6187331" lon="12.4080388"><ele>3.9999999999999996</ele><time>2026-04-12T16:13:17.162Z</time></trkpt><trkpt lat="45.6186745" lon="12.4081371"><ele>4.0</ele><time>2026-04-12T16:13:19.145Z</time></trkpt><trkpt lat="45.6186144" lon="12.4082359"><ele>3.6</ele><time>2026-04-12T16:13:21.141Z</time></trkpt><trkpt lat="45.618557" lon="12.4083377"><ele>3.2</ele><time>2026-04-12T16:13:23.135Z</time></trkpt><trkpt lat="45.6184944" lon="12.4084379"><ele>2.8000000000000003</ele><time>2026-04-12T16:13:25.138Z</time></trkpt><trkpt lat="45.6184323" lon="12.4085411"><ele>2.4000000000000004</ele><time>2026-04-12T16:13:27.129Z</time></trkpt><trkpt lat="45.6183769" lon="12.4086374"><ele>2.0</ele><time>2026-04-12T16:13:29.135Z</time></trkpt><trkpt lat="45.6183208" lon="12.4087241"><ele>2.0</ele><time>2026-04-12T16:13:31.144Z</time></trkpt><trkpt lat="45.6182679" lon="12.4088042"><ele>1.9999999999999998</ele><time>2026-04-12T16:13:33.13Z</time></trkpt><trkpt lat="45.6182151" lon="12.4088766"><ele>2.0</ele><time>2026-04-12T16:13:35.132Z</time></trkpt><trkpt lat="45.618161" lon="12.4089553"><ele>2.0</ele><time>2026-04-12T16:13:37.134Z</time></trkpt><trkpt lat="45.6181067" lon="12.4090314"><ele>1.9999999999999998</ele><time>2026-04-12T16:13:39.115Z</time></trkpt><trkpt lat="45.6180567" lon="12.4090991"><ele>2.0</ele><time>2026-04-12T16:13:41.141Z</time></trkpt><trkpt lat="45.6180031" lon="12.4091576"><ele>2.0</ele><time>2026-04-12T16:13:43.128Z</time></trkpt><trkpt lat="45.6179438" lon="12.4092202"><ele>1.9999999999999998</ele><time>2026-04-12T16:13:45.137Z</time></trkpt><trkpt lat="45.6178848" lon="12.4092914"><ele>2.0</ele><time>2026-04-12T16:13:47.134Z</time></trkpt><trkpt lat="45.6178269" lon="12.4093696"><ele>2.0</ele><time>2026-04-12T16:13:49.135Z</time></trkpt><trkpt lat="45.6177697" lon="12.4094405"><ele>2.0</ele><time>2026-04-12T16:13:51.125Z</time></trkpt><trkpt lat="45.617721" lon="12.4095158"><ele>1.9999999999999998</ele><time>2026-04-12T16:13:53.131Z</time></trkpt><trkpt lat="45.6176561" lon="12.4096174"><ele>2.0</ele><time>2026-04-12T16:13:56.131Z</time></trkpt><trkpt lat="45.6175967" lon="12.4097187"><ele>2.0</ele><time>2026-04-12T16:13:59.141Z</time></trkpt><trkpt lat="45.6175402" lon="12.4098159"><ele>1.9999999999999998</ele><time>2026-04-12T16:14:02.149Z</time></trkpt><trkpt lat="45.6174939" lon="12.4098892"><ele>2.0</ele><time>2026-04-12T16:14:07.138Z</time></trkpt><trkpt lat="45.6174814" lon="12.4099819"><ele>2.0</ele><time>2026-04-12T16:15:04.124Z</time></trkpt><trkpt lat="45.6174712" lon="12.410078"><ele>1.9999999999999998</ele><time>2026-04-12T16:15:06.144Z</time></trkpt><trkpt lat="45.6174618" lon="12.4101832"><ele>2.0</ele><time>2026-04-12T16:15:08.122Z</time></trkpt><trkpt lat="45.6174535" lon="12.4102891"><ele>2.0</ele><time>2026-04-12T16:15:10.128Z</time></trkpt><trkpt lat="45.6174505" lon="12.4103984"><ele>1.8333333333333333</ele><time>2026-04-12T16:15:12.133Z</time></trkpt><trkpt lat="45.6174475" lon="12.4105052"><ele>1.6666666666666665</ele><time>2026-04-12T16:15:14.138Z</time></trkpt><trkpt lat="45.6174332" lon="12.4106225"><ele>1.5</ele><time>2026-04-12T16:15:16.134Z</time></trkpt><trkpt lat="45.6174243" lon="12.410741"><ele>1.3333333333333333</ele><time>2026-04-12T16:15:18.141Z</time></trkpt><trkpt lat="45.6174158" lon="12.4108581"><ele>1.1666666666666665</ele><time>2026-04-12T16:15:20.133Z</time></trkpt><trkpt lat="45.6174029" lon="12.4109641"><ele>1.0</ele><time>2026-04-12T16:15:22.133Z</time></trkpt><trkpt lat="45.6173965" lon="12.4110682"><ele>0.9999999999999999</ele><time>2026-04-12T16:15:24.155Z</time></trkpt><trkpt lat="45.6173853" lon="12.4111651"><ele>1.0</ele><time>2026-04-12T16:15:26.13Z</time></trkpt><trkpt lat="45.6173732" lon="12.411274"><ele>1.0</ele><time>2026-04-12T16:15:28.133Z</time></trkpt><trkpt lat="45.6173646" lon="12.4113878"><ele>1.0</ele><time>2026-04-12T16:15:30.127Z</time></trkpt><trkpt lat="45.617359" lon="12.4115068"><ele>0.9999999999999999</ele><time>2026-04-12T16:15:32.123Z</time></trkpt><trkpt lat="45.6173507" lon="12.4116244"><ele>1.0</ele><time>2026-04-12T16:15:34.131Z</time></trkpt><trkpt lat="45.6173393" lon="12.4117399"><ele>1.1666666666666665</ele><time>2026-04-12T16:15:36.133Z</time></trkpt><trkpt lat="45.6173315" lon="12.4118347"><ele>1.3333333333333333</ele><time>2026-04-12T16:15:38.128Z</time></trkpt><trkpt lat="45.61731" lon="12.4119737"><ele>1.5</ele><time>2026-04-12T16:15:41.143Z</time></trkpt><trkpt lat="45.6172912" lon="12.4120939"><ele>1.6666666666666665</ele><time>2026-04-12T16:15:44.132Z</time></trkpt><trkpt lat="45.6172595" lon="12.412217"><ele>1.8333333333333333</ele><time>2026-04-12T16:15:47.128Z</time></trkpt><trkpt lat="45.617227" lon="12.4123037"><ele>2.0</ele><time>2026-04-12T16:15:49.131Z</time></trkpt><trkpt lat="45.617184" lon="12.4123945"><ele>1.9999999999999998</ele><time>2026-04-12T16:15:51.149Z</time></trkpt><trkpt lat="45.617147" lon="12.4124863"><ele>2.0</ele><time>2026-04-12T16:15:53.136Z</time></trkpt><trkpt lat="45.6171114" lon="12.4125905"><ele>2.0</ele><time>2026-04-12T16:15:55.144Z</time></trkpt><trkpt lat="45.6170698" lon="12.4127"><ele>2.0</ele><time>2026-04-12T16:15:57.17Z</time></trkpt><trkpt lat="45.6170263" lon="12.4128012"><ele>1.9999999999999998</ele><time>2026-04-12T16:15:59.134Z</time></trkpt><trkpt lat="45.6169843" lon="12.4129138"><ele>2.0</ele><time>2026-04-12T16:16:01.13Z</time></trkpt><trkpt lat="45.6169414" lon="12.4130265"><ele>1.857142857142857</ele><time>2026-04-12T16:16:03.123Z</time></trkpt><trkpt lat="45.6169021" lon="12.4130977"><ele>1.714285714285714</ele><time>2026-04-12T16:16:05.133Z</time></trkpt><trkpt lat="45.616858" lon="12.4131867"><ele>1.5714285714285714</ele><time>2026-04-12T16:16:07.129Z</time></trkpt><trkpt lat="45.6168258" lon="12.4132656"><ele>1.4285714285714284</ele><time>2026-04-12T16:16:09.119Z</time></trkpt><trkpt lat="45.6167988" lon="12.4133533"><ele>1.2857142857142856</ele><time>2026-04-12T16:16:11.122Z</time></trkpt><trkpt lat="45.6167515" lon="12.4134663"><ele>1.1428571428571428</ele><time>2026-04-12T16:16:14.137Z</time></trkpt><trkpt lat="45.6167074" lon="12.4135671"><ele>1.0</ele><time>2026-04-12T16:16:17.148Z</time></trkpt><trkpt lat="45.6166656" lon="12.413657"><ele>0.9999999999999999</ele><time>2026-04-12T16:16:20.125Z</time></trkpt><trkpt lat="45.6166253" lon="12.4137613"><ele>1.0</ele><time>2026-04-12T16:16:24.132Z</time></trkpt><trkpt lat="45.6165887" lon="12.4138525"><ele>1.0</ele><time>2026-04-12T16:16:27.137Z</time></trkpt><trkpt lat="45.6165512" lon="12.4139487"><ele>1.0</ele><time>2026-04-12T16:16:32.123Z</time></trkpt><trkpt lat="45.6165205" lon="12.4140496"><ele>0.9999999999999999</ele><time>2026-04-12T16:16:36.13Z</time></trkpt><trkpt lat="45.61656" lon="12.4139703"><ele>1.0</ele><time>2026-04-12T16:16:42.124Z</time></trkpt><trkpt lat="45.6165966" lon="12.4138695"><ele>0.9999999999999999</ele><time>2026-04-12T16:16:46.138Z</time></trkpt><trkpt lat="45.6166411" lon="12.4137849"><ele>1.0</ele><time>2026-04-12T16:16:49.13Z</time></trkpt><trkpt lat="45.6166821" lon="12.413691"><ele>1.0</ele><time>2026-04-12T16:16:52.134Z</time></trkpt><trkpt lat="45.6167189" lon="12.4135829"><ele>1.0</ele><time>2026-04-12T16:16:55.128Z</time></trkpt><trkpt lat="45.6167657" lon="12.4134735"><ele>0.9999999999999999</ele><time>2026-04-12T16:16:58.132Z</time></trkpt><trkpt lat="45.6168015" lon="12.4133943"><ele>1.0</ele><time>2026-04-12T16:17:00.145Z</time></trkpt><trkpt lat="45.616826" lon="12.4133107"><ele>1.0</ele><time>2026-04-12T16:17:02.121Z</time></trkpt><trkpt lat="45.6168549" lon="12.4132307"><ele>0.9999999999999999</ele><time>2026-04-12T16:17:04.136Z</time></trkpt><trkpt lat="45.616896" lon="12.4131488"><ele>1.0</ele><time>2026-04-12T16:17:06.143Z</time></trkpt><trkpt lat="45.6169373" lon="12.4130665"><ele>1.0</ele><time>2026-04-12T16:17:08.138Z</time></trkpt><trkpt lat="45.6169767" lon="12.4129846"><ele>0.9999999999999999</ele><time>2026-04-12T16:17:10.132Z</time></trkpt><trkpt lat="45.617011" lon="12.412899"><ele>1.0</ele><time>2026-04-12T16:17:12.122Z</time></trkpt><trkpt lat="45.6170464" lon="12.4128126"><ele>1.0</ele><time>2026-04-12T16:17:14.148Z</time></trkpt><trkpt lat="45.6170868" lon="12.4127187"><ele>1.1428571428571428</ele><time>2026-04-12T16:17:16.123Z</time></trkpt><trkpt lat="45.6171243" lon="12.4126299"><ele>1.2857142857142856</ele><time>2026-04-12T16:17:18.129Z</time></trkpt><trkpt lat="45.6171716" lon="12.4125295"><ele>1.4285714285714284</ele><time>2026-04-12T16:17:21.122Z</time></trkpt><trkpt lat="45.6171186" lon="12.4124565"><ele>1.5714285714285714</ele><time>2026-04-12T16:17:26.139Z</time></trkpt><trkpt lat="45.6171876" lon="12.4124471"><ele>1.714285714285714</ele><time>2026-04-12T16:18:36.123Z</time></trkpt><trkpt lat="45.6172224" lon="12.4123548"><ele>1.857142857142857</ele><time>2026-04-12T16:18:39.135Z</time></trkpt><trkpt lat="45.6172463" lon="12.4122709"><ele>2.0</ele><time>2026-04-12T16:18:41.143Z</time></trkpt><trkpt lat="45.617278" lon="12.412168"><ele>1.9999999999999998</ele><time>2026-04-12T16:18:43.131Z</time></trkpt><trkpt lat="45.617308" lon="12.4120638"><ele>2.0</ele><time>2026-04-12T16:18:45.126Z</time></trkpt><trkpt lat="45.6173377" lon="12.4119577"><ele>2.0</ele><time>2026-04-12T16:18:47.14Z</time></trkpt><trkpt lat="45.6173594" lon="12.4118431"><ele>2.0</ele><time>2026-04-12T16:18:49.125Z</time></trkpt><trkpt lat="45.6173698" lon="12.4117233"><ele>1.9999999999999998</ele><time>2026-04-12T16:18:51.119Z</time></trkpt><trkpt lat="45.6173695" lon="12.4115984"><ele>2.0</ele><time>2026-04-12T16:18:53.138Z</time></trkpt><trkpt lat="45.6173695" lon="12.411476"><ele>1.9999999999999998</ele><time>2026-04-12T16:18:55.135Z</time></trkpt><trkpt lat="45.617378" lon="12.4113554"><ele>2.0</ele><time>2026-04-12T16:18:57.132Z</time></trkpt><trkpt lat="45.617383" lon="12.4112389"><ele>2.0</ele><time>2026-04-12T16:18:59.115Z</time></trkpt><trkpt lat="45.6173891" lon="12.4111116"><ele>2.0</ele><time>2026-04-12T16:19:01.128Z</time></trkpt><trkpt lat="45.6173974" lon="12.4109834"><ele>1.9999999999999998</ele><time>2026-04-12T16:19:03.141Z</time></trkpt><trkpt lat="45.6174072" lon="12.4108566"><ele>2.0</ele><time>2026-04-12T16:19:05.135Z</time></trkpt><trkpt lat="45.6174152" lon="12.4107321"><ele>1.9999999999999998</ele><time>2026-04-12T16:19:07.15Z</time></trkpt><trkpt lat="45.6174229" lon="12.4106036"><ele>2.0</ele><time>2026-04-12T16:19:09.135Z</time></trkpt><trkpt lat="45.6174371" lon="12.4104861"><ele>2.0</ele><time>2026-04-12T16:19:11.138Z</time></trkpt><trkpt lat="45.6174486" lon="12.4103733"><ele>2.0</ele><time>2026-04-12T16:19:13.111Z</time></trkpt><trkpt lat="45.6174555" lon="12.4102657"><ele>1.9999999999999998</ele><time>2026-04-12T16:19:15.139Z</time></trkpt><trkpt lat="45.6174585" lon="12.4101445"><ele>2.0</ele><time>2026-04-12T16:19:18.125Z</time></trkpt><trkpt lat="45.6174738" lon="12.4100392"><ele>1.9999999999999998</ele><time>2026-04-12T16:19:21.138Z</time></trkpt><trkpt lat="45.6174904" lon="12.4099304"><ele>2.0</ele><time>2026-04-12T16:19:25.133Z</time></trkpt><trkpt lat="45.6174115" lon="12.4099671"><ele>2.0</ele><time>2026-04-12T16:19:29.133Z</time></trkpt><trkpt lat="45.6173742" lon="12.4100647"><ele>2.0</ele><time>2026-04-12T16:19:32.15Z</time></trkpt><trkpt lat="45.6173364" lon="12.4101555"><ele>1.9999999999999998</ele><time>2026-04-12T16:19:34.129Z</time></trkpt><trkpt lat="45.6172864" lon="12.4102689"><ele>2.0</ele><time>2026-04-12T16:19:36.144Z</time></trkpt><trkpt lat="45.6172431" lon="12.4103798"><ele>1.9999999999999998</ele><time>2026-04-12T16:19:38.153Z</time></trkpt><trkpt lat="45.6172084" lon="12.4104818"><ele>2.0</ele><time>2026-04-12T16:19:40.134Z</time></trkpt><trkpt lat="45.6171691" lon="12.4105888"><ele>2.0</ele><time>2026-04-12T16:19:42.133Z</time></trkpt><trkpt lat="45.6171289" lon="12.4106934"><ele>2.0</ele><time>2026-04-12T16:19:44.123Z</time></trkpt><trkpt lat="45.6170888" lon="12.4108043"><ele>1.9999999999999998</ele><time>2026-04-12T16:19:46.139Z</time></trkpt><trkpt lat="45.6170494" lon="12.4109145"><ele>2.0</ele><time>2026-04-12T16:19:48.144Z</time></trkpt><trkpt lat="45.6170122" lon="12.4110219"><ele>2.1666666666666665</ele><time>2026-04-12T16:19:50.134Z</time></trkpt><trkpt lat="45.6169701" lon="12.411133"><ele>2.333333333333333</ele><time>2026-04-12T16:19:52.131Z</time></trkpt><trkpt lat="45.6169323" lon="12.4112381"><ele>2.5</ele><time>2026-04-12T16:19:54.128Z</time></trkpt><trkpt lat="45.6168961" lon="12.411341"><ele>2.6666666666666665</ele><time>2026-04-12T16:19:56.143Z</time></trkpt><trkpt lat="45.6168538" lon="12.4114559"><ele>2.8333333333333335</ele><time>2026-04-12T16:19:58.131Z</time></trkpt><trkpt lat="45.6168112" lon="12.4115659"><ele>3.0</ele><time>2026-04-12T16:20:00.137Z</time></trkpt><trkpt lat="45.6167712" lon="12.4116683"><ele>3.0</ele><time>2026-04-12T16:20:02.132Z</time></trkpt><trkpt lat="45.6167302" lon="12.4117666"><ele>3.0</ele><time>2026-04-12T16:20:04.141Z</time></trkpt><trkpt lat="45.6166882" lon="12.411862"><ele>3.0</ele><time>2026-04-12T16:20:06.14Z</time></trkpt><trkpt lat="45.616634" lon="12.4119603"><ele>3.0</ele><time>2026-04-12T16:20:08.133Z</time></trkpt><trkpt lat="45.6165872" lon="12.4120422"><ele>3.0</ele><time>2026-04-12T16:20:10.126Z</time></trkpt><trkpt lat="45.6165398" lon="12.41212"><ele>3.0</ele><time>2026-04-12T16:20:12.133Z</time></trkpt><trkpt lat="45.6164844" lon="12.412202"><ele>3.0</ele><time>2026-04-12T16:20:14.131Z</time></trkpt><trkpt lat="45.6164344" lon="12.4122763"><ele>3.0</ele><time>2026-04-12T16:20:16.113Z</time></trkpt><trkpt lat="45.6163778" lon="12.4123524"><ele>3.0</ele><time>2026-04-12T16:20:18.129Z</time></trkpt><trkpt lat="45.6163157" lon="12.4124364"><ele>3.0</ele><time>2026-04-12T16:20:20.13Z</time></trkpt><trkpt lat="45.6162515" lon="12.4125092"><ele>3.0</ele><time>2026-04-12T16:20:22.125Z</time></trkpt><trkpt lat="45.6161902" lon="12.4125754"><ele>3.0</ele><time>2026-04-12T16:20:24.144Z</time></trkpt><trkpt lat="45.6161269" lon="12.4126448"><ele>3.0</ele><time>2026-04-12T16:20:26.127Z</time></trkpt><trkpt lat="45.6160454" lon="12.4127237"><ele>3.0</ele><time>2026-04-12T16:20:29.122Z</time></trkpt><trkpt lat="45.6159902" lon="12.4127841"><ele>3.0</ele><time>2026-04-12T16:20:31.136Z</time></trkpt><trkpt lat="45.6159247" lon="12.412859"><ele>3.0</ele><time>2026-04-12T16:20:34.133Z</time></trkpt><trkpt lat="45.6158547" lon="12.4129333"><ele>3.0</ele><time>2026-04-12T16:20:37.144Z</time></trkpt><trkpt lat="45.6157928" lon="12.4130024"><ele>3.0</ele><time>2026-04-12T16:20:39.138Z</time></trkpt><trkpt lat="45.6157344" lon="12.4130625"><ele>3.0</ele><time>2026-04-12T16:20:41.133Z</time></trkpt><trkpt lat="45.6156642" lon="12.4131288"><ele>3.0</ele><time>2026-04-12T16:20:43.123Z</time></trkpt><trkpt lat="45.6156" lon="12.4131934"><ele>3.0</ele><time>2026-04-12T16:20:45.129Z</time></trkpt><trkpt lat="45.6155469" lon="12.4132495"><ele>3.0</ele><time>2026-04-12T16:20:47.144Z</time></trkpt><trkpt lat="45.6154898" lon="12.4133071"><ele>3.0</ele><time>2026-04-12T16:20:49.14Z</time></trkpt><trkpt lat="45.6154345" lon="12.4133709"><ele>3.0</ele><time>2026-04-12T16:20:51.146Z</time></trkpt><trkpt lat="45.6153617" lon="12.4134514"><ele>3.0</ele><time>2026-04-12T16:20:53.139Z</time></trkpt><trkpt lat="45.6153029" lon="12.4135282"><ele>3.0</ele><time>2026-04-12T16:20:55.133Z</time></trkpt><trkpt lat="45.6152342" lon="12.4136143"><ele>3.0</ele><time>2026-04-12T16:20:57.12Z</time></trkpt><trkpt lat="45.6151693" lon="12.4137052"><ele>3.0</ele><time>2026-04-12T16:20:59.138Z</time></trkpt><trkpt lat="45.6151084" lon="12.4138029"><ele>3.0</ele><time>2026-04-12T16:21:01.128Z</time></trkpt><trkpt lat="45.615054" lon="12.4139051"><ele>3.0</ele><time>2026-04-12T16:21:03.138Z</time></trkpt><trkpt lat="45.6149978" lon="12.4140264"><ele>3.0</ele><time>2026-04-12T16:21:05.127Z</time></trkpt><trkpt lat="45.6149553" lon="12.4141705"><ele>3.0</ele><time>2026-04-12T16:21:07.124Z</time></trkpt><trkpt lat="45.6149161" lon="12.4143226"><ele>3.0</ele><time>2026-04-12T16:21:09.149Z</time></trkpt><trkpt lat="45.6148822" lon="12.4144914"><ele>3.0</ele><time>2026-04-12T16:21:11.129Z</time></trkpt><trkpt lat="45.6148642" lon="12.4146661"><ele>2.9999999999999996</ele><time>2026-04-12T16:21:13.141Z</time></trkpt><trkpt lat="45.6148553" lon="12.414759"><ele>3.0</ele><time>2026-04-12T16:21:14.123Z</time></trkpt><trkpt lat="45.6148534" lon="12.4148544"><ele>3.0</ele><time>2026-04-12T16:21:15.135Z</time></trkpt><trkpt lat="45.6148562" lon="12.4149528"><ele>3.0</ele><time>2026-04-12T16:21:16.114Z</time></trkpt><trkpt lat="45.6148631" lon="12.415051"><ele>3.0</ele><time>2026-04-12T16:21:17.124Z</time></trkpt><trkpt lat="45.614877" lon="12.4151513"><ele>2.9999999999999996</ele><time>2026-04-12T16:21:18.138Z</time></trkpt><trkpt lat="45.6148934" lon="12.4152518"><ele>3.0</ele><time>2026-04-12T16:21:19.134Z</time></trkpt><trkpt lat="45.6149134" lon="12.4153511"><ele>2.9999999999999996</ele><time>2026-04-12T16:21:20.133Z</time></trkpt><trkpt lat="45.614937" lon="12.4154505"><ele>3.0</ele><time>2026-04-12T16:21:21.136Z</time></trkpt><trkpt lat="45.6149637" lon="12.4155481"><ele>3.0</ele><time>2026-04-12T16:21:22.134Z</time></trkpt><trkpt lat="45.6149932" lon="12.4156438"><ele>3.0</ele><time>2026-04-12T16:21:23.122Z</time></trkpt><trkpt lat="45.6150272" lon="12.4157365"><ele>3.0</ele><time>2026-04-12T16:21:24.124Z</time></trkpt><trkpt lat="45.6150674" lon="12.4158232"><ele>2.9999999999999996</ele><time>2026-04-12T16:21:25.131Z</time></trkpt><trkpt lat="45.6151107" lon="12.4159052"><ele>3.0</ele><time>2026-04-12T16:21:26.13Z</time></trkpt><trkpt lat="45.6151579" lon="12.4159825"><ele>2.8571428571428568</ele><time>2026-04-12T16:21:27.129Z</time></trkpt><trkpt lat="45.6152043" lon="12.4160583"><ele>2.7142857142857144</ele><time>2026-04-12T16:21:28.131Z</time></trkpt><trkpt lat="45.6152494" lon="12.4161311"><ele>2.571428571428571</ele><time>2026-04-12T16:21:29.129Z</time></trkpt><trkpt lat="45.6153005" lon="12.4161959"><ele>2.4285714285714284</ele><time>2026-04-12T16:21:30.129Z</time></trkpt><trkpt lat="45.6153526" lon="12.4162584"><ele>2.2857142857142856</ele><time>2026-04-12T16:21:31.128Z</time></trkpt><trkpt lat="45.6154049" lon="12.4163183"><ele>2.142857142857143</ele><time>2026-04-12T16:21:32.123Z</time></trkpt><trkpt lat="45.6154579" lon="12.4163743"><ele>2.0</ele><time>2026-04-12T16:21:33.133Z</time></trkpt><trkpt lat="45.6155136" lon="12.4164212"><ele>1.6</ele><time>2026-04-12T16:21:34.128Z</time></trkpt><trkpt lat="45.6156149" lon="12.4165095"><ele>1.2000000000000002</ele><time>2026-04-12T16:21:36.128Z</time></trkpt><trkpt lat="45.6157111" lon="12.4165859"><ele>0.8</ele><time>2026-04-12T16:21:38.134Z</time></trkpt><trkpt lat="45.6158025" lon="12.4166601"><ele>0.4</ele><time>2026-04-12T16:21:40.132Z</time></trkpt><trkpt lat="45.6158908" lon="12.4167283"><ele>0.0</ele><time>2026-04-12T16:21:42.125Z</time></trkpt><trkpt lat="45.6159788" lon="12.4167653"><ele>0.0</ele><time>2026-04-12T16:21:44.135Z</time></trkpt><trkpt lat="45.6160644" lon="12.4167852"><ele>0.0</ele><time>2026-04-12T16:21:46.135Z</time></trkpt><trkpt lat="45.6161554" lon="12.4168275"><ele>0.0</ele><time>2026-04-12T16:21:48.129Z</time></trkpt><trkpt lat="45.6162464" lon="12.4168868"><ele>0.0</ele><time>2026-04-12T16:21:50.13Z</time></trkpt><trkpt lat="45.6163319" lon="12.4169412"><ele>0.0</ele><time>2026-04-12T16:21:52.129Z</time></trkpt><trkpt lat="45.6164124" lon="12.4169915"><ele>0.14285714285714285</ele><time>2026-04-12T16:21:54.133Z</time></trkpt><trkpt lat="45.6164886" lon="12.417043"><ele>0.2857142857142857</ele><time>2026-04-12T16:21:56.124Z</time></trkpt><trkpt lat="45.6165549" lon="12.4171018"><ele>0.42857142857142855</ele><time>2026-04-12T16:21:58.131Z</time></trkpt><trkpt lat="45.6166185" lon="12.4171556"><ele>0.5714285714285714</ele><time>2026-04-12T16:22:00.138Z</time></trkpt><trkpt lat="45.6166743" lon="12.4172057"><ele>0.7142857142857142</ele><time>2026-04-12T16:22:02.129Z</time></trkpt><trkpt lat="45.6167242" lon="12.4172754"><ele>0.8571428571428571</ele><time>2026-04-12T16:22:05.143Z</time></trkpt><trkpt lat="45.6167619" lon="12.417352"><ele>1.0</ele><time>2026-04-12T16:22:43.146Z</time></trkpt><trkpt lat="45.616796" lon="12.4174333"><ele>1.0</ele><time>2026-04-12T16:22:48.121Z</time></trkpt><trkpt lat="45.6168219" lon="12.4175245"><ele>1.0</ele><time>2026-04-12T16:23:08.14Z</time></trkpt><trkpt lat="45.6168787" lon="12.4175934"><ele>1.0</ele><time>2026-04-12T16:23:14.139Z</time></trkpt><trkpt lat="45.6169083" lon="12.4174999"><ele>1.0</ele><time>2026-04-12T16:23:43.139Z</time></trkpt><trkpt lat="45.6168961" lon="12.4177765"><ele>1.0</ele><time>2026-04-12T16:25:37.134Z</time></trkpt><trkpt lat="45.6168189" lon="12.4180416"><ele>1.0</ele><time>2026-04-12T16:25:43.131Z</time></trkpt><trkpt lat="45.6167231" lon="12.4183877"><ele>1.0</ele><time>2026-04-12T16:25:44.132Z</time></trkpt><trkpt lat="45.6166585" lon="12.4184739"><ele>1.0</ele><time>2026-04-12T16:25:46.122Z</time></trkpt><trkpt lat="45.6165935" lon="12.4185607"><ele>1.0</ele><time>2026-04-12T16:25:48.123Z</time></trkpt><trkpt lat="45.616529" lon="12.4186518"><ele>1.0</ele><time>2026-04-12T16:25:50.131Z</time></trkpt><trkpt lat="45.6164613" lon="12.4187408"><ele>1.0</ele><time>2026-04-12T16:25:52.13Z</time></trkpt><trkpt lat="45.6163954" lon="12.4188292"><ele>1.0</ele><time>2026-04-12T16:25:54.139Z</time></trkpt><trkpt lat="45.616324" lon="12.4189131"><ele>1.0</ele><time>2026-04-12T16:25:56.134Z</time></trkpt><trkpt lat="45.6162537" lon="12.4190056"><ele>1.0</ele><time>2026-04-12T16:25:58.123Z</time></trkpt><trkpt lat="45.6161843" lon="12.4190981"><ele>1.4</ele><time>2026-04-12T16:26:00.127Z</time></trkpt><trkpt lat="45.6161147" lon="12.4191874"><ele>1.8</ele><time>2026-04-12T16:26:02.131Z</time></trkpt><trkpt lat="45.6160504" lon="12.4192796"><ele>2.1999999999999997</ele><time>2026-04-12T16:26:04.151Z</time></trkpt><trkpt lat="45.6159845" lon="12.419369"><ele>2.6</ele><time>2026-04-12T16:26:06.134Z</time></trkpt><trkpt lat="45.6159166" lon="12.4194611"><ele>3.0</ele><time>2026-04-12T16:26:08.128Z</time></trkpt><trkpt lat="45.6158465" lon="12.4195529"><ele>3.0</ele><time>2026-04-12T16:26:10.136Z</time></trkpt><trkpt lat="45.6157775" lon="12.4196416"><ele>3.0</ele><time>2026-04-12T16:26:12.142Z</time></trkpt><trkpt lat="45.615704" lon="12.4197284"><ele>3.0</ele><time>2026-04-12T16:26:14.141Z</time></trkpt><trkpt lat="45.6156311" lon="12.4198084"><ele>3.0</ele><time>2026-04-12T16:26:16.13Z</time></trkpt><trkpt lat="45.6155567" lon="12.4198666"><ele>3.0</ele><time>2026-04-12T16:26:18.135Z</time></trkpt><trkpt lat="45.615481" lon="12.4199242"><ele>3.0</ele><time>2026-04-12T16:26:20.128Z</time></trkpt><trkpt lat="45.6154034" lon="12.4199857"><ele>3.0</ele><time>2026-04-12T16:26:22.134Z</time></trkpt><trkpt lat="45.6153284" lon="12.4200617"><ele>3.0</ele><time>2026-04-12T16:26:24.144Z</time></trkpt><trkpt lat="45.6152607" lon="12.4201433"><ele>3.0</ele><time>2026-04-12T16:26:26.152Z</time></trkpt><trkpt lat="45.615196" lon="12.4202378"><ele>3.0</ele><time>2026-04-12T16:26:28.133Z</time></trkpt><trkpt lat="45.6151351" lon="12.4203406"><ele>3.0</ele><time>2026-04-12T16:26:30.132Z</time></trkpt><trkpt lat="45.6150801" lon="12.4204445"><ele>3.0</ele><time>2026-04-12T16:26:32.129Z</time></trkpt><trkpt lat="45.6150286" lon="12.4205637"><ele>3.0</ele><time>2026-04-12T16:26:34.131Z</time></trkpt><trkpt lat="45.614979" lon="12.4206834"><ele>3.0</ele><time>2026-04-12T16:26:36.127Z</time></trkpt><trkpt lat="45.6149345" lon="12.4207903"><ele>3.0</ele><time>2026-04-12T16:26:38.134Z</time></trkpt><trkpt lat="45.6148831" lon="12.4209077"><ele>2.6</ele><time>2026-04-12T16:26:40.132Z</time></trkpt><trkpt lat="45.6148242" lon="12.4210265"><ele>2.1999999999999997</ele><time>2026-04-12T16:26:42.13Z</time></trkpt><trkpt lat="45.614769" lon="12.4211386"><ele>1.8</ele><time>2026-04-12T16:26:44.124Z</time></trkpt><trkpt lat="45.6147071" lon="12.4212517"><ele>1.4</ele><time>2026-04-12T16:26:46.132Z</time></trkpt><trkpt lat="45.6146399" lon="12.4213487"><ele>1.0</ele><time>2026-04-12T16:26:48.135Z</time></trkpt><trkpt lat="45.6145661" lon="12.4214432"><ele>1.0</ele><time>2026-04-12T16:26:50.143Z</time></trkpt><trkpt lat="45.6144998" lon="12.421529"><ele>1.0</ele><time>2026-04-12T16:26:52.128Z</time></trkpt><trkpt lat="45.614437" lon="12.4216253"><ele>1.0</ele><time>2026-04-12T16:26:54.13Z</time></trkpt><trkpt lat="45.6143787" lon="12.4217331"><ele>1.0</ele><time>2026-04-12T16:26:56.127Z</time></trkpt><trkpt lat="45.6143243" lon="12.4218545"><ele>1.0</ele><time>2026-04-12T16:26:58.13Z</time></trkpt><trkpt lat="45.6142739" lon="12.4219708"><ele>1.2000000000000002</ele><time>2026-04-12T16:27:00.126Z</time></trkpt><trkpt lat="45.6142181" lon="12.4220917"><ele>1.4000000000000001</ele><time>2026-04-12T16:27:02.13Z</time></trkpt><trkpt lat="45.6141628" lon="12.4222234"><ele>1.6</ele><time>2026-04-12T16:27:04.134Z</time></trkpt><trkpt lat="45.6141073" lon="12.4223574"><ele>1.8</ele><time>2026-04-12T16:27:06.13Z</time></trkpt><trkpt lat="45.614069" lon="12.4224875"><ele>2.0</ele><time>2026-04-12T16:27:08.13Z</time></trkpt><trkpt lat="45.6140371" lon="12.4226282"><ele>2.0</ele><time>2026-04-12T16:27:10.129Z</time></trkpt><trkpt lat="45.614009" lon="12.4227574"><ele>2.0</ele><time>2026-04-12T16:27:12.124Z</time></trkpt><trkpt lat="45.6139874" lon="12.422899"><ele>2.0</ele><time>2026-04-12T16:27:14.131Z</time></trkpt><trkpt lat="45.6139748" lon="12.4230456"><ele>2.0</ele><time>2026-04-12T16:27:16.147Z</time></trkpt><trkpt lat="45.6139606" lon="12.4231935"><ele>2.0</ele><time>2026-04-12T16:27:18.138Z</time></trkpt><trkpt lat="45.6139489" lon="12.4233443"><ele>2.0</ele><time>2026-04-12T16:27:20.14Z</time></trkpt><trkpt lat="45.6139432" lon="12.4234895"><ele>2.0</ele><time>2026-04-12T16:27:22.138Z</time></trkpt><trkpt lat="45.6139404" lon="12.4236316"><ele>2.0</ele><time>2026-04-12T16:27:24.147Z</time></trkpt><trkpt lat="45.6139384" lon="12.4237725"><ele>2.0</ele><time>2026-04-12T16:27:26.133Z</time></trkpt><trkpt lat="45.6139366" lon="12.4239143"><ele>2.0</ele><time>2026-04-12T16:27:28.125Z</time></trkpt><trkpt lat="45.6139406" lon="12.4240571"><ele>1.8</ele><time>2026-04-12T16:27:30.133Z</time></trkpt><trkpt lat="45.6139448" lon="12.4241994"><ele>1.6</ele><time>2026-04-12T16:27:32.142Z</time></trkpt><trkpt lat="45.6139495" lon="12.4243387"><ele>1.4000000000000001</ele><time>2026-04-12T16:27:34.136Z</time></trkpt><trkpt lat="45.6139499" lon="12.4244775"><ele>1.2000000000000002</ele><time>2026-04-12T16:27:36.134Z</time></trkpt><trkpt lat="45.6139315" lon="12.4246114"><ele>1.0</ele><time>2026-04-12T16:27:38.127Z</time></trkpt><trkpt lat="45.6138987" lon="12.4247448"><ele>1.0</ele><time>2026-04-12T16:27:40.154Z</time></trkpt><trkpt lat="45.6138614" lon="12.424874"><ele>1.0</ele><time>2026-04-12T16:27:42.137Z</time></trkpt><trkpt lat="45.6138193" lon="12.4250094"><ele>1.0</ele><time>2026-04-12T16:27:44.151Z</time></trkpt><trkpt lat="45.6137801" lon="12.4251471"><ele>1.0</ele><time>2026-04-12T16:27:46.14Z</time></trkpt><trkpt lat="45.6137417" lon="12.4252781"><ele>1.0</ele><time>2026-04-12T16:27:48.14Z</time></trkpt><trkpt lat="45.6137037" lon="12.4254128"><ele>0.8</ele><time>2026-04-12T16:27:50.124Z</time></trkpt><trkpt lat="45.613665" lon="12.4255478"><ele>0.6000000000000001</ele><time>2026-04-12T16:27:52.12Z</time></trkpt><trkpt lat="45.6136317" lon="12.4256793"><ele>0.4</ele><time>2026-04-12T16:27:54.128Z</time></trkpt><trkpt lat="45.6135922" lon="12.4258074"><ele>0.2</ele><time>2026-04-12T16:27:56.136Z</time></trkpt><trkpt lat="45.6135564" lon="12.4259365"><ele>0.0</ele><time>2026-04-12T16:27:58.126Z</time></trkpt><trkpt lat="45.6135195" lon="12.4260664"><ele>0.0</ele><time>2026-04-12T16:28:00.134Z</time></trkpt><trkpt lat="45.6134841" lon="12.4261988"><ele>0.0</ele><time>2026-04-12T16:28:02.129Z</time></trkpt><trkpt lat="45.6134504" lon="12.4263215"><ele>0.0</ele><time>2026-04-12T16:28:04.13Z</time></trkpt><trkpt lat="45.6134152" lon="12.4264408"><ele>0.0</ele><time>2026-04-12T16:28:06.141Z</time></trkpt><trkpt lat="45.6133795" lon="12.4265575"><ele>0.0</ele><time>2026-04-12T16:28:08.123Z</time></trkpt><trkpt lat="45.6133435" lon="12.4266827"><ele>0.0</ele><time>2026-04-12T16:28:10.13Z</time></trkpt><trkpt lat="45.6133059" lon="12.4268036"><ele>0.0</ele><time>2026-04-12T16:28:12.139Z</time></trkpt><trkpt lat="45.6132568" lon="12.426913"><ele>0.0</ele><time>2026-04-12T16:28:14.137Z</time></trkpt><trkpt lat="45.6132002" lon="12.4270055"><ele>0.0</ele><time>2026-04-12T16:28:16.148Z</time></trkpt><trkpt lat="45.6131415" lon="12.4270743"><ele>0.0</ele><time>2026-04-12T16:28:18.128Z</time></trkpt><trkpt lat="45.6130769" lon="12.4271233"><ele>0.0</ele><time>2026-04-12T16:28:20.13Z</time></trkpt><trkpt lat="45.613" lon="12.4271657"><ele>0.0</ele><time>2026-04-12T16:28:22.121Z</time></trkpt><trkpt lat="45.6129251" lon="12.4271985"><ele>0.0</ele><time>2026-04-12T16:28:24.141Z</time></trkpt><trkpt lat="45.6128502" lon="12.4272149"><ele>0.0</ele><time>2026-04-12T16:28:26.137Z</time></trkpt><trkpt lat="45.6127853" lon="12.4272164"><ele>0.0</ele><time>2026-04-12T16:28:28.146Z</time></trkpt><trkpt lat="45.6127178" lon="12.4272119"><ele>0.0</ele><time>2026-04-12T16:28:30.141Z</time></trkpt><trkpt lat="45.6126381" lon="12.4271825"><ele>0.0</ele><time>2026-04-12T16:28:32.128Z</time></trkpt><trkpt lat="45.6125498" lon="12.4271209"><ele>0.2</ele><time>2026-04-12T16:28:34.116Z</time></trkpt><trkpt lat="45.6124666" lon="12.4270574"><ele>0.4</ele><time>2026-04-12T16:28:36.123Z</time></trkpt><trkpt lat="45.6123734" lon="12.426996"><ele>0.6000000000000001</ele><time>2026-04-12T16:28:38.135Z</time></trkpt><trkpt lat="45.612281" lon="12.426934"><ele>0.8</ele><time>2026-04-12T16:28:40.141Z</time></trkpt><trkpt lat="45.6121925" lon="12.426872"><ele>1.0</ele><time>2026-04-12T16:28:42.13Z</time></trkpt><trkpt lat="45.6121003" lon="12.4268102"><ele>1.0</ele><time>2026-04-12T16:28:44.141Z</time></trkpt><trkpt lat="45.6120104" lon="12.4267464"><ele>1.0</ele><time>2026-04-12T16:28:46.134Z</time></trkpt><trkpt lat="45.6119201" lon="12.4266858"><ele>1.0</ele><time>2026-04-12T16:28:48.138Z</time></trkpt><trkpt lat="45.6118291" lon="12.4266203"><ele>1.0</ele><time>2026-04-12T16:28:50.129Z</time></trkpt><trkpt lat="45.6117366" lon="12.426558"><ele>1.0</ele><time>2026-04-12T16:28:52.127Z</time></trkpt><trkpt lat="45.6116423" lon="12.4264947"><ele>0.8</ele><time>2026-04-12T16:28:54.14Z</time></trkpt><trkpt lat="45.6115503" lon="12.4264379"><ele>0.6000000000000001</ele><time>2026-04-12T16:28:56.13Z</time></trkpt><trkpt lat="45.6114588" lon="12.4263788"><ele>0.4</ele><time>2026-04-12T16:28:58.147Z</time></trkpt><trkpt lat="45.6113655" lon="12.4263197"><ele>0.2</ele><time>2026-04-12T16:29:00.14Z</time></trkpt><trkpt lat="45.6112789" lon="12.4262539"><ele>0.0</ele><time>2026-04-12T16:29:02.144Z</time></trkpt><trkpt lat="45.6111809" lon="12.4261826"><ele>0.0</ele><time>2026-04-12T16:29:04.138Z</time></trkpt><trkpt lat="45.6110859" lon="12.4261201"><ele>0.0</ele><time>2026-04-12T16:29:06.131Z</time></trkpt><trkpt lat="45.6109915" lon="12.4260585"><ele>0.0</ele><time>2026-04-12T16:29:08.129Z</time></trkpt><trkpt lat="45.6109002" lon="12.4259966"><ele>0.0</ele><time>2026-04-12T16:29:10.124Z</time></trkpt><trkpt lat="45.6108071" lon="12.4259337"><ele>0.0</ele><time>2026-04-12T16:29:12.134Z</time></trkpt><trkpt lat="45.6107128" lon="12.4258705"><ele>0.0</ele><time>2026-04-12T16:29:14.128Z</time></trkpt><trkpt lat="45.6106255" lon="12.4258073"><ele>0.0</ele><time>2026-04-12T16:29:16.128Z</time></trkpt><trkpt lat="45.6105275" lon="12.4257439"><ele>0.0</ele><time>2026-04-12T16:29:18.133Z</time></trkpt><trkpt lat="45.6104399" lon="12.4256805"><ele>0.0</ele><time>2026-04-12T16:29:20.142Z</time></trkpt><trkpt lat="45.6103483" lon="12.4256171"><ele>0.0</ele><time>2026-04-12T16:29:22.145Z</time></trkpt><trkpt lat="45.6102509" lon="12.4255536"><ele>0.2</ele><time>2026-04-12T16:29:24.134Z</time></trkpt><trkpt lat="45.6101581" lon="12.42549"><ele>0.4</ele><time>2026-04-12T16:29:26.14Z</time></trkpt><trkpt lat="45.6100656" lon="12.4254238"><ele>0.6000000000000001</ele><time>2026-04-12T16:29:28.133Z</time></trkpt><trkpt lat="45.6099727" lon="12.4253582"><ele>0.8</ele><time>2026-04-12T16:29:30.135Z</time></trkpt><trkpt lat="45.6098782" lon="12.4252957"><ele>1.0</ele><time>2026-04-12T16:29:32.131Z</time></trkpt><trkpt lat="45.6097854" lon="12.4252338"><ele>1.0</ele><time>2026-04-12T16:29:34.131Z</time></trkpt><trkpt lat="45.609693" lon="12.4251676"><ele>1.0</ele><time>2026-04-12T16:29:36.13Z</time></trkpt><trkpt lat="45.6096021" lon="12.4251041"><ele>1.0</ele><time>2026-04-12T16:29:38.128Z</time></trkpt><trkpt lat="45.6095074" lon="12.4250367"><ele>1.0</ele><time>2026-04-12T16:29:40.134Z</time></trkpt><trkpt lat="45.6094169" lon="12.4249728"><ele>1.0</ele><time>2026-04-12T16:29:42.131Z</time></trkpt><trkpt lat="45.6093239" lon="12.4249092"><ele>1.0</ele><time>2026-04-12T16:29:44.129Z</time></trkpt><trkpt lat="45.6092272" lon="12.4248478"><ele>1.0</ele><time>2026-04-12T16:29:46.129Z</time></trkpt><trkpt lat="45.6091293" lon="12.424781"><ele>1.0</ele><time>2026-04-12T16:29:48.153Z</time></trkpt><trkpt lat="45.6090318" lon="12.4247177"><ele>1.0</ele><time>2026-04-12T16:29:50.149Z</time></trkpt><trkpt lat="45.608936" lon="12.4246544"><ele>1.0</ele><time>2026-04-12T16:29:52.132Z</time></trkpt><trkpt lat="45.6088466" lon="12.4245889"><ele>1.0</ele><time>2026-04-12T16:29:54.126Z</time></trkpt><trkpt lat="45.6087497" lon="12.4245198"><ele>1.0</ele><time>2026-04-12T16:29:56.126Z</time></trkpt><trkpt lat="45.6086539" lon="12.4244524"><ele>1.0</ele><time>2026-04-12T16:29:58.133Z</time></trkpt><trkpt lat="45.6085593" lon="12.4243855"><ele>1.0</ele><time>2026-04-12T16:30:00.131Z</time></trkpt><trkpt lat="45.6084621" lon="12.424319"><ele>1.0</ele><time>2026-04-12T16:30:02.142Z</time></trkpt><trkpt lat="45.6083718" lon="12.4242557"><ele>1.0</ele><time>2026-04-12T16:30:04.122Z</time></trkpt><trkpt lat="45.6082787" lon="12.4241882"><ele>1.0</ele><time>2026-04-12T16:30:06.158Z</time></trkpt><trkpt lat="45.608187" lon="12.4241232"><ele>1.0</ele><time>2026-04-12T16:30:08.131Z</time></trkpt><trkpt lat="45.6081046" lon="12.4240639"><ele>1.0</ele><time>2026-04-12T16:30:10.128Z</time></trkpt><trkpt lat="45.6080146" lon="12.4240016"><ele>1.0</ele><time>2026-04-12T16:30:12.142Z</time></trkpt><trkpt lat="45.6079239" lon="12.4239414"><ele>1.0</ele><time>2026-04-12T16:30:14.129Z</time></trkpt><trkpt lat="45.6078365" lon="12.4238892"><ele>1.0</ele><time>2026-04-12T16:30:16.128Z</time></trkpt><trkpt lat="45.6077551" lon="12.4238315"><ele>1.0</ele><time>2026-04-12T16:30:18.124Z</time></trkpt><trkpt lat="45.6076638" lon="12.4237676"><ele>1.0</ele><time>2026-04-12T16:30:20.134Z</time></trkpt><trkpt lat="45.6075708" lon="12.4237085"><ele>1.0</ele><time>2026-04-12T16:30:22.139Z</time></trkpt><trkpt lat="45.6074776" lon="12.4236423"><ele>0.6000000000000001</ele><time>2026-04-12T16:30:24.14Z</time></trkpt><trkpt lat="45.6073812" lon="12.4235751"><ele>0.20000000000000007</ele><time>2026-04-12T16:30:26.138Z</time></trkpt><trkpt lat="45.6072867" lon="12.4235061"><ele>-0.20000000000000007</ele><time>2026-04-12T16:30:28.143Z</time></trkpt><trkpt lat="45.6071839" lon="12.4234475"><ele>-0.6000000000000001</ele><time>2026-04-12T16:30:30.11Z</time></trkpt><trkpt lat="45.607088" lon="12.4233738"><ele>-1.0</ele><time>2026-04-12T16:30:32.132Z</time></trkpt><trkpt lat="45.6069943" lon="12.4233039"><ele>-1.0</ele><time>2026-04-12T16:30:34.134Z</time></trkpt><trkpt lat="45.6068982" lon="12.4232382"><ele>-1.0</ele><time>2026-04-12T16:30:36.152Z</time></trkpt><trkpt lat="45.606793" lon="12.4231714"><ele>-1.0</ele><time>2026-04-12T16:30:38.144Z</time></trkpt><trkpt lat="45.6066975" lon="12.4231076"><ele>-1.0</ele><time>2026-04-12T16:30:40.141Z</time></trkpt><trkpt lat="45.6066035" lon="12.4230381"><ele>-1.0</ele><time>2026-04-12T16:30:42.137Z</time></trkpt><trkpt lat="45.6065086" lon="12.4229757"><ele>-0.8</ele><time>2026-04-12T16:30:44.143Z</time></trkpt><trkpt lat="45.6064144" lon="12.4229126"><ele>-0.6000000000000001</ele><time>2026-04-12T16:30:46.138Z</time></trkpt><trkpt lat="45.606319" lon="12.4228468"><ele>-0.4</ele><time>2026-04-12T16:30:48.131Z</time></trkpt><trkpt lat="45.6062248" lon="12.4227817"><ele>-0.2</ele><time>2026-04-12T16:30:50.128Z</time></trkpt><trkpt lat="45.6061301" lon="12.4227186"><ele>0.0</ele><time>2026-04-12T16:30:52.128Z</time></trkpt><trkpt lat="45.6060352" lon="12.422656"><ele>0.4</ele><time>2026-04-12T16:30:54.129Z</time></trkpt><trkpt lat="45.6059398" lon="12.4225923"><ele>0.8</ele><time>2026-04-12T16:30:56.139Z</time></trkpt><trkpt lat="45.6058499" lon="12.422538"><ele>1.2000000000000002</ele><time>2026-04-12T16:30:58.129Z</time></trkpt><trkpt lat="45.605764" lon="12.4224848"><ele>1.6</ele><time>2026-04-12T16:31:00.133Z</time></trkpt><trkpt lat="45.6056851" lon="12.4224238"><ele>2.0</ele><time>2026-04-12T16:31:02.133Z</time></trkpt><trkpt lat="45.6056069" lon="12.4223684"><ele>1.9999999999999998</ele><time>2026-04-12T16:31:04.142Z</time></trkpt><trkpt lat="45.6055335" lon="12.4223145"><ele>2.0</ele><time>2026-04-12T16:31:06.146Z</time></trkpt><trkpt lat="45.6054647" lon="12.4222634"><ele>2.0</ele><time>2026-04-12T16:31:08.144Z</time></trkpt><trkpt lat="45.6053968" lon="12.4222199"><ele>2.0</ele><time>2026-04-12T16:31:10.147Z</time></trkpt><trkpt lat="45.6053327" lon="12.4221802"><ele>1.9999999999999998</ele><time>2026-04-12T16:31:12.141Z</time></trkpt><trkpt lat="45.6052694" lon="12.4221305"><ele>2.0</ele><time>2026-04-12T16:31:14.133Z</time></trkpt><trkpt lat="45.6051903" lon="12.4220736"><ele>1.9999999999999998</ele><time>2026-04-12T16:31:16.122Z</time></trkpt><trkpt lat="45.6051084" lon="12.4220227"><ele>2.0</ele><time>2026-04-12T16:31:18.132Z</time></trkpt><trkpt lat="45.6050313" lon="12.4219725"><ele>2.0</ele><time>2026-04-12T16:31:20.151Z</time></trkpt><trkpt lat="45.6049497" lon="12.4219199"><ele>2.0</ele><time>2026-04-12T16:31:22.128Z</time></trkpt><trkpt lat="45.604884" lon="12.4218748"><ele>1.9999999999999998</ele><time>2026-04-12T16:31:24.147Z</time></trkpt><trkpt lat="45.6048187" lon="12.4218281"><ele>2.0</ele><time>2026-04-12T16:31:26.135Z</time></trkpt><trkpt lat="45.6047602" lon="12.4217886"><ele>1.9999999999999998</ele><time>2026-04-12T16:31:28.141Z</time></trkpt><trkpt lat="45.6047035" lon="12.4217139"><ele>2.0</ele><time>2026-04-12T16:31:32.128Z</time></trkpt><trkpt lat="45.6047448" lon="12.4215957"><ele>2.0</ele><time>2026-04-12T16:31:35.138Z</time></trkpt><trkpt lat="45.6047791" lon="12.4214928"><ele>2.0</ele><time>2026-04-12T16:31:37.128Z</time></trkpt><trkpt lat="45.604812" lon="12.4213736"><ele>1.9999999999999998</ele><time>2026-04-12T16:31:39.127Z</time></trkpt><trkpt lat="45.6048461" lon="12.4212506"><ele>2.0</ele><time>2026-04-12T16:31:41.141Z</time></trkpt><trkpt lat="45.6048876" lon="12.42112"><ele>1.6</ele><time>2026-04-12T16:31:43.13Z</time></trkpt><trkpt lat="45.6049305" lon="12.4209962"><ele>1.2000000000000002</ele><time>2026-04-12T16:31:45.121Z</time></trkpt><trkpt lat="45.6049739" lon="12.4208696"><ele>0.8</ele><time>2026-04-12T16:31:47.128Z</time></trkpt><trkpt lat="45.6050175" lon="12.4207416"><ele>0.4</ele><time>2026-04-12T16:31:49.114Z</time></trkpt><trkpt lat="45.6050591" lon="12.4206048"><ele>0.0</ele><time>2026-04-12T16:31:51.132Z</time></trkpt><trkpt lat="45.6051023" lon="12.4204708"><ele>-0.2</ele><time>2026-04-12T16:31:53.152Z</time></trkpt><trkpt lat="45.6051448" lon="12.420336"><ele>-0.4</ele><time>2026-04-12T16:31:55.119Z</time></trkpt><trkpt lat="45.6051868" lon="12.4202002"><ele>-0.6000000000000001</ele><time>2026-04-12T16:31:57.133Z</time></trkpt><trkpt lat="45.6052284" lon="12.4200648"><ele>-0.8</ele><time>2026-04-12T16:31:59.136Z</time></trkpt><trkpt lat="45.6052685" lon="12.4199275"><ele>-1.0</ele><time>2026-04-12T16:32:01.145Z</time></trkpt><trkpt lat="45.6053053" lon="12.4197876"><ele>-0.8</ele><time>2026-04-12T16:32:03.138Z</time></trkpt><trkpt lat="45.6053369" lon="12.4196471"><ele>-0.6000000000000001</ele><time>2026-04-12T16:32:05.159Z</time></trkpt><trkpt lat="45.6053682" lon="12.4195045"><ele>-0.4</ele><time>2026-04-12T16:32:07.134Z</time></trkpt><trkpt lat="45.6053928" lon="12.4193566"><ele>-0.2</ele><time>2026-04-12T16:32:09.127Z</time></trkpt><trkpt lat="45.6054112" lon="12.419209"><ele>0.0</ele><time>2026-04-12T16:32:11.142Z</time></trkpt><trkpt lat="45.6054256" lon="12.4190581"><ele>0.0</ele><time>2026-04-12T16:32:13.128Z</time></trkpt><trkpt lat="45.6054359" lon="12.4189057"><ele>0.0</ele><time>2026-04-12T16:32:15.129Z</time></trkpt><trkpt lat="45.6054422" lon="12.4187539"><ele>0.0</ele><time>2026-04-12T16:32:17.128Z</time></trkpt><trkpt lat="45.605444" lon="12.4186006"><ele>0.0</ele><time>2026-04-12T16:32:19.13Z</time></trkpt><trkpt lat="45.6054465" lon="12.4184641"><ele>0.0</ele><time>2026-04-12T16:32:21.131Z</time></trkpt><trkpt lat="45.6054413" lon="12.418303"><ele>0.0</ele><time>2026-04-12T16:32:23.144Z</time></trkpt><trkpt lat="45.6054327" lon="12.418143"><ele>0.0</ele><time>2026-04-12T16:32:25.141Z</time></trkpt><trkpt lat="45.6054269" lon="12.4179853"><ele>0.0</ele><time>2026-04-12T16:32:27.142Z</time></trkpt><trkpt lat="45.6054241" lon="12.4178296"><ele>0.0</ele><time>2026-04-12T16:32:29.144Z</time></trkpt><trkpt lat="45.6054237" lon="12.4176797"><ele>0.0</ele><time>2026-04-12T16:32:31.15Z</time></trkpt><trkpt lat="45.6054148" lon="12.4175237"><ele>0.0</ele><time>2026-04-12T16:32:33.146Z</time></trkpt><trkpt lat="45.6054063" lon="12.4173693"><ele>0.0</ele><time>2026-04-12T16:32:35.162Z</time></trkpt><trkpt lat="45.6054022" lon="12.4172113"><ele>0.0</ele><time>2026-04-12T16:32:37.145Z</time></trkpt><trkpt lat="45.6053999" lon="12.4170582"><ele>0.0</ele><time>2026-04-12T16:32:39.136Z</time></trkpt><trkpt lat="45.6053982" lon="12.4169089"><ele>0.0</ele><time>2026-04-12T16:32:41.138Z</time></trkpt><trkpt lat="45.6053951" lon="12.4167532"><ele>0.0</ele><time>2026-04-12T16:32:43.136Z</time></trkpt><trkpt lat="45.6053902" lon="12.4165976"><ele>0.0</ele><time>2026-04-12T16:32:45.131Z</time></trkpt><trkpt lat="45.6053853" lon="12.416442"><ele>0.0</ele><time>2026-04-12T16:32:47.141Z</time></trkpt><trkpt lat="45.6053799" lon="12.4162831"><ele>0.0</ele><time>2026-04-12T16:32:49.134Z</time></trkpt><trkpt lat="45.6053743" lon="12.4161274"><ele>0.0</ele><time>2026-04-12T16:32:51.157Z</time></trkpt><trkpt lat="45.6053701" lon="12.4159743"><ele>-0.2</ele><time>2026-04-12T16:32:53.132Z</time></trkpt><trkpt lat="45.6053639" lon="12.4158191"><ele>-0.4</ele><time>2026-04-12T16:32:55.143Z</time></trkpt><trkpt lat="45.6053566" lon="12.4156667"><ele>-0.6000000000000001</ele><time>2026-04-12T16:32:57.124Z</time></trkpt><trkpt lat="45.6053488" lon="12.4155109"><ele>-0.8</ele><time>2026-04-12T16:32:59.137Z</time></trkpt><trkpt lat="45.605347" lon="12.4153559"><ele>-1.0</ele><time>2026-04-12T16:33:01.129Z</time></trkpt><trkpt lat="45.6053403" lon="12.4152082"><ele>-0.6000000000000001</ele><time>2026-04-12T16:33:03.132Z</time></trkpt><trkpt lat="45.6053363" lon="12.41506"><ele>-0.20000000000000007</ele><time>2026-04-12T16:33:05.143Z</time></trkpt><trkpt lat="45.6053259" lon="12.4149106"><ele>0.20000000000000007</ele><time>2026-04-12T16:33:07.152Z</time></trkpt><trkpt lat="45.6053231" lon="12.4147639"><ele>0.6000000000000001</ele><time>2026-04-12T16:33:09.149Z</time></trkpt><trkpt lat="45.6053152" lon="12.414601"><ele>1.0</ele><time>2026-04-12T16:33:11.142Z</time></trkpt><trkpt lat="45.6053154" lon="12.4144436"><ele>1.0</ele><time>2026-04-12T16:33:13.14Z</time></trkpt><trkpt lat="45.6053175" lon="12.4142839"><ele>1.0</ele><time>2026-04-12T16:33:15.137Z</time></trkpt><trkpt lat="45.6053071" lon="12.4141236"><ele>1.0</ele><time>2026-04-12T16:33:17.138Z</time></trkpt><trkpt lat="45.6053008" lon="12.4139621"><ele>1.0</ele><time>2026-04-12T16:33:19.129Z</time></trkpt><trkpt lat="45.6052963" lon="12.4138036"><ele>1.0</ele><time>2026-04-12T16:33:21.133Z</time></trkpt><trkpt lat="45.6052937" lon="12.41365"><ele>1.0</ele><time>2026-04-12T16:33:23.162Z</time></trkpt><trkpt lat="45.6052928" lon="12.4135014"><ele>1.0</ele><time>2026-04-12T16:33:25.141Z</time></trkpt><trkpt lat="45.6052907" lon="12.4133462"><ele>1.0</ele><time>2026-04-12T16:33:27.131Z</time></trkpt><trkpt lat="45.6052876" lon="12.4131897"><ele>1.0</ele><time>2026-04-12T16:33:29.15Z</time></trkpt><trkpt lat="45.6052874" lon="12.4130337"><ele>1.0</ele><time>2026-04-12T16:33:31.133Z</time></trkpt><trkpt lat="45.6052828" lon="12.4128723"><ele>1.2000000000000002</ele><time>2026-04-12T16:33:33.141Z</time></trkpt><trkpt lat="45.605278" lon="12.4127141"><ele>1.4000000000000001</ele><time>2026-04-12T16:33:35.124Z</time></trkpt><trkpt lat="45.6052754" lon="12.4125617"><ele>1.6</ele><time>2026-04-12T16:33:37.138Z</time></trkpt><trkpt lat="45.6052713" lon="12.412405"><ele>1.8</ele><time>2026-04-12T16:33:39.131Z</time></trkpt><trkpt lat="45.605268" lon="12.4122512"><ele>2.0</ele><time>2026-04-12T16:33:41.139Z</time></trkpt><trkpt lat="45.6052643" lon="12.4121026"><ele>1.6</ele><time>2026-04-12T16:33:43.138Z</time></trkpt><trkpt lat="45.6052551" lon="12.4119433"><ele>1.2000000000000002</ele><time>2026-04-12T16:33:45.14Z</time></trkpt><trkpt lat="45.6052491" lon="12.4117861"><ele>0.8</ele><time>2026-04-12T16:33:47.132Z</time></trkpt><trkpt lat="45.6052455" lon="12.411632"><ele>0.4</ele><time>2026-04-12T16:33:49.133Z</time></trkpt><trkpt lat="45.6052408" lon="12.4114752"><ele>0.0</ele><time>2026-04-12T16:33:51.14Z</time></trkpt><trkpt lat="45.6052406" lon="12.4113397"><ele>0.2</ele><time>2026-04-12T16:33:53.136Z</time></trkpt><trkpt lat="45.6052361" lon="12.4112494"><ele>0.4</ele><time>2026-04-12T16:33:54.142Z</time></trkpt><trkpt lat="45.6052302" lon="12.4110841"><ele>0.6000000000000001</ele><time>2026-04-12T16:33:56.133Z</time></trkpt><trkpt lat="45.6052319" lon="12.4109288"><ele>0.8</ele><time>2026-04-12T16:33:58.135Z</time></trkpt><trkpt lat="45.6052399" lon="12.410777"><ele>1.0</ele><time>2026-04-12T16:34:00.149Z</time></trkpt><trkpt lat="45.6052534" lon="12.4106277"><ele>1.4</ele><time>2026-04-12T16:34:02.13Z</time></trkpt><trkpt lat="45.6052713" lon="12.410481"><ele>1.8</ele><time>2026-04-12T16:34:04.152Z</time></trkpt><trkpt lat="45.6052994" lon="12.4103274"><ele>2.1999999999999997</ele><time>2026-04-12T16:34:06.143Z</time></trkpt><trkpt lat="45.6053316" lon="12.4101822"><ele>2.6</ele><time>2026-04-12T16:34:08.158Z</time></trkpt><trkpt lat="45.6053748" lon="12.4100342"><ele>3.0</ele><time>2026-04-12T16:34:10.128Z</time></trkpt><trkpt lat="45.6054212" lon="12.4098907"><ele>3.0</ele><time>2026-04-12T16:34:12.138Z</time></trkpt><trkpt lat="45.6054712" lon="12.4097511"><ele>3.0</ele><time>2026-04-12T16:34:14.144Z</time></trkpt><trkpt lat="45.6055232" lon="12.4096141"><ele>3.0</ele><time>2026-04-12T16:34:16.134Z</time></trkpt><trkpt lat="45.6055784" lon="12.4094796"><ele>3.0</ele><time>2026-04-12T16:34:18.143Z</time></trkpt><trkpt lat="45.6056331" lon="12.4093414"><ele>3.0</ele><time>2026-04-12T16:34:20.135Z</time></trkpt><trkpt lat="45.6056877" lon="12.4092015"><ele>3.2</ele><time>2026-04-12T16:34:22.145Z</time></trkpt><trkpt lat="45.6057406" lon="12.4090637"><ele>3.4</ele><time>2026-04-12T16:34:24.123Z</time></trkpt><trkpt lat="45.6057941" lon="12.4089278"><ele>3.6000000000000005</ele><time>2026-04-12T16:34:26.144Z</time></trkpt><trkpt lat="45.6058496" lon="12.4087923"><ele>3.8000000000000003</ele><time>2026-04-12T16:34:28.146Z</time></trkpt><trkpt lat="45.6059021" lon="12.4086526"><ele>4.0</ele><time>2026-04-12T16:34:30.168Z</time></trkpt><trkpt lat="45.6059553" lon="12.408513"><ele>4.0</ele><time>2026-04-12T16:34:32.131Z</time></trkpt><trkpt lat="45.6060101" lon="12.4083745"><ele>4.0</ele><time>2026-04-12T16:34:34.129Z</time></trkpt><trkpt lat="45.6060623" lon="12.4082347"><ele>4.0</ele><time>2026-04-12T16:34:36.129Z</time></trkpt><trkpt lat="45.606114" lon="12.4080939"><ele>4.0</ele><time>2026-04-12T16:34:38.131Z</time></trkpt><trkpt lat="45.6061671" lon="12.4079534"><ele>4.0</ele><time>2026-04-12T16:34:40.132Z</time></trkpt><trkpt lat="45.606221" lon="12.4078117"><ele>3.75</ele><time>2026-04-12T16:34:42.129Z</time></trkpt><trkpt lat="45.6062729" lon="12.407669"><ele>3.5</ele><time>2026-04-12T16:34:44.13Z</time></trkpt><trkpt lat="45.6063287" lon="12.407529"><ele>3.25</ele><time>2026-04-12T16:34:46.135Z</time></trkpt><trkpt lat="45.6063827" lon="12.4073856"><ele>3.0</ele><time>2026-04-12T16:34:48.132Z</time></trkpt><trkpt lat="45.6064367" lon="12.407246"><ele>3.0</ele><time>2026-04-12T16:34:50.133Z</time></trkpt><trkpt lat="45.6064834" lon="12.4070988"><ele>3.0</ele><time>2026-04-12T16:34:52.136Z</time></trkpt><trkpt lat="45.6065342" lon="12.4069615"><ele>3.0</ele><time>2026-04-12T16:34:54.135Z</time></trkpt><trkpt lat="45.6065857" lon="12.4068216"><ele>3.0</ele><time>2026-04-12T16:34:56.136Z</time></trkpt><trkpt lat="45.6066349" lon="12.4066779"><ele>3.0</ele><time>2026-04-12T16:34:58.15Z</time></trkpt><trkpt lat="45.6066821" lon="12.406533"><ele>3.0</ele><time>2026-04-12T16:35:00.133Z</time></trkpt><trkpt lat="45.6067274" lon="12.4063882"><ele>3.0</ele><time>2026-04-12T16:35:02.129Z</time></trkpt><trkpt lat="45.6067734" lon="12.4062453"><ele>3.0</ele><time>2026-04-12T16:35:04.142Z</time></trkpt><trkpt lat="45.6068219" lon="12.4061009"><ele>3.0</ele><time>2026-04-12T16:35:06.14Z</time></trkpt><trkpt lat="45.6068651" lon="12.4059497"><ele>3.0</ele><time>2026-04-12T16:35:08.135Z</time></trkpt><trkpt lat="45.6069107" lon="12.405803"><ele>3.0</ele><time>2026-04-12T16:35:10.143Z</time></trkpt><trkpt lat="45.6069579" lon="12.4056578"><ele>3.0</ele><time>2026-04-12T16:35:12.123Z</time></trkpt><trkpt lat="45.6070035" lon="12.4055106"><ele>3.0</ele><time>2026-04-12T16:35:14.132Z</time></trkpt><trkpt lat="45.607052" lon="12.4053562"><ele>3.0</ele><time>2026-04-12T16:35:16.136Z</time></trkpt><trkpt lat="45.6071019" lon="12.4052098"><ele>2.8</ele><time>2026-04-12T16:35:18.165Z</time></trkpt><trkpt lat="45.6071532" lon="12.4050635"><ele>2.5999999999999996</ele><time>2026-04-12T16:35:20.13Z</time></trkpt><trkpt lat="45.6071996" lon="12.4049256"><ele>2.4000000000000004</ele><time>2026-04-12T16:35:22.133Z</time></trkpt><trkpt lat="45.6072445" lon="12.4047905"><ele>2.2</ele><time>2026-04-12T16:35:24.12Z</time></trkpt><trkpt lat="45.6072834" lon="12.4046605"><ele>2.0</ele><time>2026-04-12T16:35:26.127Z</time></trkpt><trkpt lat="45.6073055" lon="12.4045336"><ele>2.1666666666666665</ele><time>2026-04-12T16:35:28.129Z</time></trkpt><trkpt lat="45.6073146" lon="12.4044096"><ele>2.333333333333333</ele><time>2026-04-12T16:35:30.127Z</time></trkpt><trkpt lat="45.6073192" lon="12.4042827"><ele>2.5</ele><time>2026-04-12T16:35:32.132Z</time></trkpt><trkpt lat="45.6073296" lon="12.4041766"><ele>2.6666666666666665</ele><time>2026-04-12T16:35:34.138Z</time></trkpt><trkpt lat="45.6073167" lon="12.4040439"><ele>2.8333333333333335</ele><time>2026-04-12T16:35:36.134Z</time></trkpt><trkpt lat="45.6073171" lon="12.4039419"><ele>3.0</ele><time>2026-04-12T16:35:38.149Z</time></trkpt><trkpt lat="45.6073221" lon="12.4038205"><ele>3.0</ele><time>2026-04-12T16:35:40.146Z</time></trkpt><trkpt lat="45.6073268" lon="12.4037119"><ele>3.0</ele><time>2026-04-12T16:35:42.13Z</time></trkpt><trkpt lat="45.6073319" lon="12.4036028"><ele>3.0</ele><time>2026-04-12T16:35:44.136Z</time></trkpt><trkpt lat="45.6073361" lon="12.4034869"><ele>3.0</ele><time>2026-04-12T16:35:46.135Z</time></trkpt><trkpt lat="45.6073389" lon="12.403363"><ele>3.0</ele><time>2026-04-12T16:35:48.131Z</time></trkpt><trkpt lat="45.6073438" lon="12.4032133"><ele>3.0</ele><time>2026-04-12T16:35:50.129Z</time></trkpt><trkpt lat="45.6073501" lon="12.4030646"><ele>3.0</ele><time>2026-04-12T16:35:52.152Z</time></trkpt><trkpt lat="45.6073587" lon="12.4029076"><ele>3.0</ele><time>2026-04-12T16:35:54.122Z</time></trkpt><trkpt lat="45.6073623" lon="12.4027652"><ele>3.0</ele><time>2026-04-12T16:35:56.128Z</time></trkpt><trkpt lat="45.6073681" lon="12.4026442"><ele>3.0</ele><time>2026-04-12T16:35:58.134Z</time></trkpt><trkpt lat="45.6073737" lon="12.4025272"><ele>3.0</ele><time>2026-04-12T16:36:00.14Z</time></trkpt><trkpt lat="45.6073858" lon="12.4024093"><ele>3.0</ele><time>2026-04-12T16:36:02.132Z</time></trkpt><trkpt lat="45.6074031" lon="12.4022928"><ele>3.0</ele><time>2026-04-12T16:36:04.141Z</time></trkpt><trkpt lat="45.6074195" lon="12.4021828"><ele>3.0</ele><time>2026-04-12T16:36:06.128Z</time></trkpt><trkpt lat="45.6074382" lon="12.40208"><ele>3.0</ele><time>2026-04-12T16:36:08.124Z</time></trkpt><trkpt lat="45.607457" lon="12.4019759"><ele>3.0</ele><time>2026-04-12T16:36:10.131Z</time></trkpt><trkpt lat="45.6074777" lon="12.4018619"><ele>3.0</ele><time>2026-04-12T16:36:12.124Z</time></trkpt><trkpt lat="45.6075009" lon="12.4017719"><ele>2.8571428571428568</ele><time>2026-04-12T16:36:14.147Z</time></trkpt><trkpt lat="45.6075297" lon="12.4016793"><ele>2.7142857142857144</ele><time>2026-04-12T16:36:16.134Z</time></trkpt><trkpt lat="45.607562" lon="12.4015832"><ele>2.571428571428571</ele><time>2026-04-12T16:36:18.128Z</time></trkpt><trkpt lat="45.6075928" lon="12.4015012"><ele>2.4285714285714284</ele><time>2026-04-12T16:36:20.148Z</time></trkpt><trkpt lat="45.607628" lon="12.4014153"><ele>2.2857142857142856</ele><time>2026-04-12T16:36:23.142Z</time></trkpt><trkpt lat="45.6076625" lon="12.4013385"><ele>2.142857142857143</ele><time>2026-04-12T16:36:25.121Z</time></trkpt><trkpt lat="45.6077199" lon="12.4012159"><ele>2.0</ele><time>2026-04-12T16:36:28.128Z</time></trkpt><trkpt lat="45.6077589" lon="12.4011424"><ele>2.2857142857142856</ele><time>2026-04-12T16:36:30.141Z</time></trkpt><trkpt lat="45.6078024" lon="12.4010656"><ele>2.571428571428571</ele><time>2026-04-12T16:36:32.138Z</time></trkpt><trkpt lat="45.6078469" lon="12.4009927"><ele>2.8571428571428568</ele><time>2026-04-12T16:36:34.138Z</time></trkpt><trkpt lat="45.6078955" lon="12.4009203"><ele>3.142857142857143</ele><time>2026-04-12T16:36:36.115Z</time></trkpt><trkpt lat="45.6079438" lon="12.4008559"><ele>3.428571428571428</ele><time>2026-04-12T16:36:38.133Z</time></trkpt><trkpt lat="45.6079904" lon="12.4007927"><ele>3.714285714285714</ele><time>2026-04-12T16:36:40.158Z</time></trkpt><trkpt lat="45.6080383" lon="12.4007279"><ele>4.0</ele><time>2026-04-12T16:36:42.134Z</time></trkpt><trkpt lat="45.6080937" lon="12.4006714"><ele>3.9999999999999996</ele><time>2026-04-12T16:36:44.131Z</time></trkpt><trkpt lat="45.6081487" lon="12.4006086"><ele>4.0</ele><time>2026-04-12T16:36:46.144Z</time></trkpt><trkpt lat="45.6082105" lon="12.4005272"><ele>4.0</ele><time>2026-04-12T16:36:49.135Z</time></trkpt><trkpt lat="45.6082737" lon="12.4004441"><ele>4.0</ele><time>2026-04-12T16:36:52.142Z</time></trkpt><trkpt lat="45.6083406" lon="12.4003368"><ele>3.9999999999999996</ele><time>2026-04-12T16:36:55.14Z</time></trkpt><trkpt lat="45.6083874" lon="12.4002727"><ele>4.0</ele><time>2026-04-12T16:36:57.134Z</time></trkpt><trkpt lat="45.6084495" lon="12.4002008"><ele>3.833333333333333</ele><time>2026-04-12T16:36:59.143Z</time></trkpt><trkpt lat="45.6085026" lon="12.4001484"><ele>3.6666666666666665</ele><time>2026-04-12T16:37:01.134Z</time></trkpt><trkpt lat="45.6085576" lon="12.4000756"><ele>3.5</ele><time>2026-04-12T16:37:03.132Z</time></trkpt><trkpt lat="45.6086265" lon="12.399998"><ele>3.333333333333333</ele><time>2026-04-12T16:37:05.138Z</time></trkpt><trkpt lat="45.6087047" lon="12.3999257"><ele>3.1666666666666665</ele><time>2026-04-12T16:37:07.126Z</time></trkpt><trkpt lat="45.6087784" lon="12.3998554"><ele>3.0</ele><time>2026-04-12T16:37:09.121Z</time></trkpt><trkpt lat="45.6088432" lon="12.3997934"><ele>3.0</ele><time>2026-04-12T16:37:12.123Z</time></trkpt><trkpt lat="45.6089116" lon="12.3997661"><ele>3.0</ele><time>2026-04-12T16:38:14.115Z</time></trkpt><trkpt lat="45.6089853" lon="12.399688"><ele>3.0</ele><time>2026-04-12T16:38:17.13Z</time></trkpt><trkpt lat="45.6090414" lon="12.399615"><ele>3.0</ele><time>2026-04-12T16:38:19.135Z</time></trkpt><trkpt lat="45.6091001" lon="12.3995492"><ele>3.0</ele><time>2026-04-12T16:38:21.132Z</time></trkpt><trkpt lat="45.6091685" lon="12.3994659"><ele>3.0</ele><time>2026-04-12T16:38:23.136Z</time></trkpt><trkpt lat="45.609245" lon="12.3993842"><ele>3.2</ele><time>2026-04-12T16:38:25.141Z</time></trkpt><trkpt lat="45.6093287" lon="12.399294"><ele>3.4</ele><time>2026-04-12T16:38:27.137Z</time></trkpt><trkpt lat="45.6094154" lon="12.3991982"><ele>3.6000000000000005</ele><time>2026-04-12T16:38:29.143Z</time></trkpt><trkpt lat="45.6095136" lon="12.3990886"><ele>3.8000000000000003</ele><time>2026-04-12T16:38:31.153Z</time></trkpt><trkpt lat="45.6095651" lon="12.3990295"><ele>4.0</ele><time>2026-04-12T16:38:32.162Z</time></trkpt><trkpt lat="45.6096162" lon="12.3989699"><ele>4.0</ele><time>2026-04-12T16:38:33.141Z</time></trkpt><trkpt lat="45.6096697" lon="12.3989083"><ele>3.9999999999999996</ele><time>2026-04-12T16:38:34.145Z</time></trkpt><trkpt lat="45.6097244" lon="12.3988443"><ele>4.0</ele><time>2026-04-12T16:38:35.13Z</time></trkpt><trkpt lat="45.6097809" lon="12.398782"><ele>4.0</ele><time>2026-04-12T16:38:36.135Z</time></trkpt><trkpt lat="45.609839" lon="12.39872"><ele>3.9999999999999996</ele><time>2026-04-12T16:38:37.128Z</time></trkpt><trkpt lat="45.6098961" lon="12.3986539"><ele>4.0</ele><time>2026-04-12T16:38:38.128Z</time></trkpt><trkpt lat="45.6099528" lon="12.3985878"><ele>4.0</ele><time>2026-04-12T16:38:39.139Z</time></trkpt><trkpt lat="45.6100082" lon="12.3985203"><ele>4.0</ele><time>2026-04-12T16:38:40.134Z</time></trkpt><trkpt lat="45.6100635" lon="12.3984521"><ele>3.9999999999999996</ele><time>2026-04-12T16:38:41.128Z</time></trkpt><trkpt lat="45.6101179" lon="12.3983819"><ele>4.0</ele><time>2026-04-12T16:38:42.129Z</time></trkpt><trkpt lat="45.6101701" lon="12.3983105"><ele>4.0</ele><time>2026-04-12T16:38:43.122Z</time></trkpt><trkpt lat="45.6102179" lon="12.3982353"><ele>3.9999999999999996</ele><time>2026-04-12T16:38:44.152Z</time></trkpt><trkpt lat="45.610264" lon="12.3981615"><ele>4.0</ele><time>2026-04-12T16:38:45.137Z</time></trkpt><trkpt lat="45.6103116" lon="12.3980928"><ele>4.0</ele><time>2026-04-12T16:38:46.133Z</time></trkpt><trkpt lat="45.6103584" lon="12.3980254"><ele>4.0</ele><time>2026-04-12T16:38:47.135Z</time></trkpt><trkpt lat="45.610406" lon="12.3979593"><ele>4.0</ele><time>2026-04-12T16:38:48.151Z</time></trkpt><trkpt lat="45.610484" lon="12.3978237"><ele>4.0</ele><time>2026-04-12T16:38:50.144Z</time></trkpt><trkpt lat="45.6105646" lon="12.3977023"><ele>4.0</ele><time>2026-04-12T16:38:52.138Z</time></trkpt><trkpt lat="45.6106327" lon="12.3975691"><ele>4.0</ele><time>2026-04-12T16:38:54.133Z</time></trkpt><trkpt lat="45.6106992" lon="12.3974482"><ele>3.9999999999999996</ele><time>2026-04-12T16:38:56.13Z</time></trkpt><trkpt lat="45.610758" lon="12.3973284"><ele>4.0</ele><time>2026-04-12T16:38:58.133Z</time></trkpt><trkpt lat="45.6108006" lon="12.3972127"><ele>4.0</ele><time>2026-04-12T16:39:00.118Z</time></trkpt><trkpt lat="45.6108283" lon="12.3971229"><ele>4.0</ele><time>2026-04-12T16:39:03.138Z</time></trkpt><trkpt lat="45.6108921" lon="12.3971609"><ele>3.9999999999999996</ele><time>2026-04-12T16:39:14.136Z</time></trkpt><trkpt lat="45.6109432" lon="12.3971058"><ele>4.0</ele><time>2026-04-12T16:39:19.122Z</time></trkpt><trkpt lat="45.6109903" lon="12.3970101"><ele>3.8000000000000003</ele><time>2026-04-12T16:39:21.137Z</time></trkpt><trkpt lat="45.6110355" lon="12.3969048"><ele>3.6000000000000005</ele><time>2026-04-12T16:39:23.129Z</time></trkpt><trkpt lat="45.6110939" lon="12.3968013"><ele>3.4</ele><time>2026-04-12T16:39:25.135Z</time></trkpt><trkpt lat="45.6111429" lon="12.3966807"><ele>3.2</ele><time>2026-04-12T16:39:27.123Z</time></trkpt><trkpt lat="45.6111876" lon="12.396557"><ele>3.0</ele><time>2026-04-12T16:39:29.135Z</time></trkpt><trkpt lat="45.6112392" lon="12.3964359"><ele>2.8</ele><time>2026-04-12T16:39:31.13Z</time></trkpt><trkpt lat="45.6112918" lon="12.3963141"><ele>2.5999999999999996</ele><time>2026-04-12T16:39:33.124Z</time></trkpt><trkpt lat="45.6113381" lon="12.3961887"><ele>2.4000000000000004</ele><time>2026-04-12T16:39:35.135Z</time></trkpt><trkpt lat="45.6113906" lon="12.3960652"><ele>2.2</ele><time>2026-04-12T16:39:37.163Z</time></trkpt><trkpt lat="45.6114199" lon="12.3959238"><ele>2.0</ele><time>2026-04-12T16:39:39.153Z</time></trkpt><trkpt lat="45.6114719" lon="12.3958034"><ele>2.0</ele><time>2026-04-12T16:39:41.135Z</time></trkpt><trkpt lat="45.6115269" lon="12.3956896"><ele>2.0</ele><time>2026-04-12T16:39:43.139Z</time></trkpt><trkpt lat="45.6115763" lon="12.395571"><ele>2.0</ele><time>2026-04-12T16:39:45.147Z</time></trkpt><trkpt lat="45.6116198" lon="12.3954434"><ele>2.0</ele><time>2026-04-12T16:39:47.154Z</time></trkpt><trkpt lat="45.6116624" lon="12.3953096"><ele>2.0</ele><time>2026-04-12T16:39:49.131Z</time></trkpt><trkpt lat="45.6117029" lon="12.3951758"><ele>2.4000000000000004</ele><time>2026-04-12T16:39:51.139Z</time></trkpt><trkpt lat="45.6117358" lon="12.3950404"><ele>2.8000000000000003</ele><time>2026-04-12T16:39:53.134Z</time></trkpt><trkpt lat="45.6117774" lon="12.3949124"><ele>3.2</ele><time>2026-04-12T16:39:55.165Z</time></trkpt><trkpt lat="45.6118156" lon="12.3947842"><ele>3.6</ele><time>2026-04-12T16:39:57.134Z</time></trkpt><trkpt lat="45.611849" lon="12.3946516"><ele>4.0</ele><time>2026-04-12T16:39:59.135Z</time></trkpt><trkpt lat="45.6118842" lon="12.3945145"><ele>4.2</ele><time>2026-04-12T16:40:01.141Z</time></trkpt><trkpt lat="45.6119158" lon="12.394372"><ele>4.4</ele><time>2026-04-12T16:40:03.151Z</time></trkpt><trkpt lat="45.6119473" lon="12.3942317"><ele>4.6</ele><time>2026-04-12T16:40:05.137Z</time></trkpt><trkpt lat="45.6119715" lon="12.3940929"><ele>4.8</ele><time>2026-04-12T16:40:07.143Z</time></trkpt><trkpt lat="45.6119925" lon="12.3939548"><ele>5.0</ele><time>2026-04-12T16:40:09.124Z</time></trkpt><trkpt lat="45.6120073" lon="12.3938153"><ele>5.0</ele><time>2026-04-12T16:40:11.141Z</time></trkpt><trkpt lat="45.6120328" lon="12.3936817"><ele>5.0</ele><time>2026-04-12T16:40:13.144Z</time></trkpt><trkpt lat="45.6120571" lon="12.3935535"><ele>5.0</ele><time>2026-04-12T16:40:15.134Z</time></trkpt><trkpt lat="45.6120676" lon="12.3934268"><ele>5.0</ele><time>2026-04-12T16:40:17.148Z</time></trkpt><trkpt lat="45.6120667" lon="12.3933052"><ele>5.0</ele><time>2026-04-12T16:40:19.137Z</time></trkpt><trkpt lat="45.6120731" lon="12.3931901"><ele>5.0</ele><time>2026-04-12T16:40:21.141Z</time></trkpt><trkpt lat="45.6120867" lon="12.3930821"><ele>4.833333333333334</ele><time>2026-04-12T16:40:23.14Z</time></trkpt><trkpt lat="45.6121017" lon="12.3929786"><ele>4.666666666666667</ele><time>2026-04-12T16:40:25.133Z</time></trkpt><trkpt lat="45.6121045" lon="12.3928636"><ele>4.5</ele><time>2026-04-12T16:40:27.138Z</time></trkpt><trkpt lat="45.6121154" lon="12.3927343"><ele>4.333333333333333</ele><time>2026-04-12T16:40:29.146Z</time></trkpt><trkpt lat="45.6121289" lon="12.3926112"><ele>4.166666666666666</ele><time>2026-04-12T16:40:31.139Z</time></trkpt><trkpt lat="45.6121406" lon="12.3924939"><ele>4.0</ele><time>2026-04-12T16:40:33.133Z</time></trkpt><trkpt lat="45.6121471" lon="12.3923775"><ele>4.0</ele><time>2026-04-12T16:40:35.136Z</time></trkpt><trkpt lat="45.6121565" lon="12.3922457"><ele>4.0</ele><time>2026-04-12T16:40:37.145Z</time></trkpt><trkpt lat="45.6121698" lon="12.3921011"><ele>4.0</ele><time>2026-04-12T16:40:39.149Z</time></trkpt><trkpt lat="45.6121681" lon="12.3919574"><ele>4.0</ele><time>2026-04-12T16:40:41.139Z</time></trkpt><trkpt lat="45.6121594" lon="12.391793"><ele>4.0</ele><time>2026-04-12T16:40:43.138Z</time></trkpt><trkpt lat="45.6121688" lon="12.3916328"><ele>3.75</ele><time>2026-04-12T16:40:45.142Z</time></trkpt><trkpt lat="45.6121771" lon="12.3914756"><ele>3.5</ele><time>2026-04-12T16:40:47.141Z</time></trkpt><trkpt lat="45.6121981" lon="12.3913017"><ele>3.25</ele><time>2026-04-12T16:40:49.142Z</time></trkpt><trkpt lat="45.6122141" lon="12.3911377"><ele>3.0</ele><time>2026-04-12T16:40:51.135Z</time></trkpt><trkpt lat="45.6122312" lon="12.3909774"><ele>3.0</ele><time>2026-04-12T16:40:53.137Z</time></trkpt><trkpt lat="45.6122499" lon="12.3908266"><ele>3.0</ele><time>2026-04-12T16:40:55.147Z</time></trkpt><trkpt lat="45.6122972" lon="12.3907032"><ele>3.0</ele><time>2026-04-12T16:40:57.132Z</time></trkpt><trkpt lat="45.6123469" lon="12.3905529"><ele>3.0</ele><time>2026-04-12T16:40:59.144Z</time></trkpt><trkpt lat="45.612379" lon="12.3903843"><ele>3.0</ele><time>2026-04-12T16:41:01.143Z</time></trkpt><trkpt lat="45.6124057" lon="12.3902164"><ele>3.0</ele><time>2026-04-12T16:41:03.15Z</time></trkpt><trkpt lat="45.6124293" lon="12.3900514"><ele>3.0</ele><time>2026-04-12T16:41:05.134Z</time></trkpt><trkpt lat="45.6124588" lon="12.3898846"><ele>3.0</ele><time>2026-04-12T16:41:07.139Z</time></trkpt><trkpt lat="45.612489" lon="12.3897217"><ele>3.0</ele><time>2026-04-12T16:41:09.128Z</time></trkpt><trkpt lat="45.6125192" lon="12.3895594"><ele>3.2</ele><time>2026-04-12T16:41:11.122Z</time></trkpt><trkpt lat="45.6125494" lon="12.3894024"><ele>3.4</ele><time>2026-04-12T16:41:13.11Z</time></trkpt><trkpt lat="45.6125813" lon="12.3892538"><ele>3.6000000000000005</ele><time>2026-04-12T16:41:15.143Z</time></trkpt><trkpt lat="45.6126125" lon="12.3891134"><ele>3.8000000000000003</ele><time>2026-04-12T16:41:17.153Z</time></trkpt><trkpt lat="45.6126467" lon="12.388981"><ele>4.0</ele><time>2026-04-12T16:41:19.132Z</time></trkpt><trkpt lat="45.6126793" lon="12.388855"><ele>3.9999999999999996</ele><time>2026-04-12T16:41:21.13Z</time></trkpt><trkpt lat="45.61271" lon="12.3887368"><ele>4.0</ele><time>2026-04-12T16:41:23.145Z</time></trkpt><trkpt lat="45.6127291" lon="12.3886243"><ele>4.0</ele><time>2026-04-12T16:41:25.157Z</time></trkpt><trkpt lat="45.6127198" lon="12.388507"><ele>4.0</ele><time>2026-04-12T16:41:27.134Z</time></trkpt><trkpt lat="45.612731" lon="12.3884029"><ele>3.9999999999999996</ele><time>2026-04-12T16:41:29.146Z</time></trkpt><trkpt lat="45.6127653" lon="12.3882784"><ele>4.0</ele><time>2026-04-12T16:41:31.148Z</time></trkpt><trkpt lat="45.6128082" lon="12.3881401"><ele>4.0</ele><time>2026-04-12T16:41:33.132Z</time></trkpt><trkpt lat="45.6128438" lon="12.3880153"><ele>4.0</ele><time>2026-04-12T16:41:35.133Z</time></trkpt><trkpt lat="45.6128822" lon="12.3878812"><ele>4.0</ele><time>2026-04-12T16:41:37.146Z</time></trkpt><trkpt lat="45.6129211" lon="12.3877477"><ele>4.0</ele><time>2026-04-12T16:41:39.142Z</time></trkpt><trkpt lat="45.6129602" lon="12.387608"><ele>4.0</ele><time>2026-04-12T16:41:41.133Z</time></trkpt><trkpt lat="45.6129974" lon="12.3874723"><ele>4.0</ele><time>2026-04-12T16:41:43.137Z</time></trkpt><trkpt lat="45.6130337" lon="12.387332"><ele>4.0</ele><time>2026-04-12T16:41:45.131Z</time></trkpt><trkpt lat="45.6130737" lon="12.3871979"><ele>4.0</ele><time>2026-04-12T16:41:47.152Z</time></trkpt><trkpt lat="45.6131181" lon="12.387059"><ele>4.0</ele><time>2026-04-12T16:41:49.142Z</time></trkpt><trkpt lat="45.6131507" lon="12.3869199"><ele>4.0</ele><time>2026-04-12T16:41:51.141Z</time></trkpt><trkpt lat="45.6131883" lon="12.3867765"><ele>3.75</ele><time>2026-04-12T16:41:53.125Z</time></trkpt><trkpt lat="45.6132208" lon="12.3866259"><ele>3.5</ele><time>2026-04-12T16:41:55.141Z</time></trkpt><trkpt lat="45.6132547" lon="12.3864724"><ele>3.25</ele><time>2026-04-12T16:41:57.139Z</time></trkpt><trkpt lat="45.613285" lon="12.386316"><ele>3.0</ele><time>2026-04-12T16:41:59.136Z</time></trkpt><trkpt lat="45.6133194" lon="12.3861597"><ele>3.5</ele><time>2026-04-12T16:42:01.142Z</time></trkpt><trkpt lat="45.6133585" lon="12.3859939"><ele>4.0</ele><time>2026-04-12T16:42:03.136Z</time></trkpt><trkpt lat="45.6133967" lon="12.3858307"><ele>4.5</ele><time>2026-04-12T16:42:05.143Z</time></trkpt><trkpt lat="45.6134345" lon="12.3856764"><ele>5.0</ele><time>2026-04-12T16:42:07.129Z</time></trkpt><trkpt lat="45.6134734" lon="12.3855111"><ele>5.0</ele><time>2026-04-12T16:42:09.142Z</time></trkpt><trkpt lat="45.6135144" lon="12.3853453"><ele>5.0</ele><time>2026-04-12T16:42:11.134Z</time></trkpt><trkpt lat="45.6135543" lon="12.3851855"><ele>5.0</ele><time>2026-04-12T16:42:13.143Z</time></trkpt><trkpt lat="45.6135941" lon="12.385026"><ele>5.0</ele><time>2026-04-12T16:42:15.148Z</time></trkpt><trkpt lat="45.6136341" lon="12.3848661"><ele>4.75</ele><time>2026-04-12T16:42:17.15Z</time></trkpt><trkpt lat="45.6136731" lon="12.3847048"><ele>4.5</ele><time>2026-04-12T16:42:19.129Z</time></trkpt><trkpt lat="45.6137145" lon="12.3845383"><ele>4.25</ele><time>2026-04-12T16:42:21.138Z</time></trkpt><trkpt lat="45.6137585" lon="12.3843781"><ele>4.0</ele><time>2026-04-12T16:42:23.142Z</time></trkpt><trkpt lat="45.6138058" lon="12.3842202"><ele>4.0</ele><time>2026-04-12T16:42:25.147Z</time></trkpt><trkpt lat="45.6138474" lon="12.3840595"><ele>4.0</ele><time>2026-04-12T16:42:27.133Z</time></trkpt><trkpt lat="45.6138832" lon="12.3839025"><ele>4.0</ele><time>2026-04-12T16:42:29.14Z</time></trkpt><trkpt lat="45.6139171" lon="12.3837511"><ele>4.0</ele><time>2026-04-12T16:42:31.128Z</time></trkpt><trkpt lat="45.6139507" lon="12.3836091"><ele>4.166666666666666</ele><time>2026-04-12T16:42:33.127Z</time></trkpt><trkpt lat="45.6139814" lon="12.3834801"><ele>4.333333333333333</ele><time>2026-04-12T16:42:35.132Z</time></trkpt><trkpt lat="45.6140038" lon="12.3833528"><ele>4.5</ele><time>2026-04-12T16:42:37.129Z</time></trkpt><trkpt lat="45.6140289" lon="12.3832373"><ele>4.666666666666667</ele><time>2026-04-12T16:42:39.134Z</time></trkpt><trkpt lat="45.6140517" lon="12.3831211"><ele>4.833333333333334</ele><time>2026-04-12T16:42:41.146Z</time></trkpt><trkpt lat="45.6140724" lon="12.3830029"><ele>5.0</ele><time>2026-04-12T16:42:43.157Z</time></trkpt><trkpt lat="45.6140908" lon="12.3828815"><ele>5.2</ele><time>2026-04-12T16:42:45.144Z</time></trkpt><trkpt lat="45.6141027" lon="12.3827637"><ele>5.4</ele><time>2026-04-12T16:42:47.138Z</time></trkpt><trkpt lat="45.6140975" lon="12.3826429"><ele>5.6</ele><time>2026-04-12T16:42:49.134Z</time></trkpt><trkpt lat="45.6140912" lon="12.3825148"><ele>5.8</ele><time>2026-04-12T16:42:51.144Z</time></trkpt><trkpt lat="45.6140944" lon="12.3823715"><ele>6.0</ele><time>2026-04-12T16:42:53.129Z</time></trkpt><trkpt lat="45.6140944" lon="12.3822241"><ele>6.0</ele><time>2026-04-12T16:42:55.144Z</time></trkpt><trkpt lat="45.614086" lon="12.3820732"><ele>6.0</ele><time>2026-04-12T16:42:57.128Z</time></trkpt><trkpt lat="45.6140724" lon="12.3819235"><ele>6.0</ele><time>2026-04-12T16:42:59.134Z</time></trkpt><trkpt lat="45.6140627" lon="12.3817804"><ele>6.0</ele><time>2026-04-12T16:43:01.141Z</time></trkpt><trkpt lat="45.6140488" lon="12.3816253"><ele>6.0</ele><time>2026-04-12T16:43:03.138Z</time></trkpt><trkpt lat="45.6140377" lon="12.3814725"><ele>6.0</ele><time>2026-04-12T16:43:05.146Z</time></trkpt><trkpt lat="45.6140194" lon="12.3813127"><ele>6.0</ele><time>2026-04-12T16:43:07.142Z</time></trkpt><trkpt lat="45.6140042" lon="12.3811637"><ele>6.0</ele><time>2026-04-12T16:43:09.134Z</time></trkpt><trkpt lat="45.6139922" lon="12.3810091"><ele>6.0</ele><time>2026-04-12T16:43:11.133Z</time></trkpt><trkpt lat="45.6139797" lon="12.3808453"><ele>6.0</ele><time>2026-04-12T16:43:13.129Z</time></trkpt><trkpt lat="45.6139657" lon="12.3806906"><ele>6.0</ele><time>2026-04-12T16:43:15.135Z</time></trkpt><trkpt lat="45.6139563" lon="12.3805349"><ele>6.0</ele><time>2026-04-12T16:43:17.141Z</time></trkpt><trkpt lat="45.6139415" lon="12.3803718"><ele>6.0</ele><time>2026-04-12T16:43:19.135Z</time></trkpt><trkpt lat="45.613931" lon="12.3802129"><ele>6.0</ele><time>2026-04-12T16:43:21.132Z</time></trkpt><trkpt lat="45.6139219" lon="12.3801205"><ele>6.0</ele><time>2026-04-12T16:43:22.139Z</time></trkpt><trkpt lat="45.6139165" lon="12.3799864"><ele>6.0</ele><time>2026-04-12T16:43:24.134Z</time></trkpt><trkpt lat="45.6139072" lon="12.3798305"><ele>6.0</ele><time>2026-04-12T16:43:26.144Z</time></trkpt><trkpt lat="45.6138973" lon="12.3797352"><ele>6.0</ele><time>2026-04-12T16:43:27.147Z</time></trkpt><trkpt lat="45.6138806" lon="12.3795621"><ele>6.0</ele><time>2026-04-12T16:43:29.137Z</time></trkpt><trkpt lat="45.6138661" lon="12.3793959"><ele>6.0</ele><time>2026-04-12T16:43:31.129Z</time></trkpt><trkpt lat="45.6138558" lon="12.3792971"><ele>6.0</ele><time>2026-04-12T16:43:32.13Z</time></trkpt><trkpt lat="45.6138469" lon="12.379208"><ele>6.0</ele><time>2026-04-12T16:43:33.145Z</time></trkpt><trkpt lat="45.6138367" lon="12.3790491"><ele>6.0</ele><time>2026-04-12T16:43:35.133Z</time></trkpt><trkpt lat="45.6138234" lon="12.3788819"><ele>6.0</ele><time>2026-04-12T16:43:37.139Z</time></trkpt><trkpt lat="45.6138149" lon="12.3787209"><ele>6.0</ele><time>2026-04-12T16:43:39.141Z</time></trkpt><trkpt lat="45.6138289" lon="12.3785605"><ele>6.0</ele><time>2026-04-12T16:43:41.133Z</time></trkpt><trkpt lat="45.6138685" lon="12.3784192"><ele>6.0</ele><time>2026-04-12T16:43:43.14Z</time></trkpt><trkpt lat="45.6139011" lon="12.3782956"><ele>6.0</ele><time>2026-04-12T16:43:45.136Z</time></trkpt><trkpt lat="45.6138595" lon="12.3781803"><ele>6.0</ele><time>2026-04-12T16:43:47.137Z</time></trkpt><trkpt lat="45.6137725" lon="12.3780763"><ele>6.0</ele><time>2026-04-12T16:43:49.133Z</time></trkpt><trkpt lat="45.6136701" lon="12.3779804"><ele>5.666666666666667</ele><time>2026-04-12T16:43:51.127Z</time></trkpt><trkpt lat="45.6136168" lon="12.3779238"><ele>5.333333333333333</ele><time>2026-04-12T16:43:52.129Z</time></trkpt><trkpt lat="45.613564" lon="12.3778685"><ele>5.0</ele><time>2026-04-12T16:43:53.136Z</time></trkpt><trkpt lat="45.6135144" lon="12.3778086"><ele>4.666666666666666</ele><time>2026-04-12T16:43:54.146Z</time></trkpt><trkpt lat="45.6134693" lon="12.3777458"><ele>4.333333333333333</ele><time>2026-04-12T16:43:55.133Z</time></trkpt><trkpt lat="45.6133882" lon="12.3776214"><ele>4.0</ele><time>2026-04-12T16:43:57.139Z</time></trkpt><trkpt lat="45.613313" lon="12.3774875"><ele>4.0</ele><time>2026-04-12T16:43:59.138Z</time></trkpt><trkpt lat="45.6132404" lon="12.3773479"><ele>4.0</ele><time>2026-04-12T16:44:01.136Z</time></trkpt><trkpt lat="45.6131625" lon="12.3772175"><ele>4.0</ele><time>2026-04-12T16:44:03.127Z</time></trkpt><trkpt lat="45.6130843" lon="12.377092"><ele>4.0</ele><time>2026-04-12T16:44:05.146Z</time></trkpt><trkpt lat="45.6130012" lon="12.3769761"><ele>4.0</ele><time>2026-04-12T16:44:07.146Z</time></trkpt><trkpt lat="45.6129151" lon="12.376864"><ele>4.0</ele><time>2026-04-12T16:44:09.14Z</time></trkpt><trkpt lat="45.6128229" lon="12.376768"><ele>4.0</ele><time>2026-04-12T16:44:11.139Z</time></trkpt><trkpt lat="45.612722" lon="12.3766922"><ele>4.0</ele><time>2026-04-12T16:44:13.123Z</time></trkpt><trkpt lat="45.612616" lon="12.376639"><ele>4.4</ele><time>2026-04-12T16:44:15.147Z</time></trkpt><trkpt lat="45.6125076" lon="12.3765992"><ele>4.800000000000001</ele><time>2026-04-12T16:44:17.138Z</time></trkpt><trkpt lat="45.6124034" lon="12.3765793"><ele>5.199999999999999</ele><time>2026-04-12T16:44:19.142Z</time></trkpt><trkpt lat="45.6123042" lon="12.3765693"><ele>5.6</ele><time>2026-04-12T16:44:21.14Z</time></trkpt><trkpt lat="45.6122181" lon="12.376526"><ele>6.0</ele><time>2026-04-12T16:44:23.143Z</time></trkpt><trkpt lat="45.6121772" lon="12.3764284"><ele>5.8</ele><time>2026-04-12T16:44:25.143Z</time></trkpt><trkpt lat="45.6121859" lon="12.3763161"><ele>5.6</ele><time>2026-04-12T16:44:27.122Z</time></trkpt><trkpt lat="45.6122002" lon="12.3761878"><ele>5.4</ele><time>2026-04-12T16:44:29.141Z</time></trkpt><trkpt lat="45.6122093" lon="12.3760465"><ele>5.2</ele><time>2026-04-12T16:44:31.14Z</time></trkpt><trkpt lat="45.6122218" lon="12.3758972"><ele>5.0</ele><time>2026-04-12T16:44:33.136Z</time></trkpt><trkpt lat="45.612235" lon="12.3757484"><ele>5.0</ele><time>2026-04-12T16:44:35.123Z</time></trkpt><trkpt lat="45.6122358" lon="12.3756051"><ele>5.0</ele><time>2026-04-12T16:44:37.144Z</time></trkpt><trkpt lat="45.6122522" lon="12.3754648"><ele>5.0</ele><time>2026-04-12T16:44:39.147Z</time></trkpt><trkpt lat="45.6122782" lon="12.3753279"><ele>5.0</ele><time>2026-04-12T16:44:41.132Z</time></trkpt><trkpt lat="45.6122832" lon="12.3751802"><ele>5.0</ele><time>2026-04-12T16:44:43.149Z</time></trkpt><trkpt lat="45.6123214" lon="12.3750382"><ele>5.0</ele><time>2026-04-12T16:44:45.149Z</time></trkpt><trkpt lat="45.6123614" lon="12.3748867"><ele>5.0</ele><time>2026-04-12T16:44:47.139Z</time></trkpt><trkpt lat="45.6124043" lon="12.374732"><ele>5.0</ele><time>2026-04-12T16:44:49.149Z</time></trkpt><trkpt lat="45.6124498" lon="12.3745726"><ele>5.0</ele><time>2026-04-12T16:44:51.157Z</time></trkpt><trkpt lat="45.612497" lon="12.3744093"><ele>5.0</ele><time>2026-04-12T16:44:53.148Z</time></trkpt><trkpt lat="45.6125439" lon="12.3742507"><ele>5.0</ele><time>2026-04-12T16:44:55.139Z</time></trkpt><trkpt lat="45.6125867" lon="12.3740894"><ele>5.0</ele><time>2026-04-12T16:44:57.139Z</time></trkpt><trkpt lat="45.6126276" lon="12.3739331"><ele>5.0</ele><time>2026-04-12T16:44:59.139Z</time></trkpt><trkpt lat="45.6126734" lon="12.373767"><ele>5.0</ele><time>2026-04-12T16:45:01.145Z</time></trkpt><trkpt lat="45.6126956" lon="12.3736786"><ele>5.0</ele><time>2026-04-12T16:45:02.12Z</time></trkpt><trkpt lat="45.6127184" lon="12.3735887"><ele>5.0</ele><time>2026-04-12T16:45:03.121Z</time></trkpt><trkpt lat="45.6127429" lon="12.3734983"><ele>5.0</ele><time>2026-04-12T16:45:04.141Z</time></trkpt><trkpt lat="45.6127677" lon="12.3734066"><ele>5.0</ele><time>2026-04-12T16:45:05.136Z</time></trkpt><trkpt lat="45.6127983" lon="12.3733142"><ele>5.0</ele><time>2026-04-12T16:45:06.146Z</time></trkpt><trkpt lat="45.6128272" lon="12.373221"><ele>5.0</ele><time>2026-04-12T16:45:07.133Z</time></trkpt><trkpt lat="45.6128514" lon="12.3731251"><ele>4.857142857142857</ele><time>2026-04-12T16:45:08.142Z</time></trkpt><trkpt lat="45.6128789" lon="12.3730315"><ele>4.714285714285714</ele><time>2026-04-12T16:45:09.146Z</time></trkpt><trkpt lat="45.6129026" lon="12.3729373"><ele>4.571428571428571</ele><time>2026-04-12T16:45:10.144Z</time></trkpt><trkpt lat="45.6129282" lon="12.3728431"><ele>4.428571428571429</ele><time>2026-04-12T16:45:11.141Z</time></trkpt><trkpt lat="45.6129514" lon="12.3727472"><ele>4.285714285714286</ele><time>2026-04-12T16:45:12.132Z</time></trkpt><trkpt lat="45.6129743" lon="12.3726515"><ele>4.142857142857142</ele><time>2026-04-12T16:45:13.147Z</time></trkpt><trkpt lat="45.6129964" lon="12.3725575"><ele>4.0</ele><time>2026-04-12T16:45:14.137Z</time></trkpt><trkpt lat="45.6130226" lon="12.3724679"><ele>4.0</ele><time>2026-04-12T16:45:15.135Z</time></trkpt><trkpt lat="45.6130485" lon="12.3723777"><ele>3.9999999999999996</ele><time>2026-04-12T16:45:16.154Z</time></trkpt><trkpt lat="45.6130717" lon="12.3722864"><ele>4.0</ele><time>2026-04-12T16:45:17.141Z</time></trkpt><trkpt lat="45.6130943" lon="12.3721954"><ele>4.0</ele><time>2026-04-12T16:45:18.13Z</time></trkpt><trkpt lat="45.613116" lon="12.3721041"><ele>3.9999999999999996</ele><time>2026-04-12T16:45:19.133Z</time></trkpt><trkpt lat="45.6131336" lon="12.3720126"><ele>4.0</ele><time>2026-04-12T16:45:20.132Z</time></trkpt><trkpt lat="45.6131448" lon="12.3719184"><ele>4.0</ele><time>2026-04-12T16:45:21.138Z</time></trkpt><trkpt lat="45.6131517" lon="12.3718215"><ele>4.142857142857142</ele><time>2026-04-12T16:45:22.141Z</time></trkpt><trkpt lat="45.6131558" lon="12.3717218"><ele>4.285714285714286</ele><time>2026-04-12T16:45:23.152Z</time></trkpt><trkpt lat="45.6131517" lon="12.3716189"><ele>4.428571428571429</ele><time>2026-04-12T16:45:24.137Z</time></trkpt><trkpt lat="45.6131516" lon="12.3715161"><ele>4.571428571428571</ele><time>2026-04-12T16:45:25.135Z</time></trkpt><trkpt lat="45.6131453" lon="12.371415"><ele>4.714285714285714</ele><time>2026-04-12T16:45:26.136Z</time></trkpt><trkpt lat="45.6131343" lon="12.371315"><ele>4.857142857142857</ele><time>2026-04-12T16:45:27.154Z</time></trkpt><trkpt lat="45.6131158" lon="12.3712168"><ele>5.0</ele><time>2026-04-12T16:45:28.133Z</time></trkpt><trkpt lat="45.6130957" lon="12.3711191"><ele>5.0</ele><time>2026-04-12T16:45:29.146Z</time></trkpt><trkpt lat="45.6130692" lon="12.371025"><ele>5.0</ele><time>2026-04-12T16:45:30.142Z</time></trkpt><trkpt lat="45.613044" lon="12.3709317"><ele>5.0</ele><time>2026-04-12T16:45:31.138Z</time></trkpt><trkpt lat="45.6130189" lon="12.3708412"><ele>5.0</ele><time>2026-04-12T16:45:32.141Z</time></trkpt><trkpt lat="45.6129957" lon="12.3707532"><ele>5.0</ele><time>2026-04-12T16:45:33.14Z</time></trkpt><trkpt lat="45.6129738" lon="12.3706671"><ele>5.0</ele><time>2026-04-12T16:45:34.14Z</time></trkpt><trkpt lat="45.6129512" lon="12.3705821"><ele>5.0</ele><time>2026-04-12T16:45:35.144Z</time></trkpt><trkpt lat="45.6129033" lon="12.370421"><ele>4.8</ele><time>2026-04-12T16:45:37.138Z</time></trkpt><trkpt lat="45.6128649" lon="12.3702697"><ele>4.6</ele><time>2026-04-12T16:45:39.134Z</time></trkpt><trkpt lat="45.6128491" lon="12.370123"><ele>4.4</ele><time>2026-04-12T16:45:41.143Z</time></trkpt><trkpt lat="45.6128346" lon="12.3699814"><ele>4.2</ele><time>2026-04-12T16:45:43.137Z</time></trkpt><trkpt lat="45.6127916" lon="12.369845"><ele>4.0</ele><time>2026-04-12T16:45:45.145Z</time></trkpt><trkpt lat="45.6127705" lon="12.3696902"><ele>4.4</ele><time>2026-04-12T16:45:47.134Z</time></trkpt><trkpt lat="45.6127813" lon="12.3695311"><ele>4.800000000000001</ele><time>2026-04-12T16:45:49.139Z</time></trkpt><trkpt lat="45.61281" lon="12.3693798"><ele>5.199999999999999</ele><time>2026-04-12T16:45:51.136Z</time></trkpt><trkpt lat="45.6128649" lon="12.3692381"><ele>5.6</ele><time>2026-04-12T16:45:53.14Z</time></trkpt><trkpt lat="45.6129297" lon="12.3691064"><ele>6.0</ele><time>2026-04-12T16:45:55.132Z</time></trkpt><trkpt lat="45.6130021" lon="12.36898"><ele>6.25</ele><time>2026-04-12T16:45:57.133Z</time></trkpt><trkpt lat="45.6130786" lon="12.368858"><ele>6.5</ele><time>2026-04-12T16:45:59.137Z</time></trkpt><trkpt lat="45.6131593" lon="12.3687427"><ele>6.75</ele><time>2026-04-12T16:46:01.134Z</time></trkpt><trkpt lat="45.6132413" lon="12.3686191"><ele>7.0</ele><time>2026-04-12T16:46:03.129Z</time></trkpt><trkpt lat="45.6133255" lon="12.3684944"><ele>7.0</ele><time>2026-04-12T16:46:05.133Z</time></trkpt><trkpt lat="45.6134098" lon="12.3683638"><ele>6.999999999999999</ele><time>2026-04-12T16:46:07.135Z</time></trkpt><trkpt lat="45.6134545" lon="12.3682995"><ele>6.999999999999999</ele><time>2026-04-12T16:46:08.128Z</time></trkpt><trkpt lat="45.6134997" lon="12.368234"><ele>7.0</ele><time>2026-04-12T16:46:09.136Z</time></trkpt><trkpt lat="45.6135883" lon="12.3681079"><ele>7.0</ele><time>2026-04-12T16:46:11.134Z</time></trkpt><trkpt lat="45.6136722" lon="12.367988"><ele>6.6</ele><time>2026-04-12T16:46:13.141Z</time></trkpt><trkpt lat="45.6137543" lon="12.3678703"><ele>6.199999999999999</ele><time>2026-04-12T16:46:15.141Z</time></trkpt><trkpt lat="45.6138295" lon="12.3677651"><ele>5.8</ele><time>2026-04-12T16:46:17.139Z</time></trkpt><trkpt lat="45.6139028" lon="12.3676631"><ele>5.4</ele><time>2026-04-12T16:46:19.144Z</time></trkpt><trkpt lat="45.6139747" lon="12.3675568"><ele>5.0</ele><time>2026-04-12T16:46:21.141Z</time></trkpt><trkpt lat="45.6140469" lon="12.3674497"><ele>5.0</ele><time>2026-04-12T16:46:23.132Z</time></trkpt><trkpt lat="45.6141186" lon="12.3673321"><ele>5.0</ele><time>2026-04-12T16:46:25.125Z</time></trkpt><trkpt lat="45.6141898" lon="12.3672121"><ele>5.0</ele><time>2026-04-12T16:46:27.121Z</time></trkpt><trkpt lat="45.6142584" lon="12.3670907"><ele>5.0</ele><time>2026-04-12T16:46:29.142Z</time></trkpt><trkpt lat="45.6143366" lon="12.366975"><ele>5.0</ele><time>2026-04-12T16:46:31.14Z</time></trkpt><trkpt lat="45.61442" lon="12.3668602"><ele>4.75</ele><time>2026-04-12T16:46:33.131Z</time></trkpt><trkpt lat="45.6145036" lon="12.3667403"><ele>4.5</ele><time>2026-04-12T16:46:35.137Z</time></trkpt><trkpt lat="45.6145824" lon="12.3666162"><ele>4.25</ele><time>2026-04-12T16:46:37.152Z</time></trkpt><trkpt lat="45.6146637" lon="12.3664964"><ele>4.0</ele><time>2026-04-12T16:46:39.14Z</time></trkpt><trkpt lat="45.6147474" lon="12.3663806"><ele>4.5</ele><time>2026-04-12T16:46:41.129Z</time></trkpt><trkpt lat="45.6148232" lon="12.3662523"><ele>5.0</ele><time>2026-04-12T16:46:43.134Z</time></trkpt><trkpt lat="45.6148946" lon="12.3661131"><ele>5.5</ele><time>2026-04-12T16:46:45.138Z</time></trkpt><trkpt lat="45.6149724" lon="12.3659821"><ele>6.0</ele><time>2026-04-12T16:46:47.133Z</time></trkpt><trkpt lat="45.6150454" lon="12.3658715"><ele>6.0</ele><time>2026-04-12T16:46:49.129Z</time></trkpt><trkpt lat="45.6151064" lon="12.3657962"><ele>6.0</ele><time>2026-04-12T16:46:51.154Z</time></trkpt><trkpt lat="45.6151702" lon="12.3657448"><ele>6.0</ele><time>2026-04-12T16:46:54.138Z</time></trkpt><trkpt lat="45.6152138" lon="12.3656551"><ele>6.0</ele><time>2026-04-12T16:46:58.128Z</time></trkpt><trkpt lat="45.6152772" lon="12.3655697"><ele>6.0</ele><time>2026-04-12T16:48:13.143Z</time></trkpt><trkpt lat="45.6153174" lon="12.3654829"><ele>6.0</ele><time>2026-04-12T16:48:15.137Z</time></trkpt><trkpt lat="45.6153704" lon="12.3654136"><ele>6.0</ele><time>2026-04-12T16:48:17.135Z</time></trkpt><trkpt lat="45.6153571" lon="12.3652945"><ele>6.0</ele><time>2026-04-12T16:48:19.126Z</time></trkpt><trkpt lat="45.6153055" lon="12.3651948"><ele>6.0</ele><time>2026-04-12T16:48:21.138Z</time></trkpt><trkpt lat="45.615222" lon="12.365086"><ele>6.0</ele><time>2026-04-12T16:48:23.156Z</time></trkpt><trkpt lat="45.6151171" lon="12.3649914"><ele>6.0</ele><time>2026-04-12T16:48:25.132Z</time></trkpt><trkpt lat="45.6150628" lon="12.3649439"><ele>6.0</ele><time>2026-04-12T16:48:26.133Z</time></trkpt><trkpt lat="45.6149568" lon="12.3648555"><ele>6.0</ele><time>2026-04-12T16:48:28.128Z</time></trkpt><trkpt lat="45.6148561" lon="12.364773"><ele>6.0</ele><time>2026-04-12T16:48:30.151Z</time></trkpt><trkpt lat="45.6147495" lon="12.3646893"><ele>6.0</ele><time>2026-04-12T16:48:32.139Z</time></trkpt><trkpt lat="45.6146412" lon="12.3646019"><ele>6.0</ele><time>2026-04-12T16:48:34.131Z</time></trkpt><trkpt lat="45.6145363" lon="12.3645133"><ele>6.0</ele><time>2026-04-12T16:48:36.124Z</time></trkpt><trkpt lat="45.6144302" lon="12.3644307"><ele>6.0</ele><time>2026-04-12T16:48:38.128Z</time></trkpt><trkpt lat="45.6143241" lon="12.3643391"><ele>6.0</ele><time>2026-04-12T16:48:40.118Z</time></trkpt><trkpt lat="45.6142204" lon="12.3642487"><ele>6.0</ele><time>2026-04-12T16:48:42.127Z</time></trkpt><trkpt lat="45.6141154" lon="12.3641612"><ele>6.0</ele><time>2026-04-12T16:48:44.129Z</time></trkpt><trkpt lat="45.614012" lon="12.3640705"><ele>6.0</ele><time>2026-04-12T16:48:46.13Z</time></trkpt><trkpt lat="45.6139047" lon="12.3639886"><ele>6.0</ele><time>2026-04-12T16:48:48.13Z</time></trkpt><trkpt lat="45.613803" lon="12.3638998"><ele>5.75</ele><time>2026-04-12T16:48:50.133Z</time></trkpt><trkpt lat="45.6137005" lon="12.3638122"><ele>5.5</ele><time>2026-04-12T16:48:52.131Z</time></trkpt><trkpt lat="45.6135966" lon="12.3637266"><ele>5.25</ele><time>2026-04-12T16:48:54.137Z</time></trkpt><trkpt lat="45.6134901" lon="12.3636456"><ele>5.0</ele><time>2026-04-12T16:48:56.132Z</time></trkpt><trkpt lat="45.6133848" lon="12.3635546"><ele>5.0</ele><time>2026-04-12T16:48:58.14Z</time></trkpt><trkpt lat="45.6132797" lon="12.3634674"><ele>5.0</ele><time>2026-04-12T16:49:00.143Z</time></trkpt><trkpt lat="45.6131775" lon="12.3633671"><ele>5.0</ele><time>2026-04-12T16:49:02.145Z</time></trkpt><trkpt lat="45.6130682" lon="12.3632824"><ele>5.0</ele><time>2026-04-12T16:49:04.133Z</time></trkpt><trkpt lat="45.6129609" lon="12.3631969"><ele>5.0</ele><time>2026-04-12T16:49:06.139Z</time></trkpt><trkpt lat="45.6129083" lon="12.3631467"><ele>5.0</ele><time>2026-04-12T16:49:07.137Z</time></trkpt><trkpt lat="45.6128553" lon="12.3630965"><ele>5.0</ele><time>2026-04-12T16:49:08.129Z</time></trkpt><trkpt lat="45.6128002" lon="12.3630515"><ele>5.0</ele><time>2026-04-12T16:49:09.135Z</time></trkpt><trkpt lat="45.6127468" lon="12.3630014"><ele>5.0</ele><time>2026-04-12T16:49:10.139Z</time></trkpt><trkpt lat="45.6126929" lon="12.3629541"><ele>5.0</ele><time>2026-04-12T16:49:11.137Z</time></trkpt><trkpt lat="45.6126388" lon="12.3629076"><ele>5.0</ele><time>2026-04-12T16:49:12.143Z</time></trkpt><trkpt lat="45.6125847" lon="12.3628614"><ele>5.0</ele><time>2026-04-12T16:49:13.133Z</time></trkpt><trkpt lat="45.6125285" lon="12.3628201"><ele>5.0</ele><time>2026-04-12T16:49:14.136Z</time></trkpt><trkpt lat="45.6124753" lon="12.3627713"><ele>5.0</ele><time>2026-04-12T16:49:15.154Z</time></trkpt><trkpt lat="45.6124195" lon="12.3627279"><ele>5.0</ele><time>2026-04-12T16:49:16.133Z</time></trkpt><trkpt lat="45.6123643" lon="12.3626831"><ele>5.0</ele><time>2026-04-12T16:49:17.14Z</time></trkpt><trkpt lat="45.6122584" lon="12.3625869"><ele>5.0</ele><time>2026-04-12T16:49:19.148Z</time></trkpt><trkpt lat="45.6121519" lon="12.3624951"><ele>5.0</ele><time>2026-04-12T16:49:21.138Z</time></trkpt><trkpt lat="45.6120965" lon="12.3624522"><ele>5.0</ele><time>2026-04-12T16:49:22.141Z</time></trkpt><trkpt lat="45.6119896" lon="12.3623631"><ele>5.0</ele><time>2026-04-12T16:49:24.139Z</time></trkpt><trkpt lat="45.6119372" lon="12.3623121"><ele>5.0</ele><time>2026-04-12T16:49:25.153Z</time></trkpt><trkpt lat="45.6118836" lon="12.3622635"><ele>5.0</ele><time>2026-04-12T16:49:26.125Z</time></trkpt><trkpt lat="45.6117784" lon="12.3621684"><ele>5.0</ele><time>2026-04-12T16:49:28.13Z</time></trkpt><trkpt lat="45.6116779" lon="12.3620641"><ele>5.142857142857142</ele><time>2026-04-12T16:49:30.14Z</time></trkpt><trkpt lat="45.6115848" lon="12.3619461"><ele>5.285714285714286</ele><time>2026-04-12T16:49:32.126Z</time></trkpt><trkpt lat="45.6115386" lon="12.3618841"><ele>5.428571428571429</ele><time>2026-04-12T16:49:33.136Z</time></trkpt><trkpt lat="45.6114918" lon="12.361823"><ele>5.571428571428571</ele><time>2026-04-12T16:49:34.142Z</time></trkpt><trkpt lat="45.611447" lon="12.3617589"><ele>5.714285714285714</ele><time>2026-04-12T16:49:35.139Z</time></trkpt><trkpt lat="45.6114044" lon="12.3616924"><ele>5.857142857142857</ele><time>2026-04-12T16:49:36.145Z</time></trkpt><trkpt lat="45.6113636" lon="12.3616236"><ele>6.0</ele><time>2026-04-12T16:49:37.134Z</time></trkpt><trkpt lat="45.6113259" lon="12.3615514"><ele>6.0</ele><time>2026-04-12T16:49:38.13Z</time></trkpt><trkpt lat="45.6112536" lon="12.3614026"><ele>6.0</ele><time>2026-04-12T16:49:40.124Z</time></trkpt><trkpt lat="45.6112158" lon="12.3613278"><ele>6.0</ele><time>2026-04-12T16:49:41.127Z</time></trkpt><trkpt lat="45.6111587" lon="12.3611726"><ele>6.0</ele><time>2026-04-12T16:49:43.129Z</time></trkpt><trkpt lat="45.6111095" lon="12.3610105"><ele>6.0</ele><time>2026-04-12T16:49:45.129Z</time></trkpt><trkpt lat="45.611081" lon="12.3609288"><ele>5.857142857142857</ele><time>2026-04-12T16:49:46.127Z</time></trkpt><trkpt lat="45.6110319" lon="12.3607622"><ele>5.714285714285714</ele><time>2026-04-12T16:49:48.135Z</time></trkpt><trkpt lat="45.6110088" lon="12.3606767"><ele>5.571428571428571</ele><time>2026-04-12T16:49:49.151Z</time></trkpt><trkpt lat="45.6109917" lon="12.3605876"><ele>5.428571428571429</ele><time>2026-04-12T16:49:50.124Z</time></trkpt><trkpt lat="45.6109719" lon="12.3605"><ele>5.285714285714286</ele><time>2026-04-12T16:49:51.146Z</time></trkpt><trkpt lat="45.6109586" lon="12.3604095"><ele>5.142857142857142</ele><time>2026-04-12T16:49:52.13Z</time></trkpt><trkpt lat="45.6109425" lon="12.3603209"><ele>5.0</ele><time>2026-04-12T16:49:53.141Z</time></trkpt><trkpt lat="45.6109106" lon="12.360148"><ele>5.0</ele><time>2026-04-12T16:49:55.13Z</time></trkpt><trkpt lat="45.6108832" lon="12.3599743"><ele>5.0</ele><time>2026-04-12T16:49:57.132Z</time></trkpt><trkpt lat="45.6108653" lon="12.3598871"><ele>5.0</ele><time>2026-04-12T16:49:58.133Z</time></trkpt><trkpt lat="45.6108327" lon="12.3597143"><ele>5.0</ele><time>2026-04-12T16:50:00.157Z</time></trkpt><trkpt lat="45.6108141" lon="12.3596272"><ele>5.0</ele><time>2026-04-12T16:50:01.132Z</time></trkpt><trkpt lat="45.6107909" lon="12.3595429"><ele>5.0</ele><time>2026-04-12T16:50:02.145Z</time></trkpt><trkpt lat="45.6107629" lon="12.3593702"><ele>5.0</ele><time>2026-04-12T16:50:04.14Z</time></trkpt><trkpt lat="45.6107305" lon="12.3592051"><ele>5.0</ele><time>2026-04-12T16:50:06.142Z</time></trkpt><trkpt lat="45.6107026" lon="12.3590479"><ele>5.0</ele><time>2026-04-12T16:50:08.141Z</time></trkpt><trkpt lat="45.6106818" lon="12.3588887"><ele>5.0</ele><time>2026-04-12T16:50:10.14Z</time></trkpt><trkpt lat="45.6106504" lon="12.3587343"><ele>5.0</ele><time>2026-04-12T16:50:12.149Z</time></trkpt><trkpt lat="45.6106248" lon="12.3585825"><ele>5.0</ele><time>2026-04-12T16:50:14.133Z</time></trkpt><trkpt lat="45.6105989" lon="12.3584385"><ele>5.0</ele><time>2026-04-12T16:50:16.15Z</time></trkpt><trkpt lat="45.6105671" lon="12.3583012"><ele>5.0</ele><time>2026-04-12T16:50:18.147Z</time></trkpt><trkpt lat="45.6105423" lon="12.3581695"><ele>5.0</ele><time>2026-04-12T16:50:20.129Z</time></trkpt><trkpt lat="45.6105416" lon="12.3580364"><ele>5.0</ele><time>2026-04-12T16:50:22.133Z</time></trkpt><trkpt lat="45.6105306" lon="12.3579025"><ele>5.0</ele><time>2026-04-12T16:50:24.133Z</time></trkpt><trkpt lat="45.6105094" lon="12.357771"><ele>5.0</ele><time>2026-04-12T16:50:26.131Z</time></trkpt><trkpt lat="45.6104829" lon="12.3576408"><ele>5.0</ele><time>2026-04-12T16:50:28.144Z</time></trkpt><trkpt lat="45.6104545" lon="12.3575178"><ele>5.0</ele><time>2026-04-12T16:50:30.135Z</time></trkpt><trkpt lat="45.6104302" lon="12.3574011"><ele>5.0</ele><time>2026-04-12T16:50:32.149Z</time></trkpt><trkpt lat="45.6104104" lon="12.357284"><ele>5.0</ele><time>2026-04-12T16:50:34.129Z</time></trkpt><trkpt lat="45.6103756" lon="12.3571803"><ele>5.0</ele><time>2026-04-12T16:50:36.131Z</time></trkpt><trkpt lat="45.6103504" lon="12.3570629"><ele>5.0</ele><time>2026-04-12T16:50:39.121Z</time></trkpt><trkpt lat="45.610329" lon="12.3569684"><ele>5.0</ele><time>2026-04-12T16:50:42.134Z</time></trkpt><trkpt lat="45.6103086" lon="12.3568594"><ele>5.0</ele><time>2026-04-12T16:50:46.133Z</time></trkpt><trkpt lat="45.6102792" lon="12.3567311"><ele>5.0</ele><time>2026-04-12T16:50:49.135Z</time></trkpt><trkpt lat="45.6102705" lon="12.3566232"><ele>5.0</ele><time>2026-04-12T16:50:51.136Z</time></trkpt><trkpt lat="45.6102529" lon="12.3565013"><ele>5.0</ele><time>2026-04-12T16:50:53.131Z</time></trkpt><trkpt lat="45.6102296" lon="12.35638"><ele>5.0</ele><time>2026-04-12T16:50:55.143Z</time></trkpt><trkpt lat="45.6102106" lon="12.3562479"><ele>5.0</ele><time>2026-04-12T16:50:57.135Z</time></trkpt><trkpt lat="45.6101722" lon="12.3561209"><ele>5.0</ele><time>2026-04-12T16:50:59.125Z</time></trkpt><trkpt lat="45.6101419" lon="12.3559898"><ele>5.0</ele><time>2026-04-12T16:51:01.129Z</time></trkpt><trkpt lat="45.6101238" lon="12.3558612"><ele>5.0</ele><time>2026-04-12T16:51:03.136Z</time></trkpt><trkpt lat="45.6100852" lon="12.355665"><ele>5.0</ele><time>2026-04-12T16:51:06.125Z</time></trkpt><trkpt lat="45.6100622" lon="12.3555417"><ele>5.0</ele><time>2026-04-12T16:51:08.13Z</time></trkpt><trkpt lat="45.610044" lon="12.355423"><ele>5.0</ele><time>2026-04-12T16:51:10.14Z</time></trkpt><trkpt lat="45.6100245" lon="12.3553081"><ele>4.833333333333334</ele><time>2026-04-12T16:51:12.139Z</time></trkpt><trkpt lat="45.6099947" lon="12.3552111"><ele>4.666666666666667</ele><time>2026-04-12T16:51:14.128Z</time></trkpt><trkpt lat="45.6099872" lon="12.3551063"><ele>4.5</ele><time>2026-04-12T16:51:16.142Z</time></trkpt><trkpt lat="45.6099896" lon="12.3549896"><ele>4.333333333333333</ele><time>2026-04-12T16:51:18.146Z</time></trkpt><trkpt lat="45.609975" lon="12.3548637"><ele>4.166666666666666</ele><time>2026-04-12T16:51:20.146Z</time></trkpt><trkpt lat="45.6099493" lon="12.354728"><ele>4.0</ele><time>2026-04-12T16:51:22.143Z</time></trkpt><trkpt lat="45.6099206" lon="12.3545803"><ele>4.0</ele><time>2026-04-12T16:51:24.146Z</time></trkpt><trkpt lat="45.6098913" lon="12.3544353"><ele>4.0</ele><time>2026-04-12T16:51:26.137Z</time></trkpt><trkpt lat="45.6098622" lon="12.3542891"><ele>4.0</ele><time>2026-04-12T16:51:28.126Z</time></trkpt><trkpt lat="45.6098369" lon="12.3541523"><ele>4.0</ele><time>2026-04-12T16:51:30.134Z</time></trkpt><trkpt lat="45.6098118" lon="12.3540147"><ele>4.0</ele><time>2026-04-12T16:51:32.137Z</time></trkpt><trkpt lat="45.6097845" lon="12.3538749"><ele>3.6</ele><time>2026-04-12T16:51:34.147Z</time></trkpt><trkpt lat="45.6097558" lon="12.3537291"><ele>3.2</ele><time>2026-04-12T16:51:36.149Z</time></trkpt><trkpt lat="45.6097319" lon="12.3535894"><ele>2.8000000000000003</ele><time>2026-04-12T16:51:38.13Z</time></trkpt><trkpt lat="45.6097045" lon="12.353443"><ele>2.4000000000000004</ele><time>2026-04-12T16:51:40.144Z</time></trkpt><trkpt lat="45.6096764" lon="12.3532956"><ele>2.0</ele><time>2026-04-12T16:51:42.138Z</time></trkpt><trkpt lat="45.6096499" lon="12.3531529"><ele>2.2</ele><time>2026-04-12T16:51:44.162Z</time></trkpt><trkpt lat="45.6096201" lon="12.353002"><ele>2.4000000000000004</ele><time>2026-04-12T16:51:46.15Z</time></trkpt><trkpt lat="45.6095963" lon="12.3528753"><ele>2.5999999999999996</ele><time>2026-04-12T16:51:48.134Z</time></trkpt><trkpt lat="45.6095705" lon="12.3527453"><ele>2.8</ele><time>2026-04-12T16:51:50.137Z</time></trkpt><trkpt lat="45.6095435" lon="12.3526224"><ele>3.0</ele><time>2026-04-12T16:51:52.131Z</time></trkpt><trkpt lat="45.6095206" lon="12.3525325"><ele>3.0</ele><time>2026-04-12T16:51:55.129Z</time></trkpt><trkpt lat="45.6094981" lon="12.3524461"><ele>3.0</ele><time>2026-04-12T16:52:00.111Z</time></trkpt><trkpt lat="45.6094787" lon="12.3523459"><ele>3.0</ele><time>2026-04-12T16:52:04.123Z</time></trkpt><trkpt lat="45.609457" lon="12.352224"><ele>3.0</ele><time>2026-04-12T16:52:06.131Z</time></trkpt><trkpt lat="45.6094316" lon="12.3520861"><ele>3.0</ele><time>2026-04-12T16:52:08.133Z</time></trkpt><trkpt lat="45.6094142" lon="12.3519807"><ele>3.0</ele><time>2026-04-12T16:52:10.139Z</time></trkpt><trkpt lat="45.6093815" lon="12.3518526"><ele>3.2857142857142856</ele><time>2026-04-12T16:52:13.136Z</time></trkpt><trkpt lat="45.6093525" lon="12.3517653"><ele>3.571428571428571</ele><time>2026-04-12T16:52:15.128Z</time></trkpt><trkpt lat="45.6093249" lon="12.351652"><ele>3.8571428571428568</ele><time>2026-04-12T16:52:17.141Z</time></trkpt><trkpt lat="45.6093053" lon="12.3515615"><ele>4.142857142857142</ele><time>2026-04-12T16:52:19.13Z</time></trkpt><trkpt lat="45.6092983" lon="12.3514668"><ele>4.428571428571429</ele><time>2026-04-12T16:52:21.14Z</time></trkpt><trkpt lat="45.6092826" lon="12.3513773"><ele>4.714285714285714</ele><time>2026-04-12T16:52:23.134Z</time></trkpt><trkpt lat="45.609248" lon="12.351272"><ele>5.0</ele><time>2026-04-12T16:52:26.133Z</time></trkpt><trkpt lat="45.6092095" lon="12.3511969"><ele>5.0</ele><time>2026-04-12T16:52:28.133Z</time></trkpt><trkpt lat="45.6091536" lon="12.3510956"><ele>5.0</ele><time>2026-04-12T16:52:31.127Z</time></trkpt><trkpt lat="45.609092" lon="12.3510066"><ele>5.0</ele><time>2026-04-12T16:52:34.142Z</time></trkpt><trkpt lat="45.6090306" lon="12.3509249"><ele>5.0</ele><time>2026-04-12T16:52:37.133Z</time></trkpt><trkpt lat="45.608985" lon="12.3508382"><ele>5.0</ele><time>2026-04-12T16:52:39.135Z</time></trkpt><trkpt lat="45.6089316" lon="12.3507287"><ele>5.0</ele><time>2026-04-12T16:52:41.133Z</time></trkpt><trkpt lat="45.6088663" lon="12.350623"><ele>4.8</ele><time>2026-04-12T16:52:43.137Z</time></trkpt><trkpt lat="45.6087902" lon="12.3505171"><ele>4.6</ele><time>2026-04-12T16:52:45.154Z</time></trkpt><trkpt lat="45.6087022" lon="12.3504023"><ele>4.4</ele><time>2026-04-12T16:52:47.133Z</time></trkpt><trkpt lat="45.6086198" lon="12.3503027"><ele>4.2</ele><time>2026-04-12T16:52:49.143Z</time></trkpt><trkpt lat="45.6085306" lon="12.3502063"><ele>4.0</ele><time>2026-04-12T16:52:51.151Z</time></trkpt><trkpt lat="45.6084374" lon="12.3501075"><ele>4.5</ele><time>2026-04-12T16:52:53.127Z</time></trkpt><trkpt lat="45.6083464" lon="12.3500098"><ele>5.0</ele><time>2026-04-12T16:52:55.131Z</time></trkpt><trkpt lat="45.608255" lon="12.3499086"><ele>5.5</ele><time>2026-04-12T16:52:57.131Z</time></trkpt><trkpt lat="45.6081652" lon="12.3498122"><ele>6.0</ele><time>2026-04-12T16:52:59.137Z</time></trkpt><trkpt lat="45.6080762" lon="12.3497185"><ele>5.8</ele><time>2026-04-12T16:53:01.118Z</time></trkpt><trkpt lat="45.607986" lon="12.3496185"><ele>5.6</ele><time>2026-04-12T16:53:03.14Z</time></trkpt><trkpt lat="45.6079005" lon="12.3495271"><ele>5.4</ele><time>2026-04-12T16:53:05.142Z</time></trkpt><trkpt lat="45.6078141" lon="12.3494329"><ele>5.2</ele><time>2026-04-12T16:53:07.142Z</time></trkpt><trkpt lat="45.6077286" lon="12.3493403"><ele>5.0</ele><time>2026-04-12T16:53:09.135Z</time></trkpt><trkpt lat="45.6076376" lon="12.3492399"><ele>5.0</ele><time>2026-04-12T16:53:11.145Z</time></trkpt><trkpt lat="45.607555" lon="12.3491478"><ele>5.0</ele><time>2026-04-12T16:53:13.129Z</time></trkpt><trkpt lat="45.6074689" lon="12.3490531"><ele>5.0</ele><time>2026-04-12T16:53:15.128Z</time></trkpt><trkpt lat="45.6074185" lon="12.3489965"><ele>5.0</ele><time>2026-04-12T16:53:16.135Z</time></trkpt><trkpt lat="45.6073689" lon="12.3489398"><ele>5.0</ele><time>2026-04-12T16:53:17.131Z</time></trkpt><trkpt lat="45.6072704" lon="12.3488344"><ele>5.0</ele><time>2026-04-12T16:53:19.133Z</time></trkpt><trkpt lat="45.6071936" lon="12.3487585"><ele>5.0</ele><time>2026-04-12T16:53:21.143Z</time></trkpt><trkpt lat="45.6071096" lon="12.3486711"><ele>5.0</ele><time>2026-04-12T16:53:23.13Z</time></trkpt><trkpt lat="45.6070225" lon="12.3485726"><ele>5.0</ele><time>2026-04-12T16:53:25.13Z</time></trkpt><trkpt lat="45.6069343" lon="12.348472"><ele>5.0</ele><time>2026-04-12T16:53:27.132Z</time></trkpt><trkpt lat="45.6068463" lon="12.3483674"><ele>5.0</ele><time>2026-04-12T16:53:29.139Z</time></trkpt><trkpt lat="45.6067567" lon="12.3482635"><ele>5.0</ele><time>2026-04-12T16:53:31.131Z</time></trkpt><trkpt lat="45.6066715" lon="12.3481692"><ele>5.0</ele><time>2026-04-12T16:53:33.154Z</time></trkpt><trkpt lat="45.6065766" lon="12.3480582"><ele>5.0</ele><time>2026-04-12T16:53:35.126Z</time></trkpt><trkpt lat="45.6064871" lon="12.3479554"><ele>5.0</ele><time>2026-04-12T16:53:37.134Z</time></trkpt><trkpt lat="45.6064333" lon="12.3478938"><ele>5.0</ele><time>2026-04-12T16:53:38.134Z</time></trkpt><trkpt lat="45.6063426" lon="12.3477959"><ele>5.0</ele><time>2026-04-12T16:53:40.142Z</time></trkpt><trkpt lat="45.6062587" lon="12.3477071"><ele>5.0</ele><time>2026-04-12T16:53:42.131Z</time></trkpt><trkpt lat="45.6061678" lon="12.3476107"><ele>5.0</ele><time>2026-04-12T16:53:44.136Z</time></trkpt><trkpt lat="45.6060756" lon="12.3475159"><ele>5.2</ele><time>2026-04-12T16:53:46.131Z</time></trkpt><trkpt lat="45.6059923" lon="12.3474301"><ele>5.4</ele><time>2026-04-12T16:53:48.131Z</time></trkpt><trkpt lat="45.6059169" lon="12.3473364"><ele>5.6</ele><time>2026-04-12T16:53:50.131Z</time></trkpt><trkpt lat="45.6058299" lon="12.3472502"><ele>5.8</ele><time>2026-04-12T16:53:52.136Z</time></trkpt><trkpt lat="45.6057426" lon="12.3471502"><ele>6.0</ele><time>2026-04-12T16:53:54.154Z</time></trkpt><trkpt lat="45.6056532" lon="12.3470412"><ele>6.25</ele><time>2026-04-12T16:53:56.128Z</time></trkpt><trkpt lat="45.6055457" lon="12.3469236"><ele>6.5</ele><time>2026-04-12T16:53:58.134Z</time></trkpt><trkpt lat="45.6054948" lon="12.3468649"><ele>6.75</ele><time>2026-04-12T16:53:59.145Z</time></trkpt><trkpt lat="45.6053948" lon="12.3467488"><ele>7.0</ele><time>2026-04-12T16:54:01.132Z</time></trkpt><trkpt lat="45.6052996" lon="12.3466445"><ele>7.0</ele><time>2026-04-12T16:54:03.131Z</time></trkpt><trkpt lat="45.6052043" lon="12.3465445"><ele>6.999999999999999</ele><time>2026-04-12T16:54:05.131Z</time></trkpt><trkpt lat="45.6051537" lon="12.3464904"><ele>6.999999999999999</ele><time>2026-04-12T16:54:06.131Z</time></trkpt><trkpt lat="45.6050574" lon="12.3463841"><ele>7.0</ele><time>2026-04-12T16:54:08.127Z</time></trkpt><trkpt lat="45.6049603" lon="12.3462758"><ele>7.0</ele><time>2026-04-12T16:54:10.131Z</time></trkpt><trkpt lat="45.6048657" lon="12.3461621"><ele>6.0</ele><time>2026-04-12T16:54:12.132Z</time></trkpt><trkpt lat="45.6047816" lon="12.3460352"><ele>4.999999999999999</ele><time>2026-04-12T16:54:14.129Z</time></trkpt><trkpt lat="45.6047065" lon="12.3459025"><ele>4.0</ele><time>2026-04-12T16:54:16.136Z</time></trkpt><trkpt lat="45.6046555" lon="12.3457422"><ele>3.0</ele><time>2026-04-12T16:54:18.133Z</time></trkpt><trkpt lat="45.6046302" lon="12.3456519"><ele>2.0</ele><time>2026-04-12T16:54:19.145Z</time></trkpt><trkpt lat="45.6046032" lon="12.3455639"><ele>1.4000000000000001</ele><time>2026-04-12T16:54:20.128Z</time></trkpt><trkpt lat="45.6045833" lon="12.3454726"><ele>0.8000000000000002</ele><time>2026-04-12T16:54:21.142Z</time></trkpt><trkpt lat="45.6045635" lon="12.3453857"><ele>0.19999999999999996</ele><time>2026-04-12T16:54:22.146Z</time></trkpt><trkpt lat="45.6045449" lon="12.34521"><ele>-0.4</ele><time>2026-04-12T16:54:24.137Z</time></trkpt><trkpt lat="45.6045356" lon="12.3450432"><ele>-1.0</ele><time>2026-04-12T16:54:26.142Z</time></trkpt><trkpt lat="45.6045247" lon="12.3448859"><ele>-1.0</ele><time>2026-04-12T16:54:28.13Z</time></trkpt><trkpt lat="45.6045107" lon="12.3447393"><ele>-1.0</ele><time>2026-04-12T16:54:30.134Z</time></trkpt><trkpt lat="45.604499" lon="12.3445987"><ele>-1.0</ele><time>2026-04-12T16:54:32.134Z</time></trkpt><trkpt lat="45.6044508" lon="12.3444776"><ele>-1.0</ele><time>2026-04-12T16:54:34.13Z</time></trkpt><trkpt lat="45.6043991" lon="12.3443506"><ele>-1.0</ele><time>2026-04-12T16:54:36.127Z</time></trkpt><trkpt lat="45.6043842" lon="12.3442043"><ele>-0.4</ele><time>2026-04-12T16:54:38.135Z</time></trkpt><trkpt lat="45.6043785" lon="12.3440614"><ele>0.19999999999999996</ele><time>2026-04-12T16:54:40.16Z</time></trkpt><trkpt lat="45.6043889" lon="12.3439199"><ele>0.8000000000000002</ele><time>2026-04-12T16:54:42.122Z</time></trkpt><trkpt lat="45.6043917" lon="12.3437768"><ele>1.4000000000000001</ele><time>2026-04-12T16:54:44.141Z</time></trkpt><trkpt lat="45.6043742" lon="12.3436387"><ele>2.0</ele><time>2026-04-12T16:54:46.138Z</time></trkpt><trkpt lat="45.6043889" lon="12.3434831"><ele>2.25</ele><time>2026-04-12T16:54:48.152Z</time></trkpt><trkpt lat="45.6044043" lon="12.3433108"><ele>2.5</ele><time>2026-04-12T16:54:50.134Z</time></trkpt><trkpt lat="45.6044164" lon="12.3431335"><ele>2.75</ele><time>2026-04-12T16:54:52.128Z</time></trkpt><trkpt lat="45.6044254" lon="12.3429596"><ele>3.0</ele><time>2026-04-12T16:54:54.133Z</time></trkpt><trkpt lat="45.6044408" lon="12.3427928"><ele>2.75</ele><time>2026-04-12T16:54:56.128Z</time></trkpt><trkpt lat="45.6044557" lon="12.3426248"><ele>2.5</ele><time>2026-04-12T16:54:58.146Z</time></trkpt><trkpt lat="45.6044672" lon="12.3424579"><ele>2.25</ele><time>2026-04-12T16:55:00.128Z</time></trkpt><trkpt lat="45.6044773" lon="12.3422902"><ele>2.0</ele><time>2026-04-12T16:55:02.137Z</time></trkpt><trkpt lat="45.6044893" lon="12.3421192"><ele>1.5</ele><time>2026-04-12T16:55:04.135Z</time></trkpt><trkpt lat="45.6045009" lon="12.3419512"><ele>1.0</ele><time>2026-04-12T16:55:06.13Z</time></trkpt><trkpt lat="45.6045131" lon="12.3417882"><ele>0.5</ele><time>2026-04-12T16:55:08.142Z</time></trkpt><trkpt lat="45.6045287" lon="12.3416242"><ele>0.0</ele><time>2026-04-12T16:55:10.139Z</time></trkpt><trkpt lat="45.6045402" lon="12.3414658"><ele>0.6</ele><time>2026-04-12T16:55:12.147Z</time></trkpt><trkpt lat="45.60455" lon="12.341319"><ele>1.2</ele><time>2026-04-12T16:55:14.149Z</time></trkpt><trkpt lat="45.6045562" lon="12.3411797"><ele>1.7999999999999998</ele><time>2026-04-12T16:55:16.134Z</time></trkpt><trkpt lat="45.6045619" lon="12.3410421"><ele>2.4</ele><time>2026-04-12T16:55:18.14Z</time></trkpt><trkpt lat="45.6045699" lon="12.3409116"><ele>3.0</ele><time>2026-04-12T16:55:20.134Z</time></trkpt><trkpt lat="45.6045787" lon="12.3407804"><ele>3.0</ele><time>2026-04-12T16:55:22.13Z</time></trkpt><trkpt lat="45.6045803" lon="12.3406375"><ele>3.0</ele><time>2026-04-12T16:55:24.126Z</time></trkpt><trkpt lat="45.6045903" lon="12.3404867"><ele>3.0</ele><time>2026-04-12T16:55:26.136Z</time></trkpt><trkpt lat="45.6046005" lon="12.3403437"><ele>3.0</ele><time>2026-04-12T16:55:28.134Z</time></trkpt><trkpt lat="45.6046131" lon="12.3402053"><ele>3.0</ele><time>2026-04-12T16:55:30.139Z</time></trkpt><trkpt lat="45.6046176" lon="12.3400662"><ele>3.0</ele><time>2026-04-12T16:55:32.137Z</time></trkpt><trkpt lat="45.6046278" lon="12.3399232"><ele>3.0</ele><time>2026-04-12T16:55:34.131Z</time></trkpt><trkpt lat="45.6046359" lon="12.3397834"><ele>3.0</ele><time>2026-04-12T16:55:36.157Z</time></trkpt><trkpt lat="45.6046387" lon="12.3396744"><ele>3.0</ele><time>2026-04-12T16:55:38.135Z</time></trkpt><trkpt lat="45.6046392" lon="12.3395314"><ele>3.0</ele><time>2026-04-12T16:55:40.133Z</time></trkpt><trkpt lat="45.6046294" lon="12.3393629"><ele>2.8</ele><time>2026-04-12T16:55:42.134Z</time></trkpt><trkpt lat="45.6046196" lon="12.3392165"><ele>2.5999999999999996</ele><time>2026-04-12T16:55:44.139Z</time></trkpt><trkpt lat="45.6046042" lon="12.3390845"><ele>2.4000000000000004</ele><time>2026-04-12T16:55:46.145Z</time></trkpt><trkpt lat="45.6045789" lon="12.3389372"><ele>2.2</ele><time>2026-04-12T16:55:48.141Z</time></trkpt><trkpt lat="45.6045589" lon="12.3388261"><ele>2.0</ele><time>2026-04-12T16:55:50.131Z</time></trkpt><trkpt lat="45.6045226" lon="12.3386776"><ele>2.2</ele><time>2026-04-12T16:55:52.13Z</time></trkpt><trkpt lat="45.6044835" lon="12.3385331"><ele>2.4000000000000004</ele><time>2026-04-12T16:55:54.169Z</time></trkpt><trkpt lat="45.6044504" lon="12.3383942"><ele>2.5999999999999996</ele><time>2026-04-12T16:55:56.155Z</time></trkpt><trkpt lat="45.6044194" lon="12.3382702"><ele>2.8</ele><time>2026-04-12T16:55:58.13Z</time></trkpt><trkpt lat="45.6043881" lon="12.3381485"><ele>3.0</ele><time>2026-04-12T16:56:00.151Z</time></trkpt><trkpt lat="45.6043568" lon="12.3380377"><ele>3.2</ele><time>2026-04-12T16:56:02.138Z</time></trkpt><trkpt lat="45.6043225" lon="12.3379166"><ele>3.4</ele><time>2026-04-12T16:56:04.145Z</time></trkpt><trkpt lat="45.6042862" lon="12.3377939"><ele>3.6000000000000005</ele><time>2026-04-12T16:56:06.125Z</time></trkpt><trkpt lat="45.6042515" lon="12.337679"><ele>3.8000000000000003</ele><time>2026-04-12T16:56:08.129Z</time></trkpt><trkpt lat="45.6042113" lon="12.3375468"><ele>4.0</ele><time>2026-04-12T16:56:10.134Z</time></trkpt><trkpt lat="45.6041774" lon="12.3374213"><ele>4.0</ele><time>2026-04-12T16:56:12.137Z</time></trkpt><trkpt lat="45.6041377" lon="12.3372844"><ele>4.0</ele><time>2026-04-12T16:56:14.128Z</time></trkpt><trkpt lat="45.6040986" lon="12.3371298"><ele>4.0</ele><time>2026-04-12T16:56:16.133Z</time></trkpt><trkpt lat="45.60407" lon="12.3370365"><ele>4.0</ele><time>2026-04-12T16:56:17.129Z</time></trkpt><trkpt lat="45.6040375" lon="12.3368894"><ele>4.0</ele><time>2026-04-12T16:56:19.133Z</time></trkpt><trkpt lat="45.6039894" lon="12.336773"><ele>3.9999999999999996</ele><time>2026-04-12T16:56:21.135Z</time></trkpt><trkpt lat="45.6039563" lon="12.3366344"><ele>4.0</ele><time>2026-04-12T16:56:23.153Z</time></trkpt><trkpt lat="45.6039216" lon="12.3365253"><ele>4.0</ele><time>2026-04-12T16:56:25.141Z</time></trkpt><trkpt lat="45.6039407" lon="12.3364368"><ele>4.0</ele><time>2026-04-12T16:56:28.12Z</time></trkpt><trkpt lat="45.6040033" lon="12.3364911"><ele>3.9999999999999996</ele><time>2026-04-12T16:56:30.132Z</time></trkpt><trkpt lat="45.6040424" lon="12.3365844"><ele>4.0</ele><time>2026-04-12T16:56:32.142Z</time></trkpt><trkpt lat="45.6040663" lon="12.3366979"><ele>3.9999999999999996</ele><time>2026-04-12T16:56:34.139Z</time></trkpt><trkpt lat="45.6041025" lon="12.3368304"><ele>4.0</ele><time>2026-04-12T16:56:36.136Z</time></trkpt><trkpt lat="45.6041218" lon="12.3369569"><ele>4.0</ele><time>2026-04-12T16:56:38.134Z</time></trkpt><trkpt lat="45.6041401" lon="12.3370565"><ele>4.0</ele><time>2026-04-12T16:56:40.131Z</time></trkpt><trkpt lat="45.6041975" lon="12.3369691"><ele>3.9999999999999996</ele><time>2026-04-12T16:56:45.147Z</time></trkpt><trkpt lat="45.604192" lon="12.3368784"><ele>4.0</ele><time>2026-04-12T16:56:47.133Z</time></trkpt><trkpt lat="45.6041757" lon="12.3367771"><ele>4.0</ele><time>2026-04-12T16:56:49.138Z</time></trkpt><trkpt lat="45.604156" lon="12.3366634"><ele>4.0</ele><time>2026-04-12T16:56:51.131Z</time></trkpt><trkpt lat="45.6041248" lon="12.3365296"><ele>4.0</ele><time>2026-04-12T16:56:53.143Z</time></trkpt><trkpt lat="45.6040881" lon="12.3363985"><ele>4.0</ele><time>2026-04-12T16:56:55.143Z</time></trkpt><trkpt lat="45.6040529" lon="12.3362539"><ele>4.0</ele><time>2026-04-12T16:56:57.142Z</time></trkpt><trkpt lat="45.6040282" lon="12.3361515"><ele>3.6666666666666665</ele><time>2026-04-12T16:56:59.144Z</time></trkpt><trkpt lat="45.6039839" lon="12.3360137"><ele>3.333333333333333</ele><time>2026-04-12T16:57:02.13Z</time></trkpt><trkpt lat="45.6039592" lon="12.3358904"><ele>3.0</ele><time>2026-04-12T16:57:04.139Z</time></trkpt><trkpt lat="45.6039288" lon="12.3357611"><ele>2.6666666666666665</ele><time>2026-04-12T16:57:06.143Z</time></trkpt><trkpt lat="45.6039165" lon="12.3356592"><ele>2.333333333333333</ele><time>2026-04-12T16:57:08.132Z</time></trkpt><trkpt lat="45.6038937" lon="12.3355448"><ele>2.0</ele><time>2026-04-12T16:57:10.142Z</time></trkpt><trkpt lat="45.6038726" lon="12.3354264"><ele>1.9999999999999998</ele><time>2026-04-12T16:57:12.132Z</time></trkpt><trkpt lat="45.6038377" lon="12.3352778"><ele>2.0</ele><time>2026-04-12T16:57:14.134Z</time></trkpt><trkpt lat="45.6038067" lon="12.3351486"><ele>2.0</ele><time>2026-04-12T16:57:16.129Z</time></trkpt><trkpt lat="45.6037841" lon="12.3350589"><ele>2.0</ele><time>2026-04-12T16:57:18.139Z</time></trkpt><trkpt lat="45.6037442" lon="12.3351605"><ele>1.9999999999999998</ele><time>2026-04-12T16:57:24.126Z</time></trkpt><trkpt lat="45.6037644" lon="12.3352809"><ele>2.0</ele><time>2026-04-12T16:57:26.13Z</time></trkpt><trkpt lat="45.6037883" lon="12.3354184"><ele>1.9999999999999998</ele><time>2026-04-12T16:57:28.135Z</time></trkpt><trkpt lat="45.6038136" lon="12.3355112"><ele>2.0</ele><time>2026-04-12T16:57:30.133Z</time></trkpt><trkpt lat="45.6038864" lon="12.335548"><ele>2.0</ele><time>2026-04-12T16:57:34.141Z</time></trkpt><trkpt lat="45.6039511" lon="12.3355645"><ele>2.0</ele><time>2026-04-12T16:57:36.156Z</time></trkpt><trkpt lat="45.6040023" lon="12.3356177"><ele>1.9999999999999998</ele><time>2026-04-12T16:57:37.137Z</time></trkpt><trkpt lat="45.6041172" lon="12.3356611"><ele>2.0</ele><time>2026-04-12T16:57:39.139Z</time></trkpt><trkpt lat="45.6042176" lon="12.3356172"><ele>1.9999999999999998</ele><time>2026-04-12T16:57:41.154Z</time></trkpt><trkpt lat="45.6043025" lon="12.3355401"><ele>2.0</ele><time>2026-04-12T16:57:43.147Z</time></trkpt><trkpt lat="45.6043598" lon="12.3354565"><ele>2.0</ele><time>2026-04-12T16:57:45.14Z</time></trkpt><trkpt lat="45.6044005" lon="12.3353551"><ele>2.0</ele><time>2026-04-12T16:57:47.139Z</time></trkpt><trkpt lat="45.6044287" lon="12.3352415"><ele>1.9999999999999998</ele><time>2026-04-12T16:57:49.139Z</time></trkpt><trkpt lat="45.6044397" lon="12.3350992"><ele>2.0</ele><time>2026-04-12T16:57:51.139Z</time></trkpt><trkpt lat="45.6044543" lon="12.3349757"><ele>1.9999999999999998</ele><time>2026-04-12T16:57:53.138Z</time></trkpt><trkpt lat="45.6044606" lon="12.3348609"><ele>2.0</ele><time>2026-04-12T16:57:55.13Z</time></trkpt><trkpt lat="45.6044743" lon="12.334742"><ele>2.0</ele><time>2026-04-12T16:57:57.145Z</time></trkpt><trkpt lat="45.6044893" lon="12.3346349"><ele>2.0</ele><time>2026-04-12T16:57:59.152Z</time></trkpt><trkpt lat="45.6045068" lon="12.3345001"><ele>1.9999999999999998</ele><time>2026-04-12T16:58:01.14Z</time></trkpt><trkpt lat="45.6045213" lon="12.3343793"><ele>2.0</ele><time>2026-04-12T16:58:03.134Z</time></trkpt><trkpt lat="45.6045282" lon="12.3342724"><ele>2.333333333333333</ele><time>2026-04-12T16:58:05.144Z</time></trkpt><trkpt lat="45.6045469" lon="12.3341501"><ele>2.6666666666666665</ele><time>2026-04-12T16:58:07.148Z</time></trkpt><trkpt lat="45.6045681" lon="12.3340321"><ele>3.0</ele><time>2026-04-12T16:58:09.148Z</time></trkpt><trkpt lat="45.6045872" lon="12.3339415"><ele>3.333333333333333</ele><time>2026-04-12T16:58:11.14Z</time></trkpt><trkpt lat="45.6045997" lon="12.3338419"><ele>3.6666666666666665</ele><time>2026-04-12T16:58:14.132Z</time></trkpt><trkpt lat="45.6045629" lon="12.3337447"><ele>4.0</ele><time>2026-04-12T16:58:17.145Z</time></trkpt><trkpt lat="45.6044803" lon="12.3337052"><ele>4.0</ele><time>2026-04-12T16:58:19.153Z</time></trkpt><trkpt lat="45.6043825" lon="12.3336844"><ele>4.0</ele><time>2026-04-12T16:58:21.142Z</time></trkpt><trkpt lat="45.6042912" lon="12.3336681"><ele>4.0</ele><time>2026-04-12T16:58:23.145Z</time></trkpt><trkpt lat="45.6041995" lon="12.3336557"><ele>4.0</ele><time>2026-04-12T16:58:25.136Z</time></trkpt><trkpt lat="45.6041068" lon="12.3336434"><ele>4.0</ele><time>2026-04-12T16:58:27.136Z</time></trkpt><trkpt lat="45.6040157" lon="12.3336329"><ele>4.0</ele><time>2026-04-12T16:58:29.14Z</time></trkpt><trkpt lat="45.603933" lon="12.3336125"><ele>4.0</ele><time>2026-04-12T16:58:31.148Z</time></trkpt><trkpt lat="45.6038477" lon="12.3335899"><ele>4.0</ele><time>2026-04-12T16:58:33.129Z</time></trkpt><trkpt lat="45.6037557" lon="12.3335765"><ele>4.0</ele><time>2026-04-12T16:58:35.138Z</time></trkpt><trkpt lat="45.6036653" lon="12.3335611"><ele>4.0</ele><time>2026-04-12T16:58:37.153Z</time></trkpt><trkpt lat="45.6035819" lon="12.3334846"><ele>3.9999999999999996</ele><time>2026-04-12T16:58:40.138Z</time></trkpt><trkpt lat="45.6035529" lon="12.3333628"><ele>4.0</ele><time>2026-04-12T16:58:42.128Z</time></trkpt><trkpt lat="45.6035284" lon="12.3332294"><ele>4.0</ele><time>2026-04-12T16:58:44.132Z</time></trkpt><trkpt lat="45.6035045" lon="12.3331022"><ele>4.0</ele><time>2026-04-12T16:58:46.141Z</time></trkpt><trkpt lat="45.6034795" lon="12.332983"><ele>3.9999999999999996</ele><time>2026-04-12T16:58:48.148Z</time></trkpt><trkpt lat="45.6034676" lon="12.3328845"><ele>4.0</ele><time>2026-04-12T16:58:50.144Z</time></trkpt><trkpt lat="45.6034687" lon="12.332763"><ele>2.0</ele><time>2026-04-12T16:58:52.133Z</time></trkpt><trkpt lat="45.6034557" lon="12.3326451"><ele>2.0</ele><time>2026-04-12T16:58:54.153Z</time></trkpt></trkseg></trk></gpx>